[[{"header":{"parameterUnit":"m.s-1","parameterCategory":1,"la1":31.0,"la2":29.5877,"lo1":-88.7671,"lo2":-86.6584,"dy":0.0162,"dx":0.0185,"nx":115,"ny":88,"refTime":"2026-05-13T12:00:00:Z","depth":0,"parameterNumber":2,"parameterNumberName":"U-component_of_WINDS"},"data":[0.0,0.0,0.0,0.0,0.0,0.0,0.0,0.0,0.0,0.0,0.0,0.0,0.0,0.0,0.0,0.0,0.0,0.0,0.0,0.0,0.0,0.0,0.0,0.0,0.0,0.0,0.0,0.0,0.0,0.0,0.0,0.0,0.0,0.0,0.0,0.0,0.0,0.0,0.0,0.0,0.0,0.0,0.0,0.0,0.0,0.0,0.0,0.0,0.0,0.0,0.0,0.0,0.0,0.0,0.0,0.0,0.0,0.0,0.0,0.0,0.0,0.0,0.0,0.0,0.0,0.0,0.0,0.0,0.0,0.0,0.0,0.0,0.0,0.0,0.0,0.0,0.0,0.0,0.0,0.0,0.0,0.0,0.0,0.0,0.0,0.0,0.0,0.0,0.0,0.0,0.0,0.0,0.0,0.0,0.0,0.0,0.0,0.0,0.0,0.0,0.0,0.0,0.0,0.0,0.0,0.0,0.0,0.0,0.0,0.0,0.0,0.0,0.0,0.0,0.0,0.0,0.0,0.0,0.0,0.0,0.0,0.0,0.0,0.0,0.0,0.0,0.0,0.0,0.0,0.0,0.0,0.0,0.0,0.0,0.0,0.0,0.0,0.0,0.0,0.0,0.0,0.0,0.0,0.0,0.0,0.0,0.0,0.0,0.0,0.0,0.0,0.0,0.0,0.0,0.0,0.0,0.0,0.0,0.0,0.0,0.0,0.0,0.0,0.0,0.0,0.0,0.0,0.0,0.0,0.0,0.0,0.0,0.0,0.0,0.0,0.0,0.0,0.0,0.0,0.0,0.0,0.0,0.0,0.0,0.0,0.0,0.0,0.0,0.0,0.0,0.0,0.0,0.0,0.0,0.0,0.0,0.0,0.0,0.0,0.0,0.0,0.0,0.0,0.0,0.0,0.0,0.0,0.0,0.0,0.0,0.0,0.0,0.0,0.0,0.0,0.0,0.0,0.0,0.0,0.0,0.0,0.0,0.0,0.0,0.0,0.0,0.0,0.0,0.0,0.0,0.0,0.0,0.0,0.0,0.0,0.0,0.0,0.0,0.0,0.0,0.0,0.0,0.0,0.0,0.0,0.0,0.0,0.0,0.0,0.0,0.0,0.0,0.0,0.0,0.0,0.0,0.0,0.0,0.0,0.0,0.0,0.0,0.0,0.0,0.0,0.0,0.0,0.0,0.0,0.0,0.0,0.0,0.0,0.0,0.0,0.0,0.0,0.0,0.0,0.0,0.0,0.0,0.0,0.0,0.0,0.0,0.0,0.0,0.0,0.0,0.0,0.0,0.0,0.0,0.0,0.0,0.0,0.0,0.0,0.0,0.0,0.0,0.0,0.0,0.0,0.0,0.0,0.0,0.0,0.0,0.0,0.0,0.0,0.0,0.0,0.0,0.0,0.0,0.0,0.0,0.0,0.0,0.0,0.0,0.0,0.0,0.0,0.0,0.0,0.0,0.0,0.0,0.0,0.0,0.0,0.0,0.0,0.0,0.0,0.0,0.0,0.0,0.0,0.0,0.0,0.0,0.0,0.0,0.0,0.0,0.0,0.0,0.0,0.0,0.0,0.0,0.0,0.0,0.0,0.0,0.0,0.0,0.0,0.0,0.0,0.0,0.0,0.0,0.0,0.0,0.0,0.0,0.0,0.0,0.0,0.0,0.0,0.0,0.0,0.0,0.0,0.0,0.0,0.0,0.0,0.0,0.0,0.0,0.0,0.0,0.0,0.0,0.0,0.0,0.0,0.0,0.0,0.0,0.0,0.0,0.0,0.0,0.0,0.0,0.0,0.0,0.0,0.0,0.0,0.0,0.0,0.0,0.0,0.0,0.0,0.0,0.0,0.0,0.0,0.0,0.0,0.0,0.0,0.0,0.0,0.0,0.0,0.0,0.0,0.0,0.0,0.0,0.0,0.0,0.0,0.0,0.0,0.0,0.0,0.0,0.0,0.0,0.0,0.0,0.0,0.0,0.0,0.0,0.0,0.0,0.0,0.0,0.0,0.0,0.0,0.0,0.0,0.0,0.0,0.0,0.0,0.0,0.0,0.0,0.0,0.0,0.0,0.0,0.0,0.0,0.0,0.0,0.0,0.0,0.0,0.0,0.0,0.0,0.0,0.0,0.0,0.0,0.0,0.0,0.0,0.0,0.0,0.0,0.0,0.0,0.0,0.0,0.0,0.0,0.0,0.0,0.0,0.0,0.0,0.0,0.0,0.0,0.0,0.0,0.0,0.0,0.0,0.0,0.0,0.0,0.0,0.0,0.0,0.0,0.0,0.0,0.0,0.0,0.0,0.0,0.0,0.0,0.0,0.0,0.0,0.0,0.0,0.0,0.0,0.0,0.0,0.0,0.0,0.0,0.0,0.0,0.0,0.0,0.0,0.0,0.0,0.0,0.0,0.0,0.0,0.0,0.0,0.0,0.0,0.0,0.0,0.0,0.0,0.0,0.0,0.0,0.0,0.0,0.0,0.0,0.0,0.0,0.0,0.0,0.0,0.0,0.0,0.0,0.0,0.0,0.0,0.0,0.0,0.0,0.0,0.0,0.0,0.0,0.0,0.0,0.0,0.0,0.0,0.0,0.0,0.0,0.0,0.0,0.0,0.0,0.0,0.0,0.0,0.0,0.0,0.0,0.0,0.0,0.0,0.0,0.0,0.0,0.0,0.0,0.0,0.0,0.0,0.0,0.0,0.0,0.0,0.0,0.0,0.0,0.0,0.0,0.0,0.0,0.0,0.0,0.0,0.0,0.0,0.0,0.0,0.0,0.0,0.0,0.0,0.0,0.0,0.0,0.0,0.0,0.0,0.0,0.0,0.0,0.0,0.0,0.0,0.0,0.0,0.0,0.0,0.0,0.0,0.0,0.0,0.0,0.0,0.0,0.0,0.0,0.0,0.0,0.0,0.0,0.0,0.0,0.0,0.0,0.0,0.0,0.0,0.0,0.0,0.0,0.0,0.0,0.0,0.0,0.0,0.0,0.0,0.0,0.0,0.0,0.0,0.0,0.0,0.0,0.0,0.0,0.0,0.0,0.0,0.0,0.0,0.0,0.0,0.0,0.0,0.0,0.0,0.0,0.0,0.0,0.0,0.0,0.0,0.0,0.0,0.0,0.0,0.0,0.0,0.0,0.0,0.0,0.0,0.0,0.0,0.0,0.0,0.0,0.0,0.0,0.0,0.0,0.0,0.0,0.0,0.0,0.0,0.0,0.0,0.0,0.0,0.0,0.0,0.0,0.0,0.0,0.0,0.0,0.0,0.0,0.0,0.0,0.0,0.0,0.0,0.0,0.0,0.0,0.0,0.0,0.0,0.0,0.0,0.0,0.0,0.0,0.0,0.0,0.0,0.0,0.0,0.0,0.0,0.0,0.0,0.0,0.0,0.0,0.0,0.0,0.0,0.0,0.0,0.0,0.0,0.0,0.0,0.0,0.0,0.0,0.0,0.0,0.0,0.0,0.0,0.0,0.0,0.0,0.0,0.0,0.0,0.0,0.0,0.0,0.0,0.0,0.0,0.0,0.0,0.0,0.0,0.0,0.0,0.0,0.0,0.0,0.0,0.0,0.0,0.0,0.0,0.0,0.0,0.0,0.0,0.0,0.0,0.0,0.0,0.0,0.0,0.0,0.0,0.0,0.0,0.0,0.0,0.0,0.0,0.0,0.0,0.0,0.0,0.0,0.0,0.0,0.0,0.0,0.0,0.0,0.0,0.0,0.0,0.0,0.0,0.0,0.0,0.0,0.0,0.0,0.0,0.0,0.0,0.0,0.0,0.0,0.0,0.0,0.0,0.0,0.0,0.0,0.0,0.0,0.0,0.0,0.0,0.0,0.0,0.0,0.0,0.0,0.0,0.0,0.0,0.0,0.0,0.0,0.0,0.0,0.0,0.0,0.0,0.0,0.0,0.0,0.0,0.0,0.0,0.0,0.0,0.0,0.0,0.0,0.0,0.0,0.0,0.0,0.0,0.0,0.0,0.0,0.0,0.0,0.0,0.0,0.0,0.0,0.0,0.0,0.0,0.0,0.0,0.0,0.0,0.0,0.0,0.0,0.0,0.0,0.0,0.0,0.0,0.0,0.0,0.0,0.0,0.0,0.0,0.0,0.0,0.0,0.0,0.0,0.0,0.0,0.0,0.0,0.0,0.0,0.0,0.0,0.0,0.0,0.0,0.0,0.0,0.0,0.0,0.0,0.0,0.0,0.0,0.0,0.0,0.0,0.0,0.0,0.0,0.0,0.0,0.0,0.0,0.0,0.0,0.0,0.0,0.0,-1.283,0.0,0.0,0.0,0.0,0.0,0.0,0.0,0.0,0.0,0.0,0.0,0.0,0.0,0.0,0.0,0.0,0.0,0.0,0.0,0.0,0.0,0.0,0.0,0.0,0.0,0.0,0.0,0.0,0.0,0.0,0.0,0.0,0.0,0.0,0.0,0.0,0.0,0.0,0.0,0.0,0.0,0.0,0.0,0.0,0.0,0.0,0.0,0.0,0.0,0.0,0.0,0.0,0.0,0.0,0.0,0.0,0.0,0.0,0.0,0.0,0.0,0.0,0.0,0.0,0.0,0.0,0.0,0.0,0.0,0.0,0.0,0.0,0.0,0.0,0.0,0.0,0.0,0.0,0.0,0.0,0.0,0.0,0.0,0.0,0.0,0.0,0.0,0.0,0.0,0.0,0.0,0.0,0.0,0.0,0.0,0.0,0.0,0.0,0.0,0.0,0.0,0.0,0.0,0.0,0.0,0.0,0.0,0.0,0.0,0.0,-1.476,-1.4591,-1.4106,-1.3602,-1.302,0.0,0.0,0.0,0.0,0.0,0.0,0.0,0.0,0.0,0.0,0.0,0.0,0.0,0.0,0.0,0.0,0.0,0.0,0.0,0.0,0.0,0.0,0.0,0.0,0.0,0.0,0.0,0.0,0.0,0.0,0.0,0.0,0.0,0.0,0.0,0.0,0.0,0.0,0.0,0.0,0.0,0.0,0.0,0.0,0.0,0.0,0.0,0.0,0.0,0.0,0.0,0.0,0.0,0.0,0.0,0.0,0.0,0.0,0.0,0.0,0.0,0.0,0.0,0.0,0.0,0.0,0.0,0.0,0.0,0.0,0.0,0.0,0.0,0.0,0.0,0.0,0.0,0.0,0.0,0.0,0.0,0.0,0.0,0.0,0.0,0.0,0.0,0.0,0.0,0.0,0.0,0.0,0.0,0.0,0.0,0.0,0.0,0.0,0.0,0.0,0.0,0.0,0.0,0.0,0.0,0.0,0.0,0.0,0.0,0.0,0.0,0.0,-1.472,-1.4193,-1.3092,0.0,0.0,0.0,0.0,0.0,0.0,0.0,0.0,0.0,0.0,0.0,0.0,0.0,0.0,0.0,0.0,0.0,0.0,0.0,0.0,0.0,0.0,0.0,0.0,0.0,0.0,0.0,0.0,0.0,0.0,0.0,0.0,0.0,0.0,0.0,0.0,0.0,0.0,0.0,0.0,0.0,0.0,0.0,0.0,0.0,0.0,0.0,0.0,0.0,0.0,0.0,0.0,0.0,0.0,0.0,0.0,0.0,0.0,0.0,0.0,0.0,0.0,0.0,0.0,0.0,0.0,0.0,0.0,0.0,0.0,0.0,0.0,0.0,0.0,0.0,0.0,0.0,0.0,0.0,0.0,0.0,0.0,0.0,0.0,0.0,0.0,0.0,0.0,0.0,0.0,0.0,0.0,0.0,0.0,0.0,0.0,0.0,0.0,0.0,0.0,0.0,0.0,0.0,0.0,0.0,0.0,0.0,0.0,0.0,0.0,-1.5254,-1.5389,-1.5069,0.0,-1.3153,0.0,0.0,0.0,0.0,0.0,0.0,0.0,0.0,0.0,0.0,0.0,0.0,0.0,0.0,0.0,0.0,0.0,0.0,0.0,0.0,0.0,0.0,0.0,0.0,0.0,0.0,0.0,0.0,0.0,0.0,0.0,0.0,0.0,0.0,0.0,0.0,0.0,0.0,0.0,0.0,0.0,0.0,0.0,0.0,0.0,0.0,0.0,0.0,0.0,0.0,0.0,0.0,0.0,0.0,0.0,0.0,0.0,0.0,0.0,0.0,0.0,0.0,0.0,0.0,0.0,0.0,0.0,0.0,0.0,0.0,0.0,0.0,0.0,0.0,0.0,0.0,0.0,0.0,0.0,0.0,0.0,0.0,0.0,0.0,0.0,0.0,0.0,0.0,0.0,0.0,0.0,0.0,0.0,0.0,0.0,0.0,0.0,0.0,0.0,0.0,0.0,0.0,0.0,0.0,0.0,0.0,0.0,0.0,0.0,0.0,-1.5258,-1.5945,-1.5391,-1.4674,0.0,0.0,0.0,0.0,0.0,0.0,0.0,0.0,0.0,0.0,0.0,0.0,0.0,0.0,0.0,0.0,0.0,0.0,0.0,0.0,0.0,0.0,0.0,0.0,0.0,0.0,0.0,0.0,0.0,0.0,0.0,0.0,0.0,0.0,0.0,0.0,0.0,0.0,0.0,0.0,0.0,0.0,0.0,0.0,0.0,0.0,0.0,0.0,0.0,0.0,0.0,0.0,0.0,0.0,0.0,0.0,0.0,0.0,0.0,0.0,0.0,0.0,0.0,0.0,0.0,0.0,0.0,0.0,0.0,0.0,0.0,0.0,0.0,0.0,0.0,0.0,0.0,0.0,0.0,0.0,0.0,0.0,0.0,0.0,0.0,0.0,0.0,0.0,0.0,0.0,0.0,0.0,0.0,0.0,0.0,0.0,0.0,0.0,0.0,0.0,0.0,0.0,0.0,0.0,0.0,0.0,0.0,0.0,0.0,0.0,-1.4622,-1.5209,-1.605,-1.5352,-1.4686,-1.4209,0.0,0.0,0.0,0.0,0.0,0.0,0.0,0.0,0.0,0.0,0.0,0.0,0.0,0.0,0.0,0.0,0.0,0.0,0.0,0.0,0.0,0.0,0.0,0.0,0.0,0.0,0.0,0.0,0.0,0.0,0.0,0.0,0.0,0.0,0.0,0.0,0.0,0.0,0.0,0.0,0.0,0.0,0.0,0.0,0.0,0.0,0.0,0.0,0.0,0.0,0.0,0.0,0.0,0.0,0.0,0.0,0.0,0.0,0.0,0.0,0.0,0.0,0.0,0.0,0.0,0.0,0.0,0.0,0.0,0.0,0.0,0.0,0.0,0.0,0.0,0.0,0.0,0.0,0.0,0.0,0.0,0.0,0.0,0.0,0.0,0.0,0.0,0.0,0.0,0.0,0.0,0.0,0.0,0.0,0.0,0.0,0.0,0.0,0.0,0.0,0.0,0.0,0.0,0.0,0.0,0.0,0.0,0.0,-1.4499,-1.4763,-1.5193,-1.58,-1.4793,-1.4236,0.0,0.0,0.0,0.0,0.0,0.0,0.0,0.0,0.0,0.0,0.0,0.0,0.0,0.0,0.0,0.0,0.0,0.0,0.0,0.0,0.0,0.0,0.0,0.0,0.0,0.0,0.0,0.0,0.0,0.0,0.0,0.0,0.0,0.0,0.0,0.0,0.0,0.0,0.0,0.0,0.0,0.0,0.0,0.0,0.0,0.0,0.0,0.0,0.0,0.0,0.0,0.0,0.0,0.0,0.0,0.0,0.0,0.0,0.0,0.0,0.0,0.0,0.0,0.0,0.0,0.0,0.0,0.0,0.0,0.0,0.0,0.0,0.0,0.0,0.0,0.0,0.0,0.0,0.0,0.0,0.0,0.0,0.0,0.0,0.0,0.0,0.0,0.0,0.0,0.0,0.0,0.0,0.0,0.0,0.0,0.0,0.0,0.0,0.0,0.0,0.0,0.0,0.0,0.0,0.0,0.0,0.0,0.0,0.0,-1.4716,-1.5475,-1.5888,-1.5799,-1.5171,-1.4624,0.0,0.0,0.0,0.0,0.0,0.0,0.0,0.0,0.0,0.0,0.0,0.0,0.0,0.0,0.0,0.0,0.0,0.0,0.0,0.0,0.0,0.0,0.0,0.0,0.0,0.0,0.0,0.0,0.0,0.0,0.0,0.0,0.0,0.0,0.0,0.0,0.0,0.0,0.0,0.0,0.0,0.0,0.0,0.0,0.0,0.0,0.0,0.0,0.0,0.0,0.0,0.0,0.0,0.0,0.0,0.0,0.0,0.0,0.0,0.0,0.0,0.0,0.0,0.0,0.0,0.0,0.0,0.0,0.0,0.0,0.0,0.0,0.0,0.0,0.0,0.0,0.0,0.0,0.0,0.0,0.0,0.0,0.0,0.0,0.0,0.0,0.0,0.0,0.0,0.0,0.0,0.0,0.0,0.0,0.0,0.0,0.0,0.0,0.0,0.0,0.0,0.0,0.0,0.0,0.0,0.0,0.0,0.0,0.0,-1.4853,0.0,-1.5994,-1.5726,-1.5175,-1.4642,0.0,0.0,0.0,0.0,0.0,0.0,0.0,0.0,0.0,0.0,0.0,0.0,0.0,0.0,0.0,0.0,0.0,0.0,0.0,0.0,0.0,0.0,0.0,0.0,0.0,0.0,0.0,0.0,0.0,0.0,0.0,0.0,0.0,0.0,0.0,0.0,0.0,0.0,0.0,0.0,0.0,0.0,0.0,0.0,0.0,0.0,0.0,0.0,0.0,0.0,0.0,0.0,0.0,0.0,0.0,0.0,0.0,0.0,0.0,0.0,0.0,0.0,0.0,0.0,0.0,0.0,0.0,0.0,0.0,0.0,0.0,0.0,0.0,0.0,0.0,0.0,0.0,0.0,0.0,0.0,0.0,0.0,0.0,0.0,0.0,0.0,0.0,0.0,0.0,0.0,0.0,0.0,0.0,0.0,0.0,0.0,0.0,0.0,0.0,0.0,0.0,0.0,0.0,0.0,0.0,0.0,0.0,0.0,-1.4775,-1.4916,-1.5268,-1.5536,-1.558,-1.4688,-1.4163,0.0,0.0,0.0,0.0,0.0,0.0,0.0,0.0,0.0,0.0,0.0,0.0,0.0,0.0,0.0,0.0,0.0,0.0,0.0,0.0,0.0,0.0,0.0,0.0,0.0,0.0,0.0,0.0,0.0,0.0,0.0,0.0,0.0,0.0,0.0,0.0,0.0,0.0,0.0,0.0,0.0,0.0,0.0,0.0,0.0,0.0,0.0,0.0,0.0,0.0,0.0,0.0,0.0,0.0,0.0,0.0,0.0,0.0,0.0,0.0,0.0,0.0,0.0,0.0,0.0,0.0,0.0,0.0,0.0,0.0,0.0,0.0,0.0,0.0,0.0,0.0,0.0,0.0,0.0,0.0,0.0,0.0,0.0,0.0,0.0,0.0,0.0,0.0,0.0,0.0,0.0,0.0,0.0,0.0,0.0,0.0,0.0,0.0,0.0,0.0,0.0,0.0,0.0,0.0,0.0,0.0,0.0,0.0,0.0,-1.5522,-1.5762,-1.5967,-1.6049,-1.5114,-1.4639,0.0,0.0,0.0,0.0,0.0,0.0,0.0,0.0,0.0,0.0,0.0,0.0,0.0,0.0,0.0,0.0,0.0,0.0,0.0,0.0,0.0,0.0,0.0,0.0,0.0,0.0,0.0,0.0,0.0,0.0,0.0,0.0,0.0,0.0,0.0,0.0,0.0,0.0,0.0,0.0,0.0,0.0,0.0,0.0,0.0,0.0,0.0,0.0,0.0,0.0,0.0,0.0,0.0,0.0,0.0,0.0,0.0,0.0,0.0,0.0,0.0,0.0,0.0,0.0,0.0,0.0,0.0,0.0,0.0,0.0,0.0,0.0,0.0,0.0,0.0,0.0,0.0,0.0,0.0,0.0,0.0,0.0,0.0,0.0,0.0,0.0,0.0,0.0,0.0,0.0,0.0,0.0,0.0,0.0,0.0,0.0,0.0,0.0,0.0,0.0,0.0,0.0,0.0,0.0,0.0,0.0,0.0,0.0,0.0,-1.6448,-1.6419,-1.6358,-1.6242,-1.5477,-1.4993,-1.4875,0.0,0.0,0.0,0.0,0.0,0.0,0.0,0.0,0.0,0.0,0.0,0.0,0.0,0.0,0.0,0.0,0.0,0.0,0.0,0.0,0.0,0.0,0.0,0.0,0.0,0.0,0.0,0.0,0.0,0.0,0.0,0.0,0.0,0.0,0.0,0.0,0.0,0.0,0.0,0.0,0.0,0.0,0.0,0.0,0.0,0.0,0.0,0.0,0.0,0.0,0.0,0.0,0.0,0.0,0.0,0.0,0.0,0.0,0.0,0.0,0.0,0.0,0.0,0.0,0.0,0.0,0.0,0.0,0.0,0.0,0.0,0.0,0.0,0.0,0.0,0.0,0.0,0.0,0.0,0.0,0.0,0.0,0.0,0.0,0.0,0.0,0.0,0.0,0.0,0.0,0.0,0.0,0.0,0.0,0.0,0.0,0.0,0.0,0.0,0.0,0.0,0.0,0.0,0.0,0.0,0.0,0.0,0.0,-1.7609,-1.7203,-1.6772,-1.6239,-1.5767,-1.5285,0.0,0.0,0.0,0.0,0.0,0.0,0.0,0.0,0.0,0.0,0.0,0.0,0.0,0.0,0.0,0.0,0.0,0.0,0.0,0.0,0.0,0.0,0.0,0.0,0.0,0.0,0.0,0.0,0.0,0.0,0.0,0.0,0.0,0.0,0.0,0.0,0.0,0.0,0.0,0.0,0.0,0.0,0.0,0.0,0.0,0.0,0.0,0.0,0.0,0.0,0.0,0.0,0.0,0.0,0.0,0.0,0.0,0.0,0.0,0.0,0.0,0.0,0.0,0.0,0.0,0.0,0.0,0.0,0.0,0.0,0.0,0.0,0.0,0.0,0.0,0.0,0.0,0.0,0.0,0.0,0.0,0.0,0.0,0.0,0.0,0.0,0.0,0.0,0.0,0.0,0.0,0.0,0.0,0.0,0.0,0.0,0.0,0.0,0.0,0.0,0.0,0.0,0.0,0.0,0.0,0.0,0.0,0.0,0.0,-1.7786,-1.8095,-1.7921,-1.7299,-1.6428,-1.5908,0.0,0.0,0.0,0.0,0.0,0.0,0.0,0.0,0.0,0.0,0.0,0.0,0.0,0.0,0.0,0.0,0.0,0.0,0.0,0.0,0.0,0.0,0.0,0.0,0.0,0.0,0.0,0.0,0.0,0.0,0.0,0.0,0.0,0.0,0.0,0.0,0.0,0.0,0.0,0.0,0.0,0.0,0.0,0.0,0.0,0.0,0.0,0.0,0.0,0.0,0.0,0.0,0.0,0.0,0.0,0.0,0.0,0.0,0.0,0.0,0.0,0.0,0.0,0.0,0.0,0.0,0.0,0.0,0.0,0.0,0.0,0.0,0.0,0.0,0.0,0.0,0.0,0.0,0.0,0.0,0.0,0.0,0.0,0.0,0.0,0.0,0.0,0.0,0.0,0.0,0.0,0.0,0.0,0.0,0.0,0.0,0.0,0.0,0.0,0.0,0.0,0.0,0.0,0.0,0.0,0.0,0.0,0.0,-1.8045,-1.8679,-1.9012,-1.8968,-1.8503,-1.7166,-1.6338,0.0,0.0,0.0,0.0,0.0,0.0,0.0,0.0,0.0,0.0,0.0,0.0,0.0,0.0,0.0,0.0,0.0,0.0,0.0,0.0,0.0,0.0,0.0,0.0,0.0,0.0,0.0,0.0,0.0,0.0,0.0,0.0,0.0,0.0,0.0,0.0,0.0,0.0,0.0,0.0,0.0,0.0,0.0,0.0,0.0,0.0,0.0,0.0,0.0,0.0,0.0,0.0,0.0,0.0,0.0,0.0,0.0,0.0,0.0,0.0,0.0,0.0,0.0,0.0,0.0,0.0,0.0,0.0,0.0,0.0,0.0,0.0,0.0,0.0,0.0,0.0,0.0,0.0,0.0,0.0,0.0,0.0,0.0,0.0,0.0,0.0,0.0,0.0,0.0,0.0,0.0,0.0,0.0,0.0,0.0,0.0,0.0,0.0,0.0,0.0,0.0,0.0,0.0,0.0,0.0,0.0,0.0,0.0,-1.9286,-1.9801,-1.9953,-1.9893,-1.9612,-1.7929,-1.6693,0.0,0.0,0.0,0.0,0.0,0.0,0.0,0.0,0.0,0.0,0.0,0.0,0.0,0.0,0.0,0.0,0.0,0.0,0.0,0.0,0.0,0.0,0.0,0.0,0.0,0.0,0.0,0.0,0.0,0.0,0.0,0.0,0.0,0.0,0.0,0.0,0.0,0.0,0.0,0.0,0.0,0.0,0.0,0.0,0.0,0.0,0.0,0.0,0.0,0.0,0.0,0.0,0.0,0.0,0.0,0.0,0.0,0.0,0.0,0.0,0.0,0.0,0.0,0.0,0.0,0.0,0.0,0.0,0.0,0.0,0.0,0.0,0.0,0.0,0.0,0.0,0.0,0.0,0.0,0.0,0.0,0.0,0.0,0.0,0.0,0.0,0.0,0.0,0.0,0.0,0.0,0.0,0.0,0.0,0.0,0.0,0.0,0.0,0.0,0.0,0.0,0.0,0.0,0.0,0.0,0.0,0.0,0.0,-1.9344,-2.0014,-2.0466,-2.0405,-1.9846,-1.8346,-1.7228,0.0,0.0,0.0,0.0,0.0,0.0,0.0,0.0,0.0,0.0,0.0,0.0,0.0,0.0,0.0,0.0,0.0,0.0,0.0,0.0,0.0,0.0,0.0,0.0,0.0,0.0,0.0,0.0,0.0,0.0,0.0,0.0,0.0,0.0,0.0,0.0,0.0,0.0,0.0,0.0,0.0,0.0,0.0,0.0,0.0,0.0,0.0,0.0,-1.1799,0.0,0.0,0.0,0.0,0.0,0.0,0.0,0.0,0.0,0.0,0.0,0.0,0.0,0.0,0.0,0.0,0.0,0.0,0.0,0.0,0.0,0.0,0.0,0.0,0.0,0.0,0.0,0.0,0.0,0.0,0.0,0.0,0.0,0.0,0.0,0.0,0.0,0.0,0.0,0.0,0.0,0.0,0.0,0.0,0.0,0.0,0.0,0.0,0.0,0.0,0.0,0.0,0.0,0.0,0.0,0.0,0.0,0.0,0.0,-2.028,-2.0973,-2.1265,-2.1093,-2.0367,-1.9319,-1.8242,0.0,0.0,0.0,0.0,0.0,0.0,0.0,0.0,0.0,0.0,0.0,0.0,0.0,0.0,0.0,0.0,0.0,0.0,0.0,0.0,0.0,0.0,0.0,0.0,0.0,0.0,0.0,0.0,0.0,0.0,0.0,0.0,0.0,0.0,0.0,0.0,0.0,0.0,0.0,0.0,0.0,0.0,0.0,0.0,0.0,0.0,0.0,0.0,0.0,0.0,0.0,0.0,0.0,0.0,0.0,0.0,0.0,0.0,0.0,0.0,0.0,0.0,0.0,0.0,0.0,0.0,0.0,0.0,0.0,0.0,0.0,0.0,0.0,0.0,0.0,0.0,0.0,0.0,0.0,0.0,0.0,0.0,0.0,0.0,0.0,0.0,0.0,0.0,0.0,0.0,0.0,0.0,0.0,0.0,0.0,0.0,0.0,0.0,0.0,0.0,0.0,0.0,0.0,0.0,0.0,0.0,0.0,-2.0451,-2.1423,-2.196,-2.2091,-2.1743,-2.0957,-2.0353,-1.9319,-1.7774,0.0,0.0,0.0,0.0,0.0,0.0,0.0,0.0,0.0,0.0,0.0,0.0,0.0,0.0,0.0,0.0,0.0,0.0,0.0,0.0,0.0,0.0,0.0,0.0,0.0,0.0,0.0,0.0,0.0,0.0,0.0,0.0,0.0,0.0,0.0,0.0,0.0,0.0,-1.1882,-1.3203,0.0,0.0,0.0,0.0,0.0,0.0,0.0,0.0,-1.2712,0.0,0.0,0.0,0.0,0.0,0.0,0.0,0.0,0.0,0.0,0.0,0.0,0.0,0.0,0.0,0.0,0.0,0.0,0.0,0.0,0.0,0.0,0.0,0.0,0.0,0.0,0.0,0.0,0.0,0.0,0.0,0.0,0.0,0.0,0.0,0.0,0.0,0.0,0.0,0.0,0.0,0.0,0.0,0.0,0.0,0.0,0.0,0.0,0.0,0.0,0.0,0.0,0.0,0.0,0.0,0.0,-1.9101,-2.0901,-2.1873,-2.2004,-2.249,-2.2185,-2.104,-2.0827,-1.9838,-1.7974,0.0,0.0,0.0,0.0,0.0,0.0,0.0,0.0,0.0,0.0,0.0,0.0,0.0,0.0,0.0,0.0,0.0,0.0,0.0,0.0,0.0,0.0,0.0,0.0,0.0,0.0,0.0,0.0,0.0,0.0,0.0,0.0,0.0,0.0,0.0,0.0,0.0,0.0,0.0,-1.4013,-1.4752,0.0,0.0,0.0,0.0,0.0,0.0,0.0,0.0,-1.3031,0.0,0.0,0.0,0.0,0.0,0.0,0.0,0.0,0.0,0.0,0.0,0.0,0.0,0.0,0.0,0.0,0.0,0.0,0.0,0.0,0.0,0.0,0.0,0.0,0.0,0.0,0.0,0.0,0.0,0.0,0.0,0.0,0.0,0.0,0.0,0.0,0.0,0.0,0.0,0.0,0.0,0.0,0.0,0.0,0.0,0.0,0.0,0.0,0.0,0.0,0.0,0.0,0.0,0.0,0.0,-2.0172,-2.1482,-2.2308,-2.2666,-2.2885,-2.2389,-2.1149,-2.0692,-1.9647,0.0,0.0,0.0,0.0,0.0,0.0,0.0,0.0,0.0,0.0,0.0,0.0,0.0,0.0,0.0,0.0,0.0,0.0,0.0,0.0,0.0,0.0,0.0,0.0,0.0,0.0,0.0,0.0,0.0,0.0,0.0,0.0,0.0,0.0,0.0,0.0,0.0,0.0,0.0,0.0,-1.4664,-1.5056,-1.4805,0.0,0.0,0.0,0.0,0.0,0.0,-1.3725,-1.383,0.0,0.0,0.0,0.0,0.0,0.0,0.0,0.0,0.0,0.0,0.0,0.0,0.0,0.0,0.0,0.0,0.0,0.0,0.0,0.0,0.0,0.0,0.0,0.0,0.0,0.0,0.0,0.0,0.0,0.0,0.0,0.0,0.0,0.0,0.0,0.0,0.0,0.0,0.0,0.0,0.0,0.0,0.0,0.0,0.0,0.0,0.0,0.0,0.0,0.0,0.0,0.0,0.0,0.0,0.0,-2.1199,-2.2069,-2.2766,-2.3268,-2.3171,-2.2476,-2.1246,-2.0584,-1.9474,0.0,0.0,0.0,0.0,0.0,0.0,0.0,0.0,0.0,0.0,0.0,0.0,0.0,0.0,0.0,0.0,0.0,0.0,0.0,0.0,0.0,0.0,0.0,0.0,0.0,0.0,0.0,0.0,0.0,0.0,0.0,0.0,0.0,0.0,0.0,0.0,0.0,0.0,0.0,0.0,0.0,-1.5441,-1.5514,-1.5203,0.0,0.0,0.0,0.0,-1.3912,-1.4381,0.0,0.0,0.0,0.0,0.0,0.0,0.0,0.0,0.0,0.0,0.0,0.0,0.0,0.0,0.0,0.0,0.0,0.0,0.0,0.0,0.0,0.0,0.0,0.0,0.0,0.0,0.0,0.0,0.0,0.0,0.0,0.0,0.0,0.0,0.0,0.0,0.0,0.0,0.0,0.0,0.0,0.0,0.0,0.0,0.0,0.0,0.0,0.0,0.0,0.0,0.0,0.0,0.0,0.0,0.0,0.0,-2.1353,-2.2574,-2.3223,-2.3282,-2.3157,-2.2491,-2.1231,-2.1006,-1.973,0.0,0.0,0.0,0.0,0.0,0.0,0.0,0.0,0.0,0.0,0.0,0.0,0.0,0.0,0.0,0.0,0.0,0.0,0.0,0.0,0.0,0.0,0.0,0.0,0.0,0.0,0.0,0.0,0.0,0.0,0.0,0.0,0.0,0.0,0.0,0.0,0.0,0.0,0.0,0.0,0.0,-1.6194,-1.6259,-1.6288,-1.6257,0.0,0.0,-1.5548,-1.5748,-1.5532,0.0,0.0,0.0,0.0,0.0,0.0,0.0,0.0,0.0,0.0,0.0,0.0,0.0,0.0,0.0,0.0,0.0,0.0,0.0,0.0,0.0,0.0,0.0,0.0,0.0,0.0,0.0,0.0,0.0,0.0,0.0,0.0,0.0,0.0,0.0,0.0,0.0,0.0,0.0,0.0,0.0,0.0,0.0,0.0,0.0,0.0,0.0,0.0,0.0,0.0,0.0,0.0,0.0,0.0,0.0,-2.0119,-2.144,-2.2797,-2.3465,-2.348,-2.3378,-2.2692,-2.1409,-2.085,-1.9488,0.0,0.0,0.0,0.0,0.0,0.0,0.0,0.0,0.0,0.0,0.0,0.0,0.0,0.0,0.0,0.0,0.0,0.0,0.0,0.0,0.0,0.0,0.0,0.0,0.0,0.0,0.0,0.0,0.0,0.0,0.0,0.0,0.0,0.0,0.0,0.0,0.0,0.0,0.0,0.0,0.0,0.0,-1.6931,-1.7086,0.0,0.0,0.0,-1.6754,-1.6548,0.0,0.0,0.0,0.0,0.0,0.0,0.0,0.0,0.0,0.0,0.0,0.0,0.0,0.0,0.0,0.0,0.0,0.0,0.0,0.0,0.0,0.0,0.0,0.0,0.0,0.0,0.0,0.0,0.0,0.0,0.0,0.0,0.0,0.0,0.0,0.0,0.0,0.0,0.0,0.0,0.0,0.0,0.0,0.0,0.0,0.0,0.0,0.0,0.0,0.0,0.0,0.0,0.0,0.0,0.0,0.0,0.0,-2.1465,-2.2846,-2.3566,-2.3551,-2.3531,-2.2848,-2.153,-2.0813,0.0,0.0,0.0,0.0,0.0,0.0,0.0,0.0,0.0,0.0,0.0,0.0,0.0,0.0,0.0,0.0,0.0,0.0,0.0,0.0,0.0,0.0,0.0,0.0,0.0,0.0,0.0,-0.8576,0.0,0.0,0.0,0.0,0.0,0.0,0.0,0.0,0.0,0.0,0.0,0.0,0.0,0.0,-1.7012,-1.7665,-1.772,-1.7578,0.0,0.0,-1.7572,-1.7153,-1.7127,-1.6932,0.0,0.0,0.0,0.0,0.0,0.0,0.0,0.0,0.0,0.0,0.0,0.0,0.0,0.0,0.0,0.0,0.0,0.0,0.0,0.0,0.0,0.0,0.0,0.0,0.0,0.0,0.0,0.0,0.0,0.0,0.0,0.0,0.0,0.0,0.0,0.0,0.0,0.0,0.0,0.0,0.0,0.0,0.0,0.0,0.0,0.0,0.0,0.0,0.0,0.0,0.0,0.0,0.0,0.0,-2.0076,-2.1409,-2.2791,-2.3509,-2.3509,-2.3509,-2.2863,-2.1544,-2.1245,-1.9943,0.0,0.0,0.0,0.0,0.0,0.0,0.0,0.0,0.0,0.0,0.0,0.0,0.0,0.0,0.0,0.0,0.0,0.0,0.0,0.0,0.0,0.0,0.0,0.0,0.0,0.0,0.0,0.0,0.0,0.0,0.0,0.0,0.0,0.0,0.0,0.0,0.0,0.0,0.0,0.0,0.0,-1.7824,-1.8589,-1.8134,-1.793,0.0,-1.8124,-1.7754,-1.7921,-1.7418,-1.6831,-1.6282,0.0,0.0,0.0,0.0,0.0,0.0,0.0,0.0,0.0,0.0,0.0,0.0,0.0,0.0,0.0,0.0,0.0,0.0,0.0,0.0,0.0,0.0,0.0,0.0,0.0,0.0,0.0,0.0,-1.798,0.0,0.0,0.0,0.0,0.0,0.0,0.0,0.0,0.0,0.0,0.0,0.0,0.0,0.0,0.0,0.0,0.0,0.0,0.0,0.0,0.0,0.0,0.0,0.0,-1.9851,-2.1266,-2.2497,-2.3231,-2.3363,-2.3494,-2.2918,-2.1665,-2.148,-2.0178,0.0,0.0,0.0,0.0,0.0,0.0,0.0,0.0,0.0,0.0,0.0,0.0,0.0,0.0,0.0,0.0,0.0,0.0,0.0,0.0,0.0,0.0,0.0,0.0,0.0,0.0,0.0,0.0,-1.0801,-1.1434,-1.2872,0.0,0.0,0.0,0.0,0.0,0.0,0.0,0.0,0.0,0.0,-1.8688,-1.9318,-1.9194,0.0,0.0,-1.8908,-1.8511,-1.8483,-1.7691,-1.6961,-1.6668,-1.5762,0.0,0.0,0.0,0.0,0.0,0.0,0.0,0.0,0.0,0.0,0.0,0.0,0.0,0.0,0.0,0.0,0.0,0.0,0.0,0.0,0.0,0.0,0.0,0.0,0.0,0.0,0.0,-1.8553,0.0,0.0,0.0,0.0,0.0,0.0,0.0,0.0,0.0,0.0,0.0,0.0,0.0,0.0,0.0,0.0,0.0,0.0,0.0,0.0,0.0,0.0,0.0,0.0,-1.9569,-2.0913,-2.2163,-2.2904,-2.3127,-2.3392,-2.298,-2.1938,-2.1584,-2.0351,0.0,0.0,0.0,0.0,0.0,0.0,0.0,0.0,0.0,0.0,0.0,0.0,0.0,0.0,0.0,0.0,0.0,0.0,0.0,0.0,0.0,0.0,0.0,0.0,0.0,0.0,0.0,0.0,-1.1807,-1.2634,-1.3826,0.0,0.0,0.0,0.0,0.0,0.0,0.0,0.0,0.0,0.0,-1.9391,-2.0002,-2.0114,-2.0134,-2.0148,-1.9636,-1.9267,-1.92,-1.8014,-1.7064,-1.6978,0.0,0.0,0.0,0.0,0.0,0.0,0.0,0.0,0.0,0.0,0.0,0.0,0.0,0.0,0.0,0.0,0.0,0.0,0.0,0.0,0.0,0.0,0.0,0.0,0.0,0.0,0.0,-1.9372,0.0,0.0,-1.9406,0.0,0.0,0.0,0.0,0.0,0.0,0.0,0.0,0.0,0.0,0.0,0.0,0.0,0.0,0.0,0.0,0.0,0.0,0.0,0.0,0.0,0.0,-1.9239,-2.0323,-2.1758,-2.2558,-2.2717,-2.3083,-2.2966,-2.2266,-2.1586,-2.0518,-1.9014,0.0,0.0,0.0,0.0,0.0,0.0,0.0,0.0,0.0,0.0,0.0,0.0,0.0,0.0,0.0,0.0,0.0,0.0,0.0,0.0,0.0,0.0,0.0,0.0,0.0,0.0,-1.3126,-1.3154,-1.3412,0.0,0.0,0.0,0.0,0.0,0.0,0.0,0.0,0.0,-1.8574,-1.9217,-1.9874,-2.0659,-2.0718,-2.0753,-2.0932,-2.0356,-1.9931,-2.0039,-1.8393,-1.7098,0.0,0.0,0.0,0.0,0.0,0.0,0.0,0.0,0.0,0.0,0.0,0.0,0.0,0.0,0.0,0.0,0.0,0.0,0.0,0.0,0.0,0.0,0.0,0.0,0.0,0.0,0.0,-2.2593,-2.2301,0.0,0.0,0.0,0.0,0.0,0.0,0.0,0.0,0.0,0.0,0.0,-2.2032,-2.1485,0.0,0.0,0.0,0.0,0.0,0.0,0.0,0.0,0.0,0.0,0.0,0.0,-1.8659,-1.9948,-2.1172,-2.1874,-2.2086,-2.2351,-2.2204,-2.1582,-2.0941,-1.9376,-1.6782,0.0,0.0,0.0,0.0,0.0,0.0,0.0,0.0,0.0,0.0,0.0,0.0,0.0,0.0,0.0,0.0,0.0,0.0,0.0,0.0,0.0,0.0,0.0,0.0,0.0,-1.4059,0.0,0.0,0.0,0.0,0.0,0.0,0.0,0.0,0.0,0.0,-1.7251,-1.8179,-1.8808,-1.9774,-2.0564,-2.1008,-2.1203,-2.1377,0.0,0.0,0.0,0.0,0.0,0.0,0.0,0.0,0.0,0.0,0.0,0.0,0.0,0.0,-1.6857,-1.68,-1.6581,-1.6239,-1.5706,0.0,0.0,0.0,0.0,0.0,0.0,0.0,0.0,0.0,0.0,0.0,0.0,0.0,0.0,-2.414,-2.4026,-2.2826,0.0,0.0,0.0,0.0,0.0,0.0,0.0,0.0,-2.3133,-2.319,-2.2798,-2.2218,-2.1707,-2.1277,-2.0735,-1.9782,0.0,0.0,0.0,0.0,0.0,0.0,0.0,0.0,-1.8623,-1.9922,-2.085,-2.1447,-2.165,-2.1874,-2.1797,-2.142,-2.0598,-1.8947,-1.6417,-1.568,-1.5085,0.0,0.0,0.0,0.0,0.0,0.0,0.0,0.0,0.0,0.0,0.0,0.0,0.0,0.0,0.0,0.0,0.0,0.0,0.0,0.0,0.0,0.0,0.0,-1.4637,0.0,0.0,0.0,0.0,0.0,0.0,0.0,0.0,0.0,-1.7158,-1.7972,-1.8857,-1.9453,-2.0192,-2.0882,-2.1347,0.0,0.0,0.0,0.0,0.0,0.0,0.0,-1.8045,-1.8232,-1.767,-1.7383,-1.7996,-1.7885,-1.7867,-1.8273,0.0,0.0,-1.8034,-1.7785,-1.7442,-1.693,-1.6764,-1.6695,-1.6814,-1.6941,-1.7155,0.0,0.0,0.0,0.0,-2.491,0.0,0.0,0.0,-2.4731,-2.4718,0.0,-2.3442,0.0,0.0,0.0,0.0,-2.1793,-2.2059,0.0,0.0,-2.3407,-2.3237,-2.3197,-2.2675,-2.2413,-2.2375,-2.1812,-2.125,-2.0645,-1.9022,-1.8145,0.0,0.0,0.0,0.0,0.0,-1.9066,-2.015,-2.0836,-2.1229,-2.1375,-2.1626,-2.1732,-2.1663,-2.0443,-1.9164,-1.7915,-1.6825,-1.6076,-1.5622,-1.4571,0.0,0.0,0.0,0.0,0.0,0.0,0.0,0.0,0.0,0.0,0.0,0.0,0.0,0.0,0.0,0.0,0.0,0.0,0.0,0.0,-1.5123,0.0,0.0,0.0,0.0,0.0,0.0,0.0,0.0,0.0,-1.7821,-1.8051,-1.8954,-1.98,-2.0377,0.0,0.0,0.0,0.0,-2.2278,-2.2532,-2.2227,-2.1721,-2.1098,-1.9923,-1.8927,-1.8404,0.0,0.0,-1.983,-1.9464,-1.9097,-1.9031,-1.9016,-1.9101,-1.9076,-1.8509,-1.8061,-1.8,-1.7533,-1.734,-1.7852,-1.7989,-1.8054,-2.9232,0.0,0.0,0.0,0.0,-2.6891,-2.6677,-2.6405,-2.6405,-2.6362,-2.6322,-2.5136,0.0,0.0,0.0,0.0,0.0,0.0,-2.3365,-2.3531,-2.3741,-2.3835,-2.3838,-2.3263,-2.2975,-2.2949,-2.2414,-2.2074,-2.1865,-2.0598,-1.933,-1.811,0.0,0.0,0.0,0.0,-1.9156,-1.9906,-2.0533,-2.0873,-2.0885,-2.0972,-2.0822,-2.0385,-1.9582,-1.8592,-1.7432,-1.6836,-1.6337,-1.5895,-1.4861,0.0,0.0,0.0,0.0,0.0,0.0,0.0,0.0,0.0,0.0,0.0,0.0,0.0,0.0,0.0,0.0,0.0,0.0,0.0,-1.5559,-1.5608,-1.5528,0.0,0.0,0.0,0.0,0.0,0.0,0.0,0.0,0.0,-1.9421,-1.9598,-1.9806,0.0,0.0,-2.0786,-2.1191,-2.1458,-2.1736,-2.1996,-2.1687,0.0,-2.1441,-2.0421,-1.9787,-2.0269,-2.0563,-2.0637,-2.0333,-2.0128,-1.983,-1.9345,-1.9213,-1.9232,-1.9217,-1.8993,-1.8784,-1.8728,-1.8584,-1.853,-1.8667,-1.8747,-1.8788,-3.1189,-3.0015,-2.9047,-2.851,-2.821,-2.8136,-2.7876,-2.7638,-2.788,-2.784,-2.7543,-2.6583,-2.5722,-2.4886,-2.373,0.0,0.0,0.0,-2.431,-2.4386,-2.4652,-2.4792,-2.4766,-2.4396,-2.4227,-2.4174,-2.3446,-2.3067,-2.3067,-2.193,-2.0844,-1.9786,0.0,-1.8179,-1.878,-1.9329,-1.9773,-2.0152,-2.0726,-2.0909,-2.0687,-2.0699,-2.053,-2.0164,-1.9342,-1.8571,-1.7891,-1.7028,-1.6471,-1.6281,-1.5455,-1.4842,0.0,0.0,0.0,0.0,0.0,0.0,0.0,0.0,0.0,0.0,0.0,-1.1406,-1.1259,0.0,0.0,0.0,-1.4937,-1.5528,-1.5884,-1.6317,0.0,0.0,0.0,0.0,0.0,0.0,0.0,-1.8407,-1.9354,-2.0046,-2.0259,-2.0225,-2.0164,-2.0139,-2.0465,-2.0749,-2.0936,0.0,-2.1399,-2.1602,-2.1536,-2.1424,-2.1366,-2.0855,-2.0675,-2.1393,-2.1322,-2.1243,-2.109,-2.0826,-2.0484,-2.0109,-2.0026,-2.005,-2.0064,-1.9821,-1.9505,-1.9226,-1.9191,-1.9191,-1.913,-1.9168,-1.9157,-3.2935,-3.1555,-3.0058,-2.9067,-2.8573,-2.8953,-2.8862,-2.8525,-2.9061,-2.9009,-2.8446,-2.785,-2.6929,-2.5793,-2.4723,0.0,-2.5057,-2.507,-2.5345,-2.578,-2.578,-2.578,-2.578,-2.5767,-2.578,-2.5767,-2.4723,-2.42,-2.4112,-2.3068,-2.2519,-2.2426,-2.027,-1.946,-2.0009,-2.0543,-2.0843,-2.0843,-2.1263,-2.1224,-2.0725,-2.0699,-2.0699,-2.0686,-1.9588,-1.895,-1.8845,-1.7447,-1.6652,-1.6723,-1.6227,-1.5474,-1.4528,0.0,0.0,0.0,0.0,0.0,0.0,0.0,0.0,0.0,0.0,0.0,0.0,0.0,0.0,0.0,-1.5283,0.0,-1.6303,-1.7256,0.0,0.0,0.0,-1.7295,-1.7908,-1.8024,-1.8497,-1.9682,0.0,0.0,-2.0687,-2.0817,-2.0818,-2.0766,-2.0738,-2.0737,-2.0876,-2.1035,-2.1204,-2.1326,-2.1544,-2.1529,-2.1116,-2.1215,-2.1486,-2.1859,-2.149,-2.1346,-2.1708,-2.146,-2.1083,-2.0895,-2.1105,-2.1178,-2.1193,-2.0794,-2.0287,-1.9634,-1.9439,-1.9376,-1.9302,-1.9284,-1.9232,-3.303,-3.2405,-3.2033,-3.0987,-2.9611,-2.9475,-2.9276,-2.9114,-2.9244,-2.9231,-2.9026,-2.8438,-2.7549,-2.6438,-2.5733,-2.5454,-2.5628,-2.5615,-2.5694,-2.578,-2.578,-2.578,-2.578,-2.578,-2.578,-2.5767,-2.5519,-2.5197,-2.4783,-2.4047,-2.3472,-2.296,-2.2048,-2.1655,-2.1786,-2.193,-2.2009,-2.1996,-2.1655,-2.1237,-2.0725,-2.0699,-2.0699,-2.0699,-1.998,-1.9381,-1.8911,-1.8135,-1.7523,-1.7085,-1.6566,-1.6165,-1.5894,-1.5011,0.0,0.0,0.0,0.0,0.0,0.0,0.0,0.0,0.0,-1.3159,-1.2851,0.0,-1.5158,0.0,-1.6271,-1.7258,-1.8152,-1.849,0.0,0.0,-1.8438,-1.849,-1.8643,-1.9073,-1.9452,-1.9773,-2.057,-2.1159,-2.1302,-2.1707,-2.1825,-2.1368,-2.0962,-2.0712,-2.0762,-2.0787,-2.0823,-2.0873,-2.0947,-2.0968,-2.104,-2.1397,-2.1792,-2.2047,-2.1951,-2.1744,-2.1447,-2.1446,-2.1327,-2.0973,-2.1038,-2.1216,-2.1429,-2.1312,-2.104,-2.0489,-1.9875,-1.9376,-1.9321,-1.9302,-1.9265,-3.3861,-3.3251,-3.3264,-3.2448,-3.1196,-3.07,-3.0485,-3.0398,-3.015,-2.9902,-2.9627,-2.9039,-2.8472,-2.7857,-2.7497,-2.7353,-2.7353,-2.7092,-2.6961,-2.6948,-2.67,-2.655,-2.655,-2.655,-2.655,-2.6537,-2.6321,-2.6046,-2.5725,-2.4926,-2.4334,-2.3995,-2.3433,-2.3145,-2.3158,-2.2897,-2.265,-2.2388,-2.1799,-2.1237,-2.0725,-2.0699,-2.0699,-2.0673,-1.9863,-1.9251,-1.8911,-1.8127,-1.7552,-1.7212,-1.6911,-1.665,-1.6402,-1.5761,-1.4768,0.0,0.0,0.0,0.0,0.0,0.0,0.0,0.0,0.0,0.0,0.0,-1.6876,-1.7092,-1.762,-1.8336,-1.9224,-1.9549,-1.9786,-2.0035,-2.0061,-2.0178,-2.0438,-2.0766,-2.0975,-2.0975,-2.1498,-2.189,-2.193,-2.2191,-2.2283,-2.193,-2.142,-2.0962,-2.0726,-2.0699,-2.0699,-2.0699,-2.0699,-2.0799,-2.1033,-2.1385,-2.1712,-2.1921,-2.1969,-2.1843,-2.1514,-2.1633,-2.171,-2.1547,-2.1708,-2.1938,-2.215,-2.199,-2.1682,-2.1094,-2.0389,-1.98,-1.9505,-1.9446,-1.9395,-3.4914,-3.4057,-3.4004,-3.3593,-3.2868,-3.2267,-3.1941,-3.1771,-3.1313,-3.0777,-3.0179,-2.964,-2.9379,-2.9379,-2.9349,-2.931,-2.9235,-2.876,-2.8486,-2.8394,-2.7876,-2.7568,-2.7503,-2.7503,-2.7503,-2.7477,-2.7027,-2.6752,-2.6634,-2.5558,-2.501,-2.4918,-2.4298,-2.4024,-2.4041,-2.3504,-2.3026,-2.2506,-2.1917,-2.1355,-2.0805,-2.0751,-2.0673,-2.0568,-1.9575,-1.895,-1.878,-1.7839,-1.7316,-1.7337,-1.7238,-1.7016,-1.6624,-1.65,-1.5683,0.0,-1.4537,0.0,0.0,0.0,0.0,0.0,0.0,0.0,0.0,-1.7822,-1.8466,-1.9081,-1.9133,-1.9407,-2.0074,-2.0608,-2.1106,-2.1551,-2.1629,-2.1825,-2.2323,-2.2401,-2.2401,-2.2401,-2.2453,-2.2493,-2.2506,-2.2557,-2.2622,-2.248,-2.2009,-2.142,-2.0923,-2.0764,-2.0699,-2.0699,-2.0699,-2.0812,-2.1033,-2.1204,-2.1375,-2.1592,-2.164,-2.1664,-2.1589,-2.1732,-2.1945,-2.2165,-2.2326,-2.2597,-2.2933,-2.2549,-2.2051,-2.1298,-2.0713,-2.0152,-1.9675,-1.9538,-1.9534,-3.5332,-3.4885,-3.468,-3.4395,-3.4031,-3.3496,-3.2725,-3.1797,-3.1693,-3.1327,-3.079,-3.0215,-2.9931,-2.9892,-2.9483,-2.931,-2.931,-2.9205,-2.8878,-2.8373,-2.8302,-2.7981,-2.7516,-2.7503,-2.7503,-2.749,-2.7298,-2.6933,-2.6447,-2.5633,-2.5003,-2.4492,-2.397,-2.3688,-2.3688,0.0,0.0,0.0,-2.2518,-2.1956,-2.1368,-2.0923,-2.0465,-1.9982,-1.976,0.0,-1.8296,-1.8048,-1.7917,-1.7917,-1.746,0.0,0.0,0.0,0.0,0.0,0.0,0.0,0.0,0.0,0.0,0.0,-1.9198,-1.9185,-1.8039,-1.8427,-1.9185,-2.0229,-2.0347,-2.0792,-2.1812,-2.2022,-2.2113,-2.2205,-2.2217,-2.2296,-2.24,-2.2414,-2.2401,-2.2401,-2.2766,-2.3054,-2.308,-2.3443,-2.3589,-2.3106,-2.2584,-2.2022,-2.1433,-2.0988,-2.0712,-2.0699,-2.0699,-2.0737,-2.0787,-2.0835,-2.0898,-2.0898,-2.0923,-2.0923,-2.0959,-2.1095,-2.1302,-2.1568,-2.1807,-2.2039,-2.2273,-2.2192,-2.1784,-2.072,-2.0408,-2.0126,-1.9495,-1.9372,-1.9339,-3.5696,-3.5399,-3.5154,-3.4949,0.0,-3.4452,-3.3792,-3.2791,-3.2424,-3.1954,-3.1365,-3.0803,-3.0518,-3.0542,-3.0255,-3.016,-3.0098,-2.9823,-2.9536,-2.9222,-2.866,-2.8216,-2.7941,-2.762,-2.7469,-2.7403,-2.7134,-2.679,-2.6357,-2.529,-2.4607,-2.4299,-2.3484,-2.3125,-2.3113,-2.3113,-2.3086,-2.301,-2.2441,-2.1885,-2.1315,-2.0746,-2.0306,-1.9996,-1.9725,0.0,0.0,0.0,0.0,0.0,0.0,0.0,0.0,0.0,0.0,-1.6758,-1.7282,-1.7361,-1.6798,-1.7765,-1.8734,-1.9492,-2.0604,-2.0991,-2.0257,-2.0478,-2.0883,-2.1485,-2.155,-2.1773,-2.2336,-2.2401,-2.2506,-2.2767,-2.2805,-2.291,-2.3156,-2.3237,-2.3237,-2.325,-2.3485,-2.3639,-2.3639,-2.3903,-2.3965,-2.3639,-2.291,-2.2283,-2.1917,-2.1249,-2.0699,-2.0699,-2.0699,-2.0699,-2.0699,-2.0699,-2.0699,-2.0699,-2.0699,-2.0699,-2.0699,-2.0848,-2.1021,-2.1253,-2.135,-2.1471,-2.1864,-2.1945,-2.1569,-2.0492,-2.0144,-1.9803,-1.9001,-1.8912,-1.9082,-3.6072,-3.579,-3.5588,-3.5399,-3.5195,-3.5154,-3.4724,-3.4017,-3.3119,0.0,0.0,-3.1339,-3.1078,-3.0986,-3.1024,-3.1024,-3.0985,-3.0503,-3.0192,-3.0048,-2.9131,-2.8582,-2.836,-2.7902,-2.7527,-2.7281,-2.685,-2.653,-2.6308,-2.4941,-2.4214,-2.403,-2.3124,-2.261,-2.2537,-2.2512,-2.2588,-2.2676,-2.2163,-2.1631,-2.107,-2.0499,-2.0105,-1.9915,-1.9482,-1.9202,-1.9112,-1.875,-1.8639,-1.8776,-1.8802,-1.8789,-1.8776,-1.8815,-1.853,-1.8048,-1.8581,-1.8721,-1.819,-1.8688,-1.9452,-2.0423,-2.1363,-2.1997,-2.2293,-2.2307,-2.2359,-2.2477,-2.2463,-2.2517,-2.2662,-2.2675,-2.2858,-2.33,-2.338,-2.3548,-2.4005,-2.4125,-2.406,-2.4125,-2.4086,-2.4112,-2.4086,-2.4099,-2.4125,-2.3965,-2.3223,-2.2479,-2.2283,-2.1419,-2.0699,-2.0699,-2.0699,-2.0699,-2.0699,-2.0699,-2.0699,-2.0699,-2.0699,-2.0699,-2.0699,-2.0774,-2.0923,-2.1071,-2.0972,-2.112,-2.1496,-2.1554,-2.1178,-2.0019,-1.9787,-1.9445,-1.8378,-1.8313,-1.8649,-3.647,-3.6272,-3.6005,-3.579,-3.5602,-3.544,-3.506,-3.4586,-3.3276,-3.2372,-3.1797,-3.1719,-3.1444,-3.1024,-3.1024,-3.1024,-3.1024,-3.0908,-3.0607,-3.01,-2.9918,-2.9353,-2.8433,-2.8328,-2.7939,-2.7307,-2.6714,-2.6358,-2.6124,-2.503,-2.4249,-2.3746,-2.3144,-2.2638,-2.2283,-2.2266,-2.2273,-2.228,-2.1972,-2.1547,-2.1017,-2.0474,-1.9733,-1.8795,-1.8684,-1.84,-1.7968,-1.8015,-1.8357,-1.9076,-1.8668,-1.8618,-1.9088,-1.8681,-1.8338,-1.8276,-1.8821,-1.9088,-1.905,-1.9812,-2.0682,-2.149,-2.1732,-2.1852,-2.1973,-2.1977,-2.2197,-2.2675,-2.2724,-2.3015,-2.3554,-2.3635,-2.3693,-2.3913,-2.3939,-2.4005,-2.4125,-2.4125,-2.4125,-2.4125,-2.4125,-2.4125,-2.4125,-2.4125,-2.4125,-2.3992,-2.3472,-2.2923,-2.2349,-2.1433,-2.0777,-2.0699,-2.0699,-2.0699,-2.0699,-2.0699,-2.0699,-2.0699,-2.0699,-2.0699,-2.0699,-2.0724,-2.0749,-2.0774,-2.0774,-2.0799,-2.0885,-2.0835,-2.0408,-1.9456,-1.9241,-1.8799,-1.7784,-1.7726,-1.8023,-3.6563,-3.651,-3.6178,-3.6018,-3.5898,-3.5413,-3.5154,-3.4881,-3.4025,-3.3117,-3.2306,-3.1941,-3.1522,-3.1013,-3.1024,-3.1024,-3.1024,-3.1024,-3.0843,-3.0581,-3.0244,-2.968,-2.8917,-2.8564,-2.7949,-2.7138,-2.6461,-2.5965,-2.5615,-2.4517,-2.3651,-2.3157,-2.2371,-2.1855,-2.1667,-2.1675,-2.1655,-2.1663,-2.1584,-2.1425,-2.1153,-2.0633,-1.9967,-1.918,-1.9155,-1.8913,-1.843,-1.8545,-1.8845,-1.9384,-1.9083,-1.9058,-1.9359,-1.9071,-1.8921,-1.9021,-1.9457,-1.9769,-1.9834,-2.0545,-2.1141,-2.1522,-2.1855,-2.2018,-2.207,-2.2209,-2.2414,-2.2681,-2.2706,-2.2879,-2.3318,-2.3522,-2.3658,-2.3806,-2.3995,-2.4096,-2.4125,-2.4125,-2.4125,-2.4125,-2.4125,-2.4125,-2.4125,-2.4125,-2.4125,-2.406,-2.3602,-2.3014,-2.2506,-2.1969,-2.1485,-2.1197,-2.0883,-2.0712,-2.0712,-2.0699,-2.0699,-2.0699,-2.0699,-2.0699,-2.0699,-2.0699,-2.0699,-2.0699,-2.0699,-2.0699,-2.0699,-2.0699,-2.0281,-1.9682,-1.9394,-1.9002,-1.8371,-1.8107,-1.8139,-3.6589,-3.6747,-3.6391,-3.6152,-3.5938,-3.5372,-3.5072,-3.5003,-3.4564,-3.3835,-3.2894,-3.228,-3.1718,-3.1196,-3.1014,-3.0911,-3.0949,-3.0874,-3.0861,-3.0822,-3.0394,-2.9874,-2.9337,-2.8764,-2.7937,-2.6976,-2.6213,-2.5629,-2.5099,-2.4107,-2.3282,-2.2684,-2.1778,-2.1316,-2.1201,-2.1201,-2.1201,-2.121,-2.1233,-2.1217,-2.1086,-2.0695,-2.0214,-1.9761,-1.9725,-1.9476,-1.9027,-1.9128,-1.9255,-1.9394,-1.9426,-1.946,-1.9554,-1.9609,-1.9643,-1.9775,-2.0061,-2.0299,-2.0489,-2.0858,-2.1146,-2.1264,-2.1687,-2.1968,-2.1999,-2.218,-2.2359,-2.2463,-2.2512,-2.2586,-2.2818,-2.309,-2.336,-2.3539,-2.3848,-2.4067,-2.4096,-2.4125,-2.4125,-2.4125,-2.4125,-2.4125,-2.4125,-2.4125,-2.4125,-2.4047,-2.3678,-2.325,-2.2872,-2.2689,-2.2362,-2.1956,-2.1433,-2.108,-2.0936,-2.0896,-2.0844,-2.0751,-2.0699,-2.0699,-2.0699,-2.0699,-2.0699,-2.0699,-2.0699,-2.0699,-2.0699,-2.0699,-2.0425,-1.9891,-1.9734,-1.9564,-1.895,-1.853,-1.8294,-3.6786,-3.6915,-3.6693,-3.6258,-3.5723,-3.5277,-3.5003,-3.4797,-3.4535,-3.4071,-3.3442,-3.2868,-3.2241,-3.1693,-3.1007,-3.0698,-3.0698,-3.052,-3.0444,-3.0444,-3.0393,-3.0072,-2.9407,-2.8892,-2.8104,-2.6978,-2.6049,-2.5371,-2.4849,-2.4337,-2.3615,-2.2731,-2.2122,-2.1617,-2.1259,-2.1201,-2.1201,-2.1201,-2.1219,-2.0965,-2.0507,-2.0427,-2.0162,-1.9731,-1.9708,-1.9454,-1.8992,-1.9041,-1.903,-1.8935,-1.9304,-1.9503,-1.9539,-1.9939,-2.023,-2.0211,-2.0277,-2.044,-2.0717,-2.0568,-2.0742,-2.1158,-2.1282,-2.1328,-2.1328,-2.1348,-2.16,-2.2049,-2.2216,-2.2266,-2.2451,-2.2726,-2.3017,-2.333,-2.37,-2.3979,-2.4054,-2.4125,-2.4125,-2.4125,-2.4125,-2.4125,-2.4125,-2.4125,-2.4125,-2.4125,-2.4021,-2.3903,-2.3772,-2.3406,-2.3132,-2.2962,-2.2583,-2.2034,-2.1603,-2.1433,-2.1223,-2.0818,-2.0674,-2.0699,-2.0699,-2.0699,-2.0699,-2.0699,-2.0699,-2.0699,-2.0699,-2.0686,-2.0478,-2.0124,-1.9865,-1.9656,-1.9041,-1.8616,-1.8222,-3.647,-3.6628,-3.6431,-3.6032,-3.548,-3.4949,-3.4618,-3.4535,-3.4147,-3.385,-3.354,-3.2741,-3.207,-3.1565,-3.0689,-3.0216,-3.0075,-2.9767,-2.9651,-2.9639,-2.9639,-2.9313,-2.8737,-2.8225,-2.7493,-2.6588,-2.5671,-2.5076,-2.4695,-2.4081,-2.3374,-2.2696,-2.218,-2.1663,-2.1247,-2.1201,-2.1201,-2.1201,-2.1201,-2.1086,-2.0882,-2.0891,-2.063,-2.0182,-2.0125,-1.9884,-1.9424,-1.9414,-1.9483,-1.9552,-1.9614,-1.9691,-1.9851,-1.993,-2.003,-2.0181,-2.0447,-2.0714,-2.1001,-2.0942,-2.094,-2.121,-2.1201,-2.1201,-2.1201,-2.1201,-2.1328,-2.1549,-2.1624,-2.1675,-2.1839,-2.2106,-2.2427,-2.2818,-2.3271,-2.3671,-2.3776,-2.3995,-2.4125,-2.4125,-2.4125,-2.4125,-2.4125,-2.4125,-2.4125,-2.4125,-2.4125,-2.4125,-2.407,-2.3861,-2.3785,-2.372,-2.355,-2.3027,-2.223,-2.1694,-2.1446,-2.1185,-2.0896,-2.0712,-2.0699,-2.0699,-2.0699,-2.0699,-2.0699,-2.0699,-2.0699,-2.0699,-2.0594,-2.0321,-2.0294,-2.0151,-1.9551,-1.9264,-1.8812,-3.6072,-3.6152,-3.5952,-3.5575,-3.5072,-3.4439,-3.4063,-3.3966,-3.353,-3.3318,-3.3204,-3.2165,-3.1508,-3.1105,-3.0238,-2.9678,-2.9433,-2.9094,-2.8949,-2.8937,-2.8937,-2.8702,-2.8261,-2.7762,-2.7126,-2.6286,-2.554,-2.4967,-2.4598,-2.3999,-2.335,-2.288,-2.2386,-2.187,-2.1443,-2.1293,-2.1201,-2.1201,-2.1201,-2.1201,-2.1201,-2.1201,-2.1017,-2.0653,-2.0618,-2.0389,-1.993,-1.9895,-1.9904,-1.996,-1.9922,-1.9973,-2.0158,-2.0118,-2.0199,-2.0379,-2.0705,-2.0985,-2.121,-2.1201,-2.1201,-2.1201,-2.1201,-2.1201,-2.1201,-2.1201,-2.1201,-2.1233,-2.1201,-2.1253,-2.1368,-2.1639,-2.1951,-2.2254,-2.2866,-2.3343,-2.3552,-2.3835,-2.4067,-2.4083,-2.4125,-2.4125,-2.4125,-2.4125,-2.4125,-2.4125,-2.4125,-2.4125,-2.4125,-2.4112,-2.4099,-2.4125,-2.4112,-2.3694,-2.2792,-2.2348,-2.1956,-2.1472,-2.1158,-2.0909,-2.0739,-2.0699,-2.0699,-2.0699,-2.0699,-2.0699,-2.0699,-2.0699,-2.0699,-2.0699,-2.066,-2.053,-2.0151,-1.9943,-1.9486,-3.571,-3.5683,-3.5318,-3.4867,-3.4397,-3.3725,-3.3313,-3.3086,-3.2575,-3.2389,-3.2265,-3.1255,-3.065,-3.0404,-2.9692,-2.9184,-2.8831,-2.8578,-2.8459,-2.8498,-2.8498,-2.8486,-2.8438,-2.7933,-2.7188,-2.6252,-2.5659,-2.5018,-2.4296,-2.4154,-2.3913,-2.3361,-2.2891,-2.2386,-2.187,-2.1422,-2.1201,-2.1201,-2.1201,-2.1201,-2.1201,-2.1201,-2.1178,-2.1132,-2.1144,-2.0891,-2.0446,-2.0389,-2.0182,-1.9753,-2.0148,-2.0377,-2.0412,-2.0833,-2.1063,-2.1118,-2.1152,-2.1187,-2.119,-2.1201,-2.1201,-2.1201,-2.1201,-2.1201,-2.1201,-2.1201,-2.1201,-2.1201,-2.1201,-2.1201,-2.1253,-2.1494,-2.1733,-2.192,-2.2519,-2.3,-2.333,-2.3641,-2.3949,-2.4054,-2.4083,-2.4112,-2.4125,-2.4125,-2.4125,-2.4125,-2.4125,-2.4125,-2.4125,-2.4125,-2.4125,-2.4125,-2.4073,-2.3861,-2.33,-2.2936,-2.2492,-2.206,-2.1694,-2.1342,-2.0949,-2.0699,-2.0712,-2.0712,-2.0712,-2.0712,-2.0699,-2.0699,-2.0699,-2.0699,-2.0699,-2.0581,-2.0451,-2.0124,-1.9721,-3.5318,-3.5005,-3.466,-3.4189,-3.3738,-3.3197,-3.2742,-3.2339,-3.2033,-3.1913,-3.1719,-3.0786,-3.0103,-2.9719,-2.8858,-2.8351,-2.8191,-2.7829,-2.7679,-2.7667,-2.7667,-2.7667,-2.7609,-2.7182,-2.6589,-2.5912,-2.5365,-2.4819,-2.4271,-2.4189,-2.3936,-2.3476,-2.3224,-2.2731,-2.2009,-2.1755,-2.1535,-2.1236,-2.1201,-2.1201,-2.1201,-2.1201,-2.1201,-2.1201,-2.1201,-2.1121,-2.0925,-2.0937,-2.0845,-2.0672,-2.0822,-2.0925,-2.0937,-2.1086,-2.1201,-2.1201,-2.1201,-2.1201,-2.1201,-2.1201,-2.1201,-2.1201,-2.1201,-2.1201,-2.1201,-2.1201,-2.1201,-2.1201,-2.1201,-2.1201,-2.1233,-2.1316,-2.1443,-2.1608,-2.1982,-2.2439,-2.2757,-2.3253,-2.3641,-2.3789,-2.3953,-2.4112,-2.4125,-2.4125,-2.4125,-2.4125,-2.4125,-2.4125,-2.4125,-2.4125,-2.4125,-2.4125,-2.4112,-2.4018,-2.3848,-2.3391,-2.2986,-2.2701,-2.2374,-2.2113,-2.1786,-2.1105,-2.0974,-2.108,-2.0988,-2.0777,-2.0791,-2.0699,-2.0699,-2.0699,-2.0699,-2.0699,-2.0699,-2.0386,-2.0137,-3.4522,-3.4134,-3.3713,-3.33,-3.2914,-3.2438,-3.2045,-3.1637,-3.1339,-3.1217,-3.1015,-3.0114,-2.9482,-2.9051,-2.8122,-2.769,-2.7638,-2.7353,-2.719,-2.719,-2.719,-2.719,-2.7133,-2.6875,-2.645,-2.5911,-2.5233,-2.4659,-2.4235,-2.4189,-2.4016,-2.3682,-2.351,-2.3086,-2.2444,-2.2078,-2.1732,-2.1477,-2.127,-2.1201,-2.1201,-2.1201,-2.1201,-2.1201,-2.1201,-2.1201,-2.1201,-2.1201,-2.1201,-2.1201,-2.1201,-2.1201,-2.1201,-2.1201,-2.1201,-2.1201,-2.1201,-2.1201,-2.1201,-2.1201,-2.1201,-2.1201,-2.1201,-2.1201,-2.1201,-2.1201,-2.1201,-2.1201,-2.1201,-2.1221,-2.1285,-2.138,-2.1431,-2.1494,-2.1733,-2.2149,-2.2543,-2.3072,-2.3492,-2.3789,-2.3966,-2.4096,-2.4125,-2.4125,-2.4125,-2.4125,-2.4125,-2.4125,-2.4125,-2.4125,-2.4125,-2.4125,-2.4125,-2.4112,-2.4034,-2.3731,-2.3352,-2.3067,-2.2936,-2.2741,-2.244,-2.1734,-2.1367,-2.1459,-2.1315,-2.1014,-2.083,-2.0738,-2.0699,-2.0712,-2.0699,-2.0699,-2.0699,-2.0699,-2.0425,-3.33,-3.3031,-3.2476,-3.2227,-3.1989,-3.156,-3.1172,-3.0892,-3.0487,-3.0352,-3.027,-2.9236,-2.8818,-2.8537,-2.7709,-2.7231,-2.7231,-2.719,-2.719,-2.719,-2.719,-2.719,-2.7179,-2.7133,-2.6841,-2.6318,-2.5383,-2.4682,-2.4212,-2.4189,-2.4154,-2.4085,-2.3671,-2.3419,-2.3361,-2.2479,-2.1974,-2.1858,-2.1569,-2.1305,-2.1213,-2.1259,-2.1259,-2.1213,-2.1201,-2.1201,-2.1201,-2.1201,-2.1201,-2.1201,-2.1201,-2.1201,-2.1201,-2.1201,-2.1201,-2.1201,-2.1201,-2.1201,-2.1201,-2.1201,-2.1201,-2.1201,-2.1201,-2.1201,-2.1201,-2.1201,-2.1201,-2.1201,-2.1201,-2.1221,-2.14,-2.1651,-2.1733,-2.1557,-2.1913,-2.2377,-2.2787,-2.3193,-2.3582,-2.3992,-2.4164,-2.4109,-2.4138,-2.4295,-2.4374,-2.4374,-2.4347,-2.436,-2.4413,-2.4413,-2.423,-2.4148,-2.4256,-2.4308,-2.4217,-2.4073,-2.372,-2.3378,-2.3313,-2.3197,-2.3014,-2.2505,-2.2243,-2.223,-2.1864,-2.1551,-2.104,-2.0936,-2.0817,-2.0791,-2.0751,-2.0699,-2.0699,-2.0699,-2.0699,-3.3,-3.2711,-3.2133,-3.1649,-3.125,-3.1083,-3.0802,-3.0442,-3.0261,-3.0216,-3.0032,-2.9148,-2.8689,-2.8471,-2.7637,-2.719,-2.719,-2.719,-2.719,-2.719,-2.719,-2.719,-2.719,-2.719,-2.6783,-2.5968,-2.5256,-2.4671,-2.4281,-2.42,-2.4189,-2.4143,-2.4039,-2.374,-2.3419,-2.3086,-2.2788,-2.2455,-2.2328,-2.2053,-2.1732,-2.1686,-2.1525,-2.1236,-2.1201,-2.1201,-2.1201,-2.1201,-2.1201,-2.1201,-2.1201,-2.1201,-2.1201,-2.1201,-2.1201,-2.1201,-2.1201,-2.1201,-2.1201,-2.1201,-2.1201,-2.1201,-2.1201,-2.1201,-2.1201,-2.1201,-2.1213,-2.1213,-2.1201,-2.1221,-2.1316,-2.1663,-2.1917,-2.1956,-2.2273,-2.258,-2.2909,-2.3313,-2.3688,-2.409,-2.4465,-2.4674,-2.4809,-2.4949,-2.5153,-2.5166,-2.5179,-2.5179,-2.5206,-2.5127,-2.5079,-2.4818,-2.4739,-2.4596,-2.4491,-2.4374,-2.4112,-2.3864,-2.3759,-2.3613,-2.3472,-2.3354,-2.3104,-2.2725,-2.24,-2.1982,-2.1459,-2.1171,-2.104,-2.0831,-2.0739,-2.0725,-2.0699,-2.0699,-2.0699,-3.2599,-3.2232,-3.1472,-3.0937,-3.0634,-3.0623,-3.0487,-3.0216,-3.0216,-3.0216,-3.0009,-2.9148,-2.8689,-2.8494,-2.7667,-2.7213,-2.719,-2.719,-2.719,-2.719,-2.719,-2.719,-2.719,-2.719,-2.6789,-2.6048,-2.5463,-2.4946,-2.4464,-2.4292,-2.4189,-2.4189,-2.4189,-2.4051,-2.3682,-2.3488,-2.3224,-2.2983,-2.2765,-2.2524,-2.2271,-2.2203,-2.2053,-2.1776,-2.1581,-2.1456,-2.1477,-2.1305,-2.1201,-2.1201,-2.1201,-2.1201,-2.1201,-2.1201,-2.1201,-2.1201,-2.1201,-2.1201,-2.1201,-2.1201,-2.1201,-2.1201,-2.1201,-2.1201,-2.1201,-2.1201,-2.1247,-2.141,-2.1468,-2.1578,-2.1837,-2.2019,-2.2309,-2.2537,-2.2641,-2.2866,-2.315,-2.3731,-2.4188,-2.454,-2.4936,-2.524,-2.5393,-2.5537,-2.578,-2.578,-2.578,-2.578,-2.578,-2.5741,-2.5563,-2.5393,-2.5315,-2.5105,-2.4844,-2.4674,-2.4491,-2.4334,-2.4204,-2.4047,-2.389,-2.3851,-2.3694,-2.3093,-2.2648,-2.2322,-2.1865,-2.1525,-2.1315,-2.1054,-2.0883,-2.0738,-2.0712,-2.0699,-2.0699,-3.2064,-3.1572,-3.0623,-3.0261,-3.0261,-3.0261,-3.0261,-3.0216,-3.0216,-3.0216,-2.9998,-2.9228,-2.8792,-2.8551,-2.7805,-2.7305,-2.7236,-2.719,-2.719,-2.719,-2.719,-2.719,-2.719,-2.719,-2.6921,-2.6444,-2.5899,-2.5394,-2.4832,-2.4407,-2.4189,-2.4189,-2.4189,-2.4189,-2.4062,-2.3671,-2.3499,-2.3407,-2.3064,-2.2846,-2.2731,-2.2719,-2.2696,-2.2581,-2.2191,-2.194,-2.1904,-2.1537,-2.1259,-2.1213,-2.1201,-2.1201,-2.1201,-2.1201,-2.1201,-2.1201,-2.1201,-2.1201,-2.1201,-2.1201,-2.1201,-2.1201,-2.1201,-2.1201,-2.1201,-2.1293,-2.1477,-2.1789,-2.1894,-2.2155,-2.2621,-2.2756,-2.2866,-2.3198,-2.3251,-2.3331,-2.3671,-2.4494,-2.4931,-2.5105,-2.5484,-2.5832,-2.589,-2.5936,-2.6015,-2.6028,-2.6054,-2.6106,-2.6093,-2.6171,-2.595,-2.5858,-2.5876,-2.5628,-2.5367,-2.5184,-2.5027,-2.4962,-2.4766,-2.4517,-2.423,-2.4138,-2.4086,-2.3485,-2.3041,-2.2702,-2.2388,-2.2113,-2.1825,-2.1616,-2.1328,-2.0935,-2.0895,-2.1079,-2.1,-3.2064,-3.1605,-3.0623,-3.0216,-3.0216,-3.0216,-3.0216,-3.0216,-3.0216,-3.0216,-3.0067,-2.9573,-2.9263,-2.9171,-2.823,-2.7782,-2.7679,-2.738,-2.719,-2.719,-2.719,-2.719,-2.719,-2.7179,-2.6978,-2.6524,-2.6003,-2.5429,-2.4875,-2.4464,-2.4223,-2.4189,-2.4189,-2.4189,-2.4154,-2.4039,-2.4005,-2.3994,-2.3879,-2.3569,-2.3247,-2.3212,-2.3041,-2.2719,-2.2592,-2.2478,-2.2432,-2.1996,-2.1525,-2.1224,-2.1201,-2.1201,-2.1201,-2.1201,-2.1201,-2.1201,-2.1201,-2.1201,-2.1201,-2.1201,-2.1201,-2.1201,-2.1201,-2.1201,-2.1213,-2.1514,-2.1755,-2.1963,-2.2226,-2.2569,-2.2775,-2.2963,-2.3401,-2.4154,-2.4123,-2.419,-2.462,-2.5175,-2.5589,-2.5654,-2.6112,-2.6386,-2.6517,-2.6739,-2.6929,-2.6955,-2.6942,-2.6929,-2.6811,-2.6824,-2.6733,-2.653,-2.6444,-2.6151,-2.5916,-2.572,-2.5571,-2.5558,-2.5349,-2.501,-2.4592,-2.4174,-2.4125,-2.3864,-2.3668,-2.3354,-2.3119,-2.2884,-2.257,-2.2165,-2.1969,-2.1708,-2.1838,-2.1995,-2.1695,-3.2064,-3.1617,-3.0623,-3.0216,-3.0216,-3.0216,-3.0216,-3.0216,-3.0216,-3.0216,-3.0101,-2.9711,-2.9504,-2.9389,-2.8436,-2.7989,-2.792,-2.7461,-2.7201,-2.719,-2.719,-2.719,-2.719,-2.719,-2.707,-2.6772,-2.6267,-2.5773,-2.5256,-2.474,-2.4418,-2.4223,-2.4189,-2.4189,-2.4189,-2.4189,-2.42,-2.4189,-2.4189,-2.4028,-2.3751,-2.3728,-2.3638,-2.3305,-2.3144,-2.2926,-2.2719,-2.2386,-2.2007,-2.1571,-2.1339,-2.1201,-2.1201,-2.1201,-2.1201,-2.1201,-2.1201,-2.1201,-2.1201,-2.1201,-2.1201,-2.1201,-2.1201,-2.1316,-2.1468,-2.1778,-2.1963,-2.2548,-2.2811,-2.3075,-2.3306,-2.3467,-2.3831,-2.4316,-2.4778,-2.5019,-2.5318,-2.5837,-2.6138,-2.6308,-2.6648,-2.7027,-2.7027,-2.734,-2.7438,-2.7464,-2.7385,-2.7398,-2.7411,-2.7477,-2.7425,-2.7118,-2.6974,-2.6791,-2.6569,-2.6373,-2.6203,-2.6177,-2.5923,-2.5584,-2.5219,-2.4657,-2.4452,-2.44,-2.4243,-2.406,-2.3772,-2.3446,-2.3027,-2.2714,-2.2597,-2.248,-2.2506,-2.265,-2.2362,-3.2021,-3.154,-3.0589,-3.0216,-3.0216,-3.0216,-3.0216,-3.0216,-3.0216,-3.0216,-3.0135,-2.9768,-2.9653,-2.9515,-2.862,-2.808,-2.8057,-2.7495,-2.7236,-2.719,-2.719,-2.719,-2.719,-2.719,-2.7156,-2.707,-2.6691,-2.6232,-2.5739,-2.5256,-2.4809,-2.459,-2.4464,-2.4338,-2.4384,-2.4315,-2.4258,-2.42,-2.4189,-2.4177,-2.4108,-2.4108,-2.4051,-2.3982,-2.3671,-2.3362,-2.3041,-2.28,-2.2559,-2.2089,-2.1606,-2.1489,-2.1431,-2.1397,-2.142,-2.1466,-2.1523,-2.1489,-2.1408,-2.15,-2.1431,-2.1489,-2.1466,-2.1523,-2.1927,-2.2123,-2.2513,-2.3155,-2.3395,-2.3659,-2.3949,-2.4049,-2.4208,-2.4585,-2.5191,-2.5661,-2.6006,-2.6452,-2.6765,-2.6778,-2.7203,-2.7438,-2.7503,-2.7503,-2.7503,-2.7503,-2.7503,-2.7503,-2.7503,-2.749,-2.749,-2.7411,-2.7372,-2.7425,-2.7216,-2.704,-2.687,-2.6739,-2.6459,-2.6198,-2.6041,-2.5602,-2.5158,-2.4926,-2.4792,-2.457,-2.4282,-2.3916,-2.355,-2.3302,-2.3184,-2.291,-2.2714,-2.2975,-2.2938,-3.1669,-3.1026,-3.0442,-3.0216,-3.0216,-3.0216,-3.0216,-3.0216,-3.0216,-3.0216,-3.0193,-3.0089,-3.0044,-2.9986,-2.8999,-2.854,-2.8379,-2.7667,-2.719,-2.719,-2.719,-2.719,-2.719,-2.719,-2.719,-2.7075,-2.6703,-2.6455,-2.6214,-2.5784,-2.5486,-2.536,-2.521,-2.5164,-2.4809,-2.4705,-2.4556,-2.4281,-2.42,-2.4189,-2.4189,-2.4189,-2.4189,-2.4189,-2.4062,-2.3994,-2.3821,-2.3453,-2.3201,-2.2983,-2.2662,-2.2385,-2.2293,-2.2293,-2.2282,-2.227,-2.2305,-2.2339,-2.2362,-2.2293,-2.2362,-2.2282,-2.2259,-2.2431,-2.2501,-2.2857,-2.3109,-2.3488,-2.3787,-2.4039,-2.4179,-2.4325,-2.4614,-2.5076,-2.5632,-2.6231,-2.6819,-2.7137,-2.7255,-2.732,-2.7385,-2.7503,-2.7503,-2.7503,-2.7503,-2.7503,-2.7503,-2.7503,-2.7503,-2.7503,-2.7503,-2.7503,-2.7503,-2.7503,-2.7438,-2.7268,-2.7223,-2.7131,-2.6902,-2.6628,-2.6485,-2.6354,-2.5876,-2.5563,-2.5354,-2.5105,-2.4818,-2.4635,-2.4351,-2.4073,-2.3799,-2.3576,-2.3433,-2.355,-2.3459,-3.1383,-3.0859,-3.0397,-3.0216,-3.0216,-3.0216,-3.0216,-3.0216,-3.0216,-3.0216,-3.0216,-3.0216,-3.0216,-3.0124,-2.9194,-2.8689,-2.8459,-2.7649,-2.719,-2.719,-2.719,-2.719,-2.719,-2.719,-2.719,-2.7185,-2.6978,-2.6726,-2.6478,-2.6249,-2.5922,-2.5727,-2.5727,-2.5543,-2.5256,-2.5073,-2.4797,-2.4556,-2.4292,-2.4189,-2.4189,-2.4189,-2.4189,-2.4189,-2.4189,-2.4189,-2.4131,-2.3948,-2.381,-2.3729,-2.3523,-2.3133,-2.2754,-2.2719,-2.2719,-2.2707,-2.2707,-2.2707,-2.2707,-2.2707,-2.2684,-2.273,-2.2719,-2.2834,-2.2983,-2.3281,-2.351,-2.374,-2.4016,-2.4189,-2.42,-2.4381,-2.4802,-2.5218,-2.5676,-2.6233,-2.6897,-2.7302,-2.7503,-2.7503,-2.7477,-2.7503,-2.7503,-2.7503,-2.7503,-2.7503,-2.7503,-2.7503,-2.7503,-2.7503,-2.7503,-2.7503,-2.7503,-2.7503,-2.7503,-2.7451,-2.7438,-2.7372,-2.7294,-2.7013,-2.6739,-2.6648,-2.6517,-2.6203,-2.5876,-2.5597,-2.5336,-2.5223,-2.4979,-2.4626,-2.4308,-2.4217,-2.406,-2.3877,-2.3799,-3.1083,-3.0769,-3.0352,-3.0216,-3.0216,-3.0216,-3.0216,-3.0216,-3.0216,-3.0216,-3.0216,-3.0216,-3.0216,-3.0009,-2.9286,-2.8815,-2.8367,-2.7874,-2.7415,-2.7201,-2.719,-2.719,-2.719,-2.719,-2.719,-2.719,-2.7133,-2.6955,-2.6714,-2.6593,-2.6427,-2.6048,-2.598,-2.598,-2.5773,-2.5429,-2.5096,-2.4855,-2.4545,-2.4292,-2.4212,-2.4189,-2.4189,-2.4189,-2.4189,-2.4189,-2.4189,-2.4143,-2.4154,-2.4189,-2.4189,-2.3729,-2.319,-2.2903,-2.2937,-2.2983,-2.3075,-2.3075,-2.3144,-2.3029,-2.3006,-2.2949,-2.2972,-2.3133,-2.343,-2.3568,-2.3751,-2.3994,-2.4189,-2.4189,-2.4236,-2.4345,-2.4586,-2.4957,-2.5324,-2.5875,-2.6622,-2.7203,-2.7457,-2.7503,-2.7503,-2.7503,-2.7503,-2.7503,-2.7503,-2.7503,-2.7503,-2.7503,-2.7503,-2.7503,-2.7503,-2.7503,-2.7503,-2.7503,-2.7503,-2.7503,-2.7503,-2.7503,-2.7503,-2.7281,-2.7027,-2.7013,-2.6922,-2.6661,-2.636,-2.6151,-2.5793,-2.5484,-2.5254,-2.4992,-2.4612,-2.4217,-2.4125,-2.4125,-2.4073,-3.0713,-3.0306,-3.0216,-3.0216,-3.0216,-3.0216,-3.0216,-3.0216,-3.0216,-3.0216,-3.0216,-3.0216,-3.0216,-3.0044,-2.9653,-2.893,-2.8241,-2.7839,-2.7587,-2.7259,-2.719,-2.719,-2.719,-2.719,-2.719,-2.719,-2.719,-2.711,-2.7052,-2.7041,-2.6892,-2.6892,-2.6846,-2.6726,-2.6404,-2.6226,-2.5681,-2.5164,-2.4843,-2.4579,-2.4349,-2.4212,-2.4189,-2.4189,-2.4189,-2.4189,-2.4189,-2.4189,-2.4189,-2.4189,-2.4189,-2.4085,-2.389,-2.3833,-2.3833,-2.381,-2.3823,-2.3741,-2.3775,-2.3856,-2.3913,-2.3948,-2.3844,-2.3867,-2.4005,-2.4039,-2.4062,-2.412,-2.4189,-2.4189,-2.4189,-2.4273,-2.4418,-2.473,-2.5076,-2.5611,-2.6602,-2.722,-2.7558,-2.7613,-2.7572,-2.7633,-2.7777,-2.779,-2.7699,-2.7659,-2.7555,-2.7529,-2.7503,-2.7503,-2.7503,-2.7503,-2.7503,-2.7503,-2.7503,-2.7503,-2.7503,-2.7503,-2.7503,-2.7503,-2.732,-2.7385,-2.7301,-2.6987,-2.687,-2.6733,-2.6341,-2.5876,-2.5354,-2.4988,-2.457,-2.4138,-2.4125,-2.4125,-2.4125,-3.0397,-3.0216,-3.0216,-3.0216,-3.0216,-3.0216,-3.0216,-3.0216,-3.0216,-3.0216,-3.0216,-3.0216,-3.0216,-3.0089,-2.9711,-2.893,-2.8207,-2.7977,-2.769,-2.7282,-2.719,-2.719,-2.719,-2.719,-2.719,-2.719,-2.719,-2.719,-2.719,-2.7179,-2.719,-2.7179,-2.719,-2.7052,-2.6829,-2.6554,-2.626,-2.567,-2.5222,-2.4832,-2.4545,-2.4361,-2.42,-2.4189,-2.4189,-2.4189,-2.4189,-2.4189,-2.4189,-2.4189,-2.4189,-2.4189,-2.4189,-2.4189,-2.4189,-2.4189,-2.4189,-2.4189,-2.4189,-2.4189,-2.4166,-2.4177,-2.4189,-2.4189,-2.4189,-2.4177,-2.4189,-2.4189,-2.4189,-2.4189,-2.4189,-2.42,-2.4309,-2.4512,-2.4869,-2.5515,-2.6275,-2.6954,-2.7457,-2.7917,-2.8313,-2.8478,-2.8464,-2.8373,-2.8072,-2.7876,-2.7673,-2.7581,-2.7529,-2.7503,-2.7503,-2.7607,-2.762,-2.762,-2.7594,-2.7529,-2.7503,-2.7503,-2.7503,-2.7503,-2.7503,-2.749,-2.7425,-2.7275,-2.719,-2.715,-2.6837,-2.6328,-2.5662,-2.501,-2.4618,-2.4305,-2.4191,-2.4125,-2.423,-3.0216,-3.0216,-3.0216,-3.0216,-3.0216,-3.0216,-3.0216,-3.0216,-3.0216,-3.0216,-3.0216,-3.0216,-3.0216,-3.0089,-2.9665,-2.8999,-2.8138,-2.8069,-2.769,-2.727,-2.719,-2.719,-2.719,-2.719,-2.719,-2.719,-2.719,-2.719,-2.719,-2.719,-2.719,-2.719,-2.719,-2.719,-2.7075,-2.6852,-2.6634,-2.626,-2.5739,-2.521,-2.4855,-2.4464,-2.4189,-2.4189,-2.4189,-2.4189,-2.4189,-2.4189,-2.4189,-2.4189,-2.4189,-2.4189,-2.4189,-2.4189,-2.4189,-2.4189,-2.4189,-2.4189,-2.4189,-2.4189,-2.4189,-2.4189,-2.4189,-2.4189,-2.4189,-2.4189,-2.4189,-2.4189,-2.4189,-2.4189,-2.4212,-2.4303,-2.4349,-2.4512,-2.4946,-2.5529,-2.6214,-2.6951,-2.7829,-2.8408,-2.9093,-2.9236,-2.9082,-2.8856,-2.8556,-2.8177,-2.8007,-2.7673,-2.7607,-2.7516,-2.7542,-2.7712,-2.7777,-2.7777,-2.7712,-2.7581,-2.7542,-2.7503,-2.7503,-2.7503,-2.7503,-2.7503,-2.7425,-2.7372,-2.7398,-2.732,-2.7059,-2.6733,-2.6099,-2.5471,-2.4866,-2.4657,-2.4775,-2.4753,-2.4753,-3.0216,-3.0216,-3.0216,-3.0216,-3.0216,-3.0216,-3.0216,-3.0216,-3.0216,-3.0216,-3.0216,-3.0216,-3.0204,-3.0055,-2.9699,-2.916,-2.8597,-2.8138,-2.7713,-2.7247,-2.719,-2.719,-2.719,-2.719,-2.719,-2.719,-2.719,-2.719,-2.719,-2.719,-2.719,-2.719,-2.719,-2.719,-2.7167,-2.7041,-2.6909,-2.657,-2.6352,-2.5858,-2.505,-2.4522,-2.4338,-2.4246,-2.4246,-2.4223,-2.4212,-2.4189,-2.4189,-2.4189,-2.4189,-2.4189,-2.4189,-2.4189,-2.4189,-2.4189,-2.4189,-2.4189,-2.4189,-2.4189,-2.4189,-2.4189,-2.4189,-2.4189,-2.4189,-2.4189,-2.4189,-2.4189,-2.4223,-2.4258,-2.4361,-2.4625,-2.4751,-2.4992,-2.5329,-2.6031,-2.6694,-2.7085,-2.7977,-2.8798,-2.9452,-2.9561,-2.9477,-2.9287,-2.9048,-2.8634,-2.8281,-2.802,-2.7842,-2.7868,-2.7738,-2.7968,-2.7994,-2.7981,-2.7725,-2.7607,-2.7555,-2.7503,-2.7503,-2.7503,-2.7503,-2.7503,-2.7503,-2.7477,-2.7503,-2.7398,-2.7118,-2.6765,-2.6373,-2.5955,-2.5427,-2.5427,-2.561,-2.548,-2.5219,-3.0216,-3.0216,-3.0216,-3.0216,-3.0216,-3.0216,-3.0216,-3.0216,-3.0216,-3.0216,-3.0216,-3.0216,-3.0078,-2.9825,-2.955,-2.9045,-2.839,-2.8057,-2.7702,-2.727,-2.719,-2.719,-2.719,-2.719,-2.719,-2.719,-2.719,-2.719,-2.719,-2.719,-2.719,-2.719,-2.719,-2.719,-2.719,-2.719,-2.7105,-2.6875,-2.6577,-2.6094,-2.5509,-2.5153,-2.49,-2.4625,-2.4602,-2.4453,-2.4269,-2.4189,-2.4189,-2.4189,-2.4189,-2.4189,-2.4189,-2.4189,-2.4189,-2.4189,-2.4189,-2.4189,-2.4189,-2.42,-2.4189,-2.42,-2.42,-2.4189,-2.4189,-2.4235,-2.4235,-2.4189,-2.4464,-2.4579,-2.4694,-2.5073,-2.5268,-2.5509,-2.583,-2.6173,-2.6841,-2.7502,-2.8143,-2.8995,-2.9717,-2.9781,-2.9889,-2.9839,-2.9653,-2.9379,-2.9039,-2.8765,-2.8686,-2.8739,-2.8529,-2.8281,-2.8242,-2.8177,-2.7816,-2.7568,-2.7542,-2.7503,-2.7503,-2.7503,-2.7503,-2.7503,-2.7503,-2.7503,-2.7503,-2.7333,-2.7118,-2.6883,-2.6595,-2.6321,-2.6033,-2.6028,-2.6041,-2.5793,-2.5524,-3.0216,-3.0216,-3.0216,-3.0216,-3.0216,-3.0216,-3.0216,-3.0216,-3.0216,-3.0216,-3.0216,-3.0193,-2.9952,-2.9527,-2.9297,-2.8792,-2.8012,-2.7862,-2.7587,-2.7293,-2.719,-2.719,-2.719,-2.719,-2.719,-2.719,-2.719,-2.719,-2.719,-2.719,-2.719,-2.719,-2.719,-2.719,-2.719,-2.719,-2.7144,-2.7151,-2.6703,-2.6318,-2.5922,-2.5739,-2.5451,-2.5187,-2.4958,-2.4751,-2.443,-2.4223,-2.4189,-2.4189,-2.4189,-2.4189,-2.4189,-2.4189,-2.4189,-2.4189,-2.4189,-2.4303,-2.4315,-2.4315,-2.4223,-2.4235,-2.4384,-2.451,-2.4659,-2.4568,-2.4579,-2.4705,-2.4912,-2.5084,-2.5222,-2.5589,-2.5819,-2.606,-2.6335,-2.6508,-2.676,-2.7375,-2.806,-2.8821,-2.9535,-3.0126,-3.0198,-3.0366,-3.0257,-3.0061,-2.981,-2.9497,-2.9418,-2.9405,-2.9301,-2.8987,-2.8739,-2.8647,-2.8347,-2.7973,-2.779,-2.7594,-2.7594,-2.7555,-2.7594,-2.7542,-2.7503,-2.7503,-2.7529,-2.7438,-2.7281,-2.7092,-2.6883,-2.6804,-2.6667,-2.6459,-2.6328,-2.6106,-2.5929,-3.0216,-3.0216,-3.0216,-3.0216,-3.0216,-3.0216,-3.0216,-3.0216,-3.0216,-3.0216,-3.0216,-3.0193,-2.994,-2.947,-2.8976,-2.8517,-2.7931,-2.7483,-2.7282,-2.7224,-2.719,-2.719,-2.719,-2.719,-2.719,-2.719,-2.719,-2.719,-2.719,-2.719,-2.719,-2.719,-2.719,-2.719,-2.719,-2.719,-2.719,-2.711,-2.6783,-2.6605,-2.6313,-2.6094,-2.5784,-2.5601,-2.5222,-2.4889,-2.4843,-2.4556,-2.4395,-2.4395,-2.4418,-2.4315,-2.4349,-2.4326,-2.4326,-2.4326,-2.4315,-2.4499,-2.4705,-2.4522,-2.4269,-2.4338,-2.4613,-2.5027,-2.5279,-2.5497,-2.5566,-2.5463,-2.5532,-2.5635,-2.5796,-2.6071,-2.637,-2.6531,-2.6726,-2.6875,-2.7019,-2.7227,-2.7931,-2.8633,-2.9275,-2.978,-3.0317,-3.0414,-3.0546,-3.0375,-3.0296,-3.0032,-2.9876,-2.9849,-2.9954,-2.9771,-2.9431,-2.9222,-2.9074,-2.8712,-2.8242,-2.8059,-2.8046,-2.7868,-2.7751,-2.7673,-2.7777,-2.7607,-2.7646,-2.7568,-2.749,-2.7294,-2.7249,-2.7372,-2.7307,-2.6994,-2.685,-2.6765,-2.6543,-3.0216,-3.0216,-3.0216,-3.0216,-3.0216,-3.0216,-3.0216,-3.0216,-3.0216,-3.0216,-3.0216,-3.0181,-2.9768,-2.9137,-2.8815,-2.8253,-2.7587,-2.7316,-2.7213,-2.719,-2.719,-2.719,-2.719,-2.719,-2.719,-2.719,-2.719,-2.719,-2.719,-2.719,-2.719,-2.719,-2.719,-2.719,-2.719,-2.719,-2.719,-2.7156,-2.7007,-2.6932,-2.6887,-2.6772,-2.6496,-2.614,-2.606,-2.5681,-2.5451,-2.5256,-2.5164,-2.5107,-2.5073,-2.49,-2.4659,-2.4636,-2.4613,-2.4613,-2.4613,-2.4877,-2.5199,-2.4992,-2.4786,-2.5119,-2.5314,-2.5509,-2.5807,-2.5739,-2.5716,-2.5773,-2.6026,-2.6163,-2.6283,-2.6611,-2.6944,-2.699,-2.703,-2.7144,-2.726,-2.7371,-2.7684,-2.8379,-2.8882,-2.9341,-2.9896,-3.0419,-3.058,-3.0651,-3.0623,-3.0581,-3.0398,-3.0268,-3.0346,-3.0218,-2.9889,-2.9562,-2.9379,-2.8987,-2.8569,-2.8503,-2.8464,-2.8386,-2.8247,-2.8286,-2.8299,-2.8085,-2.7798,-2.7686,-2.762,-2.7529,-2.7503,-2.749,-2.749,-2.7425,-2.7333,-2.7288,-2.704,-3.0216,-3.0216,-3.0216,-3.0216,-3.0216,-3.0216,-3.0216,-3.0216,-3.0216,-3.0216,-3.0216,-3.0181,-2.9757,-2.9114,-2.8919,-2.8413,-2.777,-2.7483,-2.7357,-2.7247,-2.719,-2.719,-2.719,-2.719,-2.719,-2.719,-2.719,-2.719,-2.719,-2.719,-2.719,-2.719,-2.719,-2.719,-2.719,-2.719,-2.719,-2.719,-2.719,-2.719,-2.7167,-2.7133,-2.7041,-2.6668,-2.6496,-2.6295,-2.5934,-2.5727,-2.5601,-2.5601,-2.5589,-2.5474,-2.5233,-2.5038,-2.5015,-2.505,-2.5084,-2.5245,-2.5601,-2.5532,-2.5417,-2.5784,-2.5888,-2.6014,-2.6117,-2.6113,-2.6273,-2.629,-2.6542,-2.6691,-2.6691,-2.699,-2.7098,-2.7087,-2.7098,-2.719,-2.7231,-2.7342,-2.7667,-2.8111,-2.8526,-2.891,-2.9613,-3.0165,-3.052,-3.0706,-3.0843,-3.0803,-3.0777,-3.0686,-3.0686,-3.0516,-3.0228,-2.9915,-2.9614,-2.9274,-2.8987,-2.8935,-2.8922,-2.9026,-2.8987,-2.9013,-2.8908,-2.8686,-2.8373,-2.7981,-2.7751,-2.7699,-2.7594,-2.7503,-2.7503,-2.7503,-2.7477,-2.7372,-2.7314,-3.0216,-3.0216,-3.0216,-3.0216,-3.0216,-3.0216,-3.0216,-3.0216,-3.0216,-3.0216,-3.0216,-3.0204,-2.9929,-2.9481,-2.9355,-2.8758,-2.8035,-2.7862,-2.7667,-2.727,-2.719,-2.719,-2.719,-2.719,-2.719,-2.719,-2.719,-2.719,-2.719,-2.719,-2.719,-2.719,-2.719,-2.719,-2.719,-2.719,-2.719,-2.719,-2.719,-2.719,-2.719,-2.719,-2.7121,-2.7036,-2.6783,-2.6542,-2.6427,-2.6175,-2.606,-2.5986,-2.5991,-2.5888,-2.5704,-2.5314,-2.5325,-2.5635,-2.5256,-2.5532,-2.6278,-2.5934,-2.606,-2.637,-2.645,-2.6588,-2.6949,-2.7064,-2.6949,-2.6789,-2.7007,-2.7087,-2.7144,-2.7156,-2.7179,-2.719,-2.719,-2.719,-2.7231,-2.7219,-2.7545,-2.7748,-2.8059,-2.8486,-2.9275,-2.9896,-3.0355,-3.0697,-3.0898,-3.0986,-3.0986,-3.096,-3.0895,-3.079,-3.0516,-3.0385,-3.0072,-2.9666,-2.9418,-2.9353,-2.9493,-2.9702,-2.9732,-2.9732,-2.9575,-2.9336,-2.8974,-2.8608,-2.8242,-2.7915,-2.7686,-2.7503,-2.7503,-2.7503,-2.7503,-2.7477,-2.7385,-3.0216,-3.0216,-3.0216,-3.0216,-3.0216,-3.0216,-3.0216,-3.0216,-3.0216,-3.0216,-3.0216,-3.0216,-2.9952,-2.9619,-2.9435,-2.8999,-2.8184,-2.7966,-2.7702,-2.727,-2.727,-2.719,-2.7201,-2.7247,-2.7213,-2.719,-2.719,-2.719,-2.719,-2.719,-2.719,-2.719,-2.719,-2.719,-2.719,-2.719,-2.719,-2.719,-2.719,-2.719,-2.719,-2.719,-2.719,-2.7179,-2.7013,-2.6921,-2.6909,-2.6645,-2.656,-2.6548,-2.6537,-2.6485,-2.6267,-2.5888,-2.5991,-2.6186,-2.5957,-2.6255,-2.6783,-2.6795,-2.6795,-2.6909,-2.6944,-2.7013,-2.7179,-2.719,-2.719,-2.719,-2.719,-2.719,-2.7179,-2.7179,-2.719,-2.719,-2.719,-2.719,-2.719,-2.719,-2.7313,-2.7423,-2.7655,-2.8099,-2.8724,-2.9275,-2.9767,-3.0203,-3.0432,-3.0785,-3.0911,-3.0986,-3.0947,-3.0947,-3.083,-3.0764,-3.0568,-3.0215,-3.0124,-3.02,-3.0357,-3.0566,-3.0542,-3.0372,-3.0189,-2.9915,-2.9575,-2.9235,-2.8569,-2.7981,-2.7659,-2.7503,-2.7503,-2.7503,-2.7503,-2.7503,-2.7477,-3.0216,-3.0216,-3.0216,-3.0216,-3.0216,-3.0216,-3.0216,-3.0216,-3.0216,-3.0216,-3.0216,-3.0204,-3.0067,-2.9814,-2.9676,-2.9378,-2.8551,-2.8505,-2.823,-2.7793,-2.7717,-2.766,-2.7587,-2.7408,-2.7362,-2.727,-2.719,-2.719,-2.719,-2.719,-2.719,-2.719,-2.719,-2.719,-2.719,-2.719,-2.719,-2.719,-2.719,-2.719,-2.719,-2.719,-2.719,-2.719,-2.7156,-2.7167,-2.7179,-2.719,-2.719,-2.719,-2.7133,-2.703,-2.6783,-2.6577,-2.66,-2.6657,-2.676,-2.6909,-2.7064,-2.7133,-2.7075,-2.7133,-2.719,-2.719,-2.719,-2.719,-2.719,-2.719,-2.719,-2.719,-2.719,-2.719,-2.719,-2.719,-2.719,-2.719,-2.719,-2.719,-2.719,-2.726,-2.7342,-2.7777,-2.8139,-2.8605,-2.9106,-2.9496,-2.9883,-3.0317,-3.0748,-3.0911,-3.0986,-3.0973,-3.0973,-3.0895,-3.0882,-3.0817,-3.0828,-3.0998,-3.1024,-3.1024,-3.0985,-3.0712,-3.0607,-3.0477,-3.0045,-2.9483,-2.8608,-2.8033,-2.7686,-2.7529,-2.7503,-2.7503,-2.7503,-2.7503,-2.7503,-3.0216,-3.0216,-3.0216,-3.0216,-3.0216,-3.0216,-3.0216,-3.0216,-3.0216,-3.0216,-3.0216,-3.0216,-3.0158,-3.0193,-3.0193,-2.986,-2.9412,-2.9355,-2.8987,-2.8677,-2.8425,-2.8241,-2.8012,-2.7874,-2.7587,-2.7305,-2.719,-2.719,-2.719,-2.719,-2.719,-2.719,-2.719,-2.719,-2.719,-2.719,-2.719,-2.719,-2.719,-2.719,-2.719,-2.719,-2.719,-2.719,-2.719,-2.719,-2.719,-2.719,-2.719,-2.719,-2.7179,-2.7179,-2.7018,-2.6749,-2.6909,-2.7007,-2.7121,-2.7156,-2.7167,-2.719,-2.719,-2.719,-2.719,-2.719,-2.719,-2.719,-2.719,-2.719,-2.719,-2.719,-2.719,-2.719,-2.719,-2.719,-2.719,-2.719,-2.719,-2.719,-2.719,-2.7231,-2.7231,-2.7464,-2.7788,-2.8179,-2.8486,-2.8882,-2.9353,-2.9883,-3.0343,-3.0898,-3.0949,-3.1024,-3.0986,-3.1024,-3.1024,-3.1024,-3.1024,-3.1024,-3.1024,-3.1024,-3.1024,-3.1024,-3.0856,-3.066,-3.0335,-2.9735,-2.8922,-2.8229,-2.7673,-2.7568,-2.7516,-2.7503,-2.7503,-2.7503,-2.7503,-3.0216,-3.0216,-3.0216,-3.0216,-3.0216,-3.0216,-3.0216,-3.0216,-3.0216,-3.0216,-3.0216,-3.0216,-3.0216,-3.0216,-3.0216,-2.9917,-2.9676,-2.9424,-2.9114,-2.8919,-2.885,-2.8425,-2.8149,-2.7989,-2.7667,-2.7351,-2.719,-2.719,-2.719,-2.719,-2.719,-2.719,-2.719,-2.719,-2.719,-2.719,-2.719,-2.719,-2.719,-2.719,-2.719,-2.719,-2.719,-2.719,-2.719,-2.719,-2.719,-2.719,-2.719,-2.719,-2.719,-2.719,-2.7156,-2.7052,-2.7121,-2.7144,-2.7179,-2.719,-2.719,-2.719,-2.719,-2.719,-2.719,-2.719,-2.719,-2.719,-2.719,-2.719,-2.719,-2.719,-2.719,-2.719,-2.719,-2.719,-2.719,-2.719,-2.719,-2.719,-2.719,-2.719,-2.719,-2.7231,-2.7516,-2.7545,-2.7898,-2.8299,-2.8816,-2.9367,-2.9986,-3.0583,-3.0936,-3.0986,-3.1024,-3.1024,-3.1024,-3.1024,-3.1024,-3.1024,-3.1024,-3.1024,-3.1024,-3.1024,-3.1024,-3.079,-3.0451,-2.9915,-2.9271,-2.8634,-2.8111,-2.7633,-2.7529,-2.7516,-2.7503,-2.7503,-2.7503,-3.0216,-3.0216,-3.0216,-3.0216,-3.0216,-3.0216,-3.0216,-3.0216,-3.0216,-3.0216,-3.0216,-3.0216,-3.0216,-3.0216,-3.0204,-3.0067,-2.9848,-2.9825,-2.9642,-2.9504,-2.9194,-2.8861,-2.8528,-2.8161,-2.7839,-2.7483,-2.719,-2.719,-2.719,-2.719,-2.719,-2.719,-2.719,-2.719,-2.719,-2.719,-2.719,-2.719,-2.719,-2.719,-2.719,-2.719,-2.719,-2.719,-2.719,-2.719,-2.719,-2.719,-2.719,-2.719,-2.719,-2.719,-2.719,-2.7179,-2.7179,-2.719,-2.719,-2.719,-2.719,-2.719,-2.719,-2.719,-2.719,-2.719,-2.719,-2.719,-2.719,-2.719,-2.719,-2.719,-2.719,-2.719,-2.719,-2.719,-2.719,-2.719,-2.719,-2.719,-2.719,-2.719,-2.719,-2.719,-2.7231,-2.719,-2.7342,-2.7846,-2.8486,-2.9106,-2.9793,-3.047,-3.0823,-3.0986,-3.1024,-3.1024,-3.1024,-3.1024,-3.1024,-3.1024,-3.1024,-3.1024,-3.1024,-3.1024,-3.1024,-3.0777,-3.049,-3.0006,-2.9562,-2.9104,-2.8621,-2.8177,-2.7798,-2.7725,-2.7659,-2.7503,-2.7503,-3.0216,-3.0216,-3.0216,-3.0216,-3.0216,-3.0216,-3.0216,-3.0216,-3.0216,-3.0216,-3.0216,-3.0216,-3.0216,-3.0216,-3.0216,-3.0135,-2.9963,-2.9917,-2.978,-3.0055,-2.9665,-2.9183,-2.8654,-2.8551,-2.792,-2.7419,-2.719,-2.719,-2.719,-2.719,-2.719,-2.719,-2.719,-2.719,-2.719,-2.719,-2.719,-2.719,-2.719,-2.719,-2.719,-2.719,-2.719,-2.719,-2.719,-2.719,-2.719,-2.719,-2.719,-2.719,-2.719,-2.719,-2.719,-2.719,-2.719,-2.719,-2.719,-2.719,-2.719,-2.719,-2.719,-2.719,-2.719,-2.719,-2.719,-2.719,-2.719,-2.719,-2.719,-2.719,-2.719,-2.719,-2.719,-2.719,-2.719,-2.719,-2.719,-2.719,-2.719,-2.719,-2.719,-2.719,-2.719,-2.719,-2.726,-2.7644,-2.8115,-2.8791,-2.9457,-3.0203,-3.0672,-3.0911,-3.1024,-3.1024,-3.1024,-3.1024,-3.1024,-3.1024,-3.1024,-3.1024,-3.1024,-3.1024,-3.1024,-3.0817,-3.0647,-3.0359,-2.9967,-2.9549,-2.9131,-2.8647,-2.8307,-2.8085,-2.7902,-2.7712,-2.7542,-3.0216,-3.0216,-3.0216,-3.0216,-3.0216,-3.0216,-3.0204,-3.0216,-3.0216,-3.0216,-3.0216,-3.0216,-3.0216,-3.0216,-3.0216,-3.0089,-2.9802,-2.9848,-2.9447,-2.9309,-2.924,-2.901,-2.8299,-2.8218,-2.7816,-2.7396,-2.719,-2.7247,-2.7259,-2.7236,-2.719,-2.719,-2.719,-2.719,-2.719,-2.719,-2.719,-2.719,-2.719,-2.719,-2.719,-2.719,-2.719,-2.719,-2.719,-2.719,-2.719,-2.719,-2.719,-2.719,-2.719,-2.719,-2.719,-2.719,-2.719,-2.719,-2.719,-2.719,-2.719,-2.719,-2.719,-2.719,-2.719,-2.719,-2.719,-2.719,-2.719,-2.719,-2.719,-2.719,-2.719,-2.719,-2.719,-2.719,-2.719,-2.719,-2.719,-2.719,-2.719,-2.719,-2.719,-2.719,-2.719,-2.7219,-2.7301,-2.7574,-2.7966,-2.8514,-2.9028,-2.969,-3.0394,-3.071,-3.0949,-3.1024,-3.1024,-3.1024,-3.1024,-3.1024,-3.1024,-3.1024,-3.1024,-3.1024,-3.1024,-3.1011,-3.083,-3.0581,-3.0346,-3.0061,-2.9653,-2.9183,-2.8817,-2.8595,-2.8347,-2.8164,-2.7876,-2.955,-2.9538,-2.9538,-2.955,-2.9584,-2.9791,-2.9894,-2.994,-3.0124,-3.0216,-3.0216,-3.0216,-3.0216,-3.0216,-3.0216,-3.0101,-2.9791,-2.9837,-2.9619,-2.924,-2.8838,-2.862,-2.8287,-2.7943,-2.7885,-2.7598,-2.7575,-2.7575,-2.7506,-2.7247,-2.719,-2.719,-2.719,-2.719,-2.719,-2.719,-2.719,-2.719,-2.719,-2.719,-2.719,-2.719,-2.719,-2.719,-2.719,-2.719,-2.719,-2.719,-2.719,-2.719,-2.719,-2.719,-2.719,-2.719,-2.719,-2.719,-2.719,-2.719,-2.719,-2.719,-2.719,-2.719,-2.719,-2.719,-2.719,-2.719,-2.719,-2.719,-2.719,-2.719,-2.719,-2.719,-2.719,-2.719,-2.719,-2.719,-2.719,-2.719,-2.719,-2.719,-2.719,-2.719,-2.719,-2.719,-2.726,-2.7342,-2.7777,-2.8099,-2.8605,-2.9106,-2.9819,-3.0406,-3.0672,-3.0911,-3.1024,-3.1024,-3.1024,-3.1024,-3.1024,-3.1024,-3.1024,-3.1024,-3.1024,-3.1011,-3.0985,-3.0856,-3.0634,-3.0451,-3.0166,-2.9771,-2.9405,-2.9091,-2.8856,-2.8634,-2.8451,-2.8735,-2.87,-2.8804,-2.8827,-2.8884,-2.9378,-2.963,-2.9699,-3.0032,-3.0216,-3.0216,-3.0216,-3.0216,-3.0216,-3.0216,-3.017,-3.0067,-2.9883,-2.9688,-2.9251,-2.9125,-2.8459,-2.8023,-2.7828,-2.7805,-2.7874,-2.7897,-2.7897,-2.7874,-2.7518,-2.719,-2.719,-2.719,-2.719,-2.719,-2.719,-2.719,-2.719,-2.719,-2.719,-2.719,-2.719,-2.719,-2.719,-2.719,-2.719,-2.719,-2.719,-2.719,-2.719,-2.719,-2.719,-2.719,-2.719,-2.719,-2.719,-2.719,-2.719,-2.719,-2.719,-2.719,-2.719,-2.719,-2.719,-2.719,-2.719,-2.719,-2.719,-2.719,-2.719,-2.719,-2.719,-2.719,-2.719,-2.719,-2.719,-2.719,-2.719,-2.719,-2.719,-2.719,-2.719,-2.719,-2.719,-2.7254,-2.7324,-2.7487,-2.7788,-2.8179,-2.8645,-2.9184,-2.9806,-3.0241,-3.0508,-3.0911,-3.1024,-3.1024,-3.1024,-3.1024,-3.1024,-3.1024,-3.1024,-3.1024,-3.1024,-3.0947,-3.0908,-3.0921,-3.0817,-3.0542,-3.0231,-2.9865,-2.9513,-2.9366,-2.917,-2.9091,-2.8689,-2.8723,-2.916,-2.932,-2.9389,-2.9848,-3.0078,-3.0089,-3.0147,-3.0216,-3.0216,-3.0216,-3.0216,-3.0216,-3.0216,-3.0112,-2.9871,-2.9791,-2.9056,-2.8367,-2.8689,-2.8092,-2.769,-2.7793,-2.7725,-2.7931,-2.8149,-2.8035,-2.8184,-2.7679,-2.7224,-2.7293,-2.727,-2.7259,-2.7236,-2.7247,-2.727,-2.727,-2.7213,-2.719,-2.719,-2.719,-2.719,-2.719,-2.719,-2.719,-2.719,-2.719,-2.719,-2.719,-2.719,-2.719,-2.719,-2.719,-2.719,-2.719,-2.719,-2.719,-2.719,-2.719,-2.719,-2.719,-2.719,-2.719,-2.719,-2.719,-2.719,-2.719,-2.719,-2.719,-2.719,-2.719,-2.719,-2.719,-2.719,-2.719,-2.719,-2.719,-2.719,-2.719,-2.719,-2.719,-2.719,-2.7224,-2.7305,-2.7398,-2.7479,-2.7754,-2.7976,-2.8333,-2.8718,-2.9246,-2.9855,-3.0394,-3.0874,-3.0986,-3.1024,-3.1024,-3.1024,-3.1024,-3.1024,-3.1024,-3.1024,-3.1024,-3.1024,-3.0998,-3.1024,-3.1024,-3.0908,-3.0634,-3.0257,-2.9957,-2.9774,-2.9673,-2.9585]},{"header":{"parameterUnit":"m.s-1","parameterCategory":1,"la1":31.0,"la2":29.5877,"lo1":-88.7671,"lo2":-86.6584,"dy":0.0162,"dx":0.0185,"nx":115,"ny":88,"refTime":"2026-05-13T12:00:00:Z","depth":0,"parameterNumber":3,"parameterNumberName":"V-component_of_WINDS"},"data":[0.0,0.0,0.0,0.0,0.0,0.0,0.0,0.0,0.0,0.0,0.0,0.0,0.0,0.0,0.0,0.0,0.0,0.0,0.0,0.0,0.0,0.0,0.0,0.0,0.0,0.0,0.0,0.0,0.0,0.0,0.0,0.0,0.0,0.0,0.0,0.0,0.0,0.0,0.0,0.0,0.0,0.0,0.0,0.0,0.0,0.0,0.0,0.0,0.0,0.0,0.0,0.0,0.0,0.0,0.0,0.0,0.0,0.0,0.0,0.0,0.0,0.0,0.0,0.0,0.0,0.0,0.0,0.0,0.0,0.0,0.0,0.0,0.0,0.0,0.0,0.0,0.0,0.0,0.0,0.0,0.0,0.0,0.0,0.0,0.0,0.0,0.0,0.0,0.0,0.0,0.0,0.0,0.0,0.0,0.0,0.0,0.0,0.0,0.0,0.0,0.0,0.0,0.0,0.0,0.0,0.0,0.0,0.0,0.0,0.0,0.0,0.0,0.0,0.0,0.0,0.0,0.0,0.0,0.0,0.0,0.0,0.0,0.0,0.0,0.0,0.0,0.0,0.0,0.0,0.0,0.0,0.0,0.0,0.0,0.0,0.0,0.0,0.0,0.0,0.0,0.0,0.0,0.0,0.0,0.0,0.0,0.0,0.0,0.0,0.0,0.0,0.0,0.0,0.0,0.0,0.0,0.0,0.0,0.0,0.0,0.0,0.0,0.0,0.0,0.0,0.0,0.0,0.0,0.0,0.0,0.0,0.0,0.0,0.0,0.0,0.0,0.0,0.0,0.0,0.0,0.0,0.0,0.0,0.0,0.0,0.0,0.0,0.0,0.0,0.0,0.0,0.0,0.0,0.0,0.0,0.0,0.0,0.0,0.0,0.0,0.0,0.0,0.0,0.0,0.0,0.0,0.0,0.0,0.0,0.0,0.0,0.0,0.0,0.0,0.0,0.0,0.0,0.0,0.0,0.0,0.0,0.0,0.0,0.0,0.0,0.0,0.0,0.0,0.0,0.0,0.0,0.0,0.0,0.0,0.0,0.0,0.0,0.0,0.0,0.0,0.0,0.0,0.0,0.0,0.0,0.0,0.0,0.0,0.0,0.0,0.0,0.0,0.0,0.0,0.0,0.0,0.0,0.0,0.0,0.0,0.0,0.0,0.0,0.0,0.0,0.0,0.0,0.0,0.0,0.0,0.0,0.0,0.0,0.0,0.0,0.0,0.0,0.0,0.0,0.0,0.0,0.0,0.0,0.0,0.0,0.0,0.0,0.0,0.0,0.0,0.0,0.0,0.0,0.0,0.0,0.0,0.0,0.0,0.0,0.0,0.0,0.0,0.0,0.0,0.0,0.0,0.0,0.0,0.0,0.0,0.0,0.0,0.0,0.0,0.0,0.0,0.0,0.0,0.0,0.0,0.0,0.0,0.0,0.0,0.0,0.0,0.0,0.0,0.0,0.0,0.0,0.0,0.0,0.0,0.0,0.0,0.0,0.0,0.0,0.0,0.0,0.0,0.0,0.0,0.0,0.0,0.0,0.0,0.0,0.0,0.0,0.0,0.0,0.0,0.0,0.0,0.0,0.0,0.0,0.0,0.0,0.0,0.0,0.0,0.0,0.0,0.0,0.0,0.0,0.0,0.0,0.0,0.0,0.0,0.0,0.0,0.0,0.0,0.0,0.0,0.0,0.0,0.0,0.0,0.0,0.0,0.0,0.0,0.0,0.0,0.0,0.0,0.0,0.0,0.0,0.0,0.0,0.0,0.0,0.0,0.0,0.0,0.0,0.0,0.0,0.0,0.0,0.0,0.0,0.0,0.0,0.0,0.0,0.0,0.0,0.0,0.0,0.0,0.0,0.0,0.0,0.0,0.0,0.0,0.0,0.0,0.0,0.0,0.0,0.0,0.0,0.0,0.0,0.0,0.0,0.0,0.0,0.0,0.0,0.0,0.0,0.0,0.0,0.0,0.0,0.0,0.0,0.0,0.0,0.0,0.0,0.0,0.0,0.0,0.0,0.0,0.0,0.0,0.0,0.0,0.0,0.0,0.0,0.0,0.0,0.0,0.0,0.0,0.0,0.0,0.0,0.0,0.0,0.0,0.0,0.0,0.0,0.0,0.0,0.0,0.0,0.0,0.0,0.0,0.0,0.0,0.0,0.0,0.0,0.0,0.0,0.0,0.0,0.0,0.0,0.0,0.0,0.0,0.0,0.0,0.0,0.0,0.0,0.0,0.0,0.0,0.0,0.0,0.0,0.0,0.0,0.0,0.0,0.0,0.0,0.0,0.0,0.0,0.0,0.0,0.0,0.0,0.0,0.0,0.0,0.0,0.0,0.0,0.0,0.0,0.0,0.0,0.0,0.0,0.0,0.0,0.0,0.0,0.0,0.0,0.0,0.0,0.0,0.0,0.0,0.0,0.0,0.0,0.0,0.0,0.0,0.0,0.0,0.0,0.0,0.0,0.0,0.0,0.0,0.0,0.0,0.0,0.0,0.0,0.0,0.0,0.0,0.0,0.0,0.0,0.0,0.0,0.0,0.0,0.0,0.0,0.0,0.0,0.0,0.0,0.0,0.0,0.0,0.0,0.0,0.0,0.0,0.0,0.0,0.0,0.0,0.0,0.0,0.0,0.0,0.0,0.0,0.0,0.0,0.0,0.0,0.0,0.0,0.0,0.0,0.0,0.0,0.0,0.0,0.0,0.0,0.0,0.0,0.0,0.0,0.0,0.0,0.0,0.0,0.0,0.0,0.0,0.0,0.0,0.0,0.0,0.0,0.0,0.0,0.0,0.0,0.0,0.0,0.0,0.0,0.0,0.0,0.0,0.0,0.0,0.0,0.0,0.0,0.0,0.0,0.0,0.0,0.0,0.0,0.0,0.0,0.0,0.0,0.0,0.0,0.0,0.0,0.0,0.0,0.0,0.0,0.0,0.0,0.0,0.0,0.0,0.0,0.0,0.0,0.0,0.0,0.0,0.0,0.0,0.0,0.0,0.0,0.0,0.0,0.0,0.0,0.0,0.0,0.0,0.0,0.0,0.0,0.0,0.0,0.0,0.0,0.0,0.0,0.0,0.0,0.0,0.0,0.0,0.0,0.0,0.0,0.0,0.0,0.0,0.0,0.0,0.0,0.0,0.0,0.0,0.0,0.0,0.0,0.0,0.0,0.0,0.0,0.0,0.0,0.0,0.0,0.0,0.0,0.0,0.0,0.0,0.0,0.0,0.0,0.0,0.0,0.0,0.0,0.0,0.0,0.0,0.0,0.0,0.0,0.0,0.0,0.0,0.0,0.0,0.0,0.0,0.0,0.0,0.0,0.0,0.0,0.0,0.0,0.0,0.0,0.0,0.0,0.0,0.0,0.0,0.0,0.0,0.0,0.0,0.0,0.0,0.0,0.0,0.0,0.0,0.0,0.0,0.0,0.0,0.0,0.0,0.0,0.0,0.0,0.0,0.0,0.0,0.0,0.0,0.0,0.0,0.0,0.0,0.0,0.0,0.0,0.0,0.0,0.0,0.0,0.0,0.0,0.0,0.0,0.0,0.0,0.0,0.0,0.0,0.0,0.0,0.0,0.0,0.0,0.0,0.0,0.0,0.0,0.0,0.0,0.0,0.0,0.0,0.0,0.0,0.0,0.0,0.0,0.0,0.0,0.0,0.0,0.0,0.0,0.0,0.0,0.0,0.0,0.0,0.0,0.0,0.0,0.0,0.0,0.0,0.0,0.0,0.0,0.0,0.0,0.0,0.0,0.0,0.0,0.0,0.0,0.0,0.0,0.0,0.0,0.0,0.0,0.0,0.0,0.0,0.0,0.0,0.0,0.0,0.0,0.0,0.0,0.0,0.0,0.0,0.0,0.0,0.0,0.0,0.0,0.0,0.0,0.0,0.0,0.0,0.0,0.0,0.0,0.0,0.0,0.0,0.0,0.0,0.0,0.0,0.0,0.0,0.0,0.0,0.0,0.0,0.0,0.0,0.0,0.0,0.0,0.0,0.0,0.0,0.0,0.0,0.0,0.0,0.0,0.0,0.0,0.0,0.0,0.0,0.0,0.0,0.0,0.0,0.0,0.0,0.0,0.0,0.0,0.0,0.0,0.0,0.0,0.0,0.0,0.0,0.0,0.0,0.0,0.0,0.0,0.0,0.0,0.0,0.0,0.0,0.0,0.0,0.0,0.0,0.0,0.0,0.0,0.0,0.0,0.0,0.0,0.0,0.0,0.0,0.0,0.0,0.0,0.0,0.0,0.0,0.0,0.0,0.0,0.0,0.0,0.0,1.0413,0.0,0.0,0.0,0.0,0.0,0.0,0.0,0.0,0.0,0.0,0.0,0.0,0.0,0.0,0.0,0.0,0.0,0.0,0.0,0.0,0.0,0.0,0.0,0.0,0.0,0.0,0.0,0.0,0.0,0.0,0.0,0.0,0.0,0.0,0.0,0.0,0.0,0.0,0.0,0.0,0.0,0.0,0.0,0.0,0.0,0.0,0.0,0.0,0.0,0.0,0.0,0.0,0.0,0.0,0.0,0.0,0.0,0.0,0.0,0.0,0.0,0.0,0.0,0.0,0.0,0.0,0.0,0.0,0.0,0.0,0.0,0.0,0.0,0.0,0.0,0.0,0.0,0.0,0.0,0.0,0.0,0.0,0.0,0.0,0.0,0.0,0.0,0.0,0.0,0.0,0.0,0.0,0.0,0.0,0.0,0.0,0.0,0.0,0.0,0.0,0.0,0.0,0.0,0.0,0.0,0.0,0.0,0.0,0.0,0.0,1.3087,1.2628,1.1994,1.1288,1.052,0.0,0.0,0.0,0.0,0.0,0.0,0.0,0.0,0.0,0.0,0.0,0.0,0.0,0.0,0.0,0.0,0.0,0.0,0.0,0.0,0.0,0.0,0.0,0.0,0.0,0.0,0.0,0.0,0.0,0.0,0.0,0.0,0.0,0.0,0.0,0.0,0.0,0.0,0.0,0.0,0.0,0.0,0.0,0.0,0.0,0.0,0.0,0.0,0.0,0.0,0.0,0.0,0.0,0.0,0.0,0.0,0.0,0.0,0.0,0.0,0.0,0.0,0.0,0.0,0.0,0.0,0.0,0.0,0.0,0.0,0.0,0.0,0.0,0.0,0.0,0.0,0.0,0.0,0.0,0.0,0.0,0.0,0.0,0.0,0.0,0.0,0.0,0.0,0.0,0.0,0.0,0.0,0.0,0.0,0.0,0.0,0.0,0.0,0.0,0.0,0.0,0.0,0.0,0.0,0.0,0.0,0.0,0.0,0.0,0.0,0.0,0.0,1.2628,1.183,1.0554,0.0,0.0,0.0,0.0,0.0,0.0,0.0,0.0,0.0,0.0,0.0,0.0,0.0,0.0,0.0,0.0,0.0,0.0,0.0,0.0,0.0,0.0,0.0,0.0,0.0,0.0,0.0,0.0,0.0,0.0,0.0,0.0,0.0,0.0,0.0,0.0,0.0,0.0,0.0,0.0,0.0,0.0,0.0,0.0,0.0,0.0,0.0,0.0,0.0,0.0,0.0,0.0,0.0,0.0,0.0,0.0,0.0,0.0,0.0,0.0,0.0,0.0,0.0,0.0,0.0,0.0,0.0,0.0,0.0,0.0,0.0,0.0,0.0,0.0,0.0,0.0,0.0,0.0,0.0,0.0,0.0,0.0,0.0,0.0,0.0,0.0,0.0,0.0,0.0,0.0,0.0,0.0,0.0,0.0,0.0,0.0,0.0,0.0,0.0,0.0,0.0,0.0,0.0,0.0,0.0,0.0,0.0,0.0,0.0,0.0,1.3765,1.3437,1.27,0.0,1.0509,0.0,0.0,0.0,0.0,0.0,0.0,0.0,0.0,0.0,0.0,0.0,0.0,0.0,0.0,0.0,0.0,0.0,0.0,0.0,0.0,0.0,0.0,0.0,0.0,0.0,0.0,0.0,0.0,0.0,0.0,0.0,0.0,0.0,0.0,0.0,0.0,0.0,0.0,0.0,0.0,0.0,0.0,0.0,0.0,0.0,0.0,0.0,0.0,0.0,0.0,0.0,0.0,0.0,0.0,0.0,0.0,0.0,0.0,0.0,0.0,0.0,0.0,0.0,0.0,0.0,0.0,0.0,0.0,0.0,0.0,0.0,0.0,0.0,0.0,0.0,0.0,0.0,0.0,0.0,0.0,0.0,0.0,0.0,0.0,0.0,0.0,0.0,0.0,0.0,0.0,0.0,0.0,0.0,0.0,0.0,0.0,0.0,0.0,0.0,0.0,0.0,0.0,0.0,0.0,0.0,0.0,0.0,0.0,0.0,0.0,1.4166,1.4107,1.2772,1.1672,0.0,0.0,0.0,0.0,0.0,0.0,0.0,0.0,0.0,0.0,0.0,0.0,0.0,0.0,0.0,0.0,0.0,0.0,0.0,0.0,0.0,0.0,0.0,0.0,0.0,0.0,0.0,0.0,0.0,0.0,0.0,0.0,0.0,0.0,0.0,0.0,0.0,0.0,0.0,0.0,0.0,0.0,0.0,0.0,0.0,0.0,0.0,0.0,0.0,0.0,0.0,0.0,0.0,0.0,0.0,0.0,0.0,0.0,0.0,0.0,0.0,0.0,0.0,0.0,0.0,0.0,0.0,0.0,0.0,0.0,0.0,0.0,0.0,0.0,0.0,0.0,0.0,0.0,0.0,0.0,0.0,0.0,0.0,0.0,0.0,0.0,0.0,0.0,0.0,0.0,0.0,0.0,0.0,0.0,0.0,0.0,0.0,0.0,0.0,0.0,0.0,0.0,0.0,0.0,0.0,0.0,0.0,0.0,0.0,0.0,1.4463,1.4276,1.4075,1.2543,1.15,1.1126,0.0,0.0,0.0,0.0,0.0,0.0,0.0,0.0,0.0,0.0,0.0,0.0,0.0,0.0,0.0,0.0,0.0,0.0,0.0,0.0,0.0,0.0,0.0,0.0,0.0,0.0,0.0,0.0,0.0,0.0,0.0,0.0,0.0,0.0,0.0,0.0,0.0,0.0,0.0,0.0,0.0,0.0,0.0,0.0,0.0,0.0,0.0,0.0,0.0,0.0,0.0,0.0,0.0,0.0,0.0,0.0,0.0,0.0,0.0,0.0,0.0,0.0,0.0,0.0,0.0,0.0,0.0,0.0,0.0,0.0,0.0,0.0,0.0,0.0,0.0,0.0,0.0,0.0,0.0,0.0,0.0,0.0,0.0,0.0,0.0,0.0,0.0,0.0,0.0,0.0,0.0,0.0,0.0,0.0,0.0,0.0,0.0,0.0,0.0,0.0,0.0,0.0,0.0,0.0,0.0,0.0,0.0,0.0,1.4531,1.4319,1.3891,1.3287,1.1899,1.1123,0.0,0.0,0.0,0.0,0.0,0.0,0.0,0.0,0.0,0.0,0.0,0.0,0.0,0.0,0.0,0.0,0.0,0.0,0.0,0.0,0.0,0.0,0.0,0.0,0.0,0.0,0.0,0.0,0.0,0.0,0.0,0.0,0.0,0.0,0.0,0.0,0.0,0.0,0.0,0.0,0.0,0.0,0.0,0.0,0.0,0.0,0.0,0.0,0.0,0.0,0.0,0.0,0.0,0.0,0.0,0.0,0.0,0.0,0.0,0.0,0.0,0.0,0.0,0.0,0.0,0.0,0.0,0.0,0.0,0.0,0.0,0.0,0.0,0.0,0.0,0.0,0.0,0.0,0.0,0.0,0.0,0.0,0.0,0.0,0.0,0.0,0.0,0.0,0.0,0.0,0.0,0.0,0.0,0.0,0.0,0.0,0.0,0.0,0.0,0.0,0.0,0.0,0.0,0.0,0.0,0.0,0.0,0.0,0.0,1.4367,1.4305,1.3934,1.3198,1.2176,1.1451,0.0,0.0,0.0,0.0,0.0,0.0,0.0,0.0,0.0,0.0,0.0,0.0,0.0,0.0,0.0,0.0,0.0,0.0,0.0,0.0,0.0,0.0,0.0,0.0,0.0,0.0,0.0,0.0,0.0,0.0,0.0,0.0,0.0,0.0,0.0,0.0,0.0,0.0,0.0,0.0,0.0,0.0,0.0,0.0,0.0,0.0,0.0,0.0,0.0,0.0,0.0,0.0,0.0,0.0,0.0,0.0,0.0,0.0,0.0,0.0,0.0,0.0,0.0,0.0,0.0,0.0,0.0,0.0,0.0,0.0,0.0,0.0,0.0,0.0,0.0,0.0,0.0,0.0,0.0,0.0,0.0,0.0,0.0,0.0,0.0,0.0,0.0,0.0,0.0,0.0,0.0,0.0,0.0,0.0,0.0,0.0,0.0,0.0,0.0,0.0,0.0,0.0,0.0,0.0,0.0,0.0,0.0,0.0,0.0,1.4281,0.0,1.3812,1.3254,1.2234,1.1491,0.0,0.0,0.0,0.0,0.0,0.0,0.0,0.0,0.0,0.0,0.0,0.0,0.0,0.0,0.0,0.0,0.0,0.0,0.0,0.0,0.0,0.0,0.0,0.0,0.0,0.0,0.0,0.0,0.0,0.0,0.0,0.0,0.0,0.0,0.0,0.0,0.0,0.0,0.0,0.0,0.0,0.0,0.0,0.0,0.0,0.0,0.0,0.0,0.0,0.0,0.0,0.0,0.0,0.0,0.0,0.0,0.0,0.0,0.0,0.0,0.0,0.0,0.0,0.0,0.0,0.0,0.0,0.0,0.0,0.0,0.0,0.0,0.0,0.0,0.0,0.0,0.0,0.0,0.0,0.0,0.0,0.0,0.0,0.0,0.0,0.0,0.0,0.0,0.0,0.0,0.0,0.0,0.0,0.0,0.0,0.0,0.0,0.0,0.0,0.0,0.0,0.0,0.0,0.0,0.0,0.0,0.0,0.0,1.4362,1.4216,1.3838,1.3595,1.3395,1.2028,1.1216,0.0,0.0,0.0,0.0,0.0,0.0,0.0,0.0,0.0,0.0,0.0,0.0,0.0,0.0,0.0,0.0,0.0,0.0,0.0,0.0,0.0,0.0,0.0,0.0,0.0,0.0,0.0,0.0,0.0,0.0,0.0,0.0,0.0,0.0,0.0,0.0,0.0,0.0,0.0,0.0,0.0,0.0,0.0,0.0,0.0,0.0,0.0,0.0,0.0,0.0,0.0,0.0,0.0,0.0,0.0,0.0,0.0,0.0,0.0,0.0,0.0,0.0,0.0,0.0,0.0,0.0,0.0,0.0,0.0,0.0,0.0,0.0,0.0,0.0,0.0,0.0,0.0,0.0,0.0,0.0,0.0,0.0,0.0,0.0,0.0,0.0,0.0,0.0,0.0,0.0,0.0,0.0,0.0,0.0,0.0,0.0,0.0,0.0,0.0,0.0,0.0,0.0,0.0,0.0,0.0,0.0,0.0,0.0,0.0,1.4826,1.457,1.4345,1.4136,1.2738,1.1934,0.0,0.0,0.0,0.0,0.0,0.0,0.0,0.0,0.0,0.0,0.0,0.0,0.0,0.0,0.0,0.0,0.0,0.0,0.0,0.0,0.0,0.0,0.0,0.0,0.0,0.0,0.0,0.0,0.0,0.0,0.0,0.0,0.0,0.0,0.0,0.0,0.0,0.0,0.0,0.0,0.0,0.0,0.0,0.0,0.0,0.0,0.0,0.0,0.0,0.0,0.0,0.0,0.0,0.0,0.0,0.0,0.0,0.0,0.0,0.0,0.0,0.0,0.0,0.0,0.0,0.0,0.0,0.0,0.0,0.0,0.0,0.0,0.0,0.0,0.0,0.0,0.0,0.0,0.0,0.0,0.0,0.0,0.0,0.0,0.0,0.0,0.0,0.0,0.0,0.0,0.0,0.0,0.0,0.0,0.0,0.0,0.0,0.0,0.0,0.0,0.0,0.0,0.0,0.0,0.0,0.0,0.0,0.0,0.0,1.578,1.5412,1.499,1.4624,1.3395,1.2608,1.2262,0.0,0.0,0.0,0.0,0.0,0.0,0.0,0.0,0.0,0.0,0.0,0.0,0.0,0.0,0.0,0.0,0.0,0.0,0.0,0.0,0.0,0.0,0.0,0.0,0.0,0.0,0.0,0.0,0.0,0.0,0.0,0.0,0.0,0.0,0.0,0.0,0.0,0.0,0.0,0.0,0.0,0.0,0.0,0.0,0.0,0.0,0.0,0.0,0.0,0.0,0.0,0.0,0.0,0.0,0.0,0.0,0.0,0.0,0.0,0.0,0.0,0.0,0.0,0.0,0.0,0.0,0.0,0.0,0.0,0.0,0.0,0.0,0.0,0.0,0.0,0.0,0.0,0.0,0.0,0.0,0.0,0.0,0.0,0.0,0.0,0.0,0.0,0.0,0.0,0.0,0.0,0.0,0.0,0.0,0.0,0.0,0.0,0.0,0.0,0.0,0.0,0.0,0.0,0.0,0.0,0.0,0.0,0.0,1.6967,1.6289,1.5606,1.4946,1.4042,1.3229,0.0,0.0,0.0,0.0,0.0,0.0,0.0,0.0,0.0,0.0,0.0,0.0,0.0,0.0,0.0,0.0,0.0,0.0,0.0,0.0,0.0,0.0,0.0,0.0,0.0,0.0,0.0,0.0,0.0,0.0,0.0,0.0,0.0,0.0,0.0,0.0,0.0,0.0,0.0,0.0,0.0,0.0,0.0,0.0,0.0,0.0,0.0,0.0,0.0,0.0,0.0,0.0,0.0,0.0,0.0,0.0,0.0,0.0,0.0,0.0,0.0,0.0,0.0,0.0,0.0,0.0,0.0,0.0,0.0,0.0,0.0,0.0,0.0,0.0,0.0,0.0,0.0,0.0,0.0,0.0,0.0,0.0,0.0,0.0,0.0,0.0,0.0,0.0,0.0,0.0,0.0,0.0,0.0,0.0,0.0,0.0,0.0,0.0,0.0,0.0,0.0,0.0,0.0,0.0,0.0,0.0,0.0,0.0,0.0,1.6695,1.7022,1.6895,1.6273,1.5087,1.4324,0.0,0.0,0.0,0.0,0.0,0.0,0.0,0.0,0.0,0.0,0.0,0.0,0.0,0.0,0.0,0.0,0.0,0.0,0.0,0.0,0.0,0.0,0.0,0.0,0.0,0.0,0.0,0.0,0.0,0.0,0.0,0.0,0.0,0.0,0.0,0.0,0.0,0.0,0.0,0.0,0.0,0.0,0.0,0.0,0.0,0.0,0.0,0.0,0.0,0.0,0.0,0.0,0.0,0.0,0.0,0.0,0.0,0.0,0.0,0.0,0.0,0.0,0.0,0.0,0.0,0.0,0.0,0.0,0.0,0.0,0.0,0.0,0.0,0.0,0.0,0.0,0.0,0.0,0.0,0.0,0.0,0.0,0.0,0.0,0.0,0.0,0.0,0.0,0.0,0.0,0.0,0.0,0.0,0.0,0.0,0.0,0.0,0.0,0.0,0.0,0.0,0.0,0.0,0.0,0.0,0.0,0.0,0.0,1.679,1.7342,1.7729,1.7805,1.7558,1.6043,1.507,0.0,0.0,0.0,0.0,0.0,0.0,0.0,0.0,0.0,0.0,0.0,0.0,0.0,0.0,0.0,0.0,0.0,0.0,0.0,0.0,0.0,0.0,0.0,0.0,0.0,0.0,0.0,0.0,0.0,0.0,0.0,0.0,0.0,0.0,0.0,0.0,0.0,0.0,0.0,0.0,0.0,0.0,0.0,0.0,0.0,0.0,0.0,0.0,0.0,0.0,0.0,0.0,0.0,0.0,0.0,0.0,0.0,0.0,0.0,0.0,0.0,0.0,0.0,0.0,0.0,0.0,0.0,0.0,0.0,0.0,0.0,0.0,0.0,0.0,0.0,0.0,0.0,0.0,0.0,0.0,0.0,0.0,0.0,0.0,0.0,0.0,0.0,0.0,0.0,0.0,0.0,0.0,0.0,0.0,0.0,0.0,0.0,0.0,0.0,0.0,0.0,0.0,0.0,0.0,0.0,0.0,0.0,0.0,1.7634,1.8344,1.8323,1.8389,1.8489,1.6829,1.5634,0.0,0.0,0.0,0.0,0.0,0.0,0.0,0.0,0.0,0.0,0.0,0.0,0.0,0.0,0.0,0.0,0.0,0.0,0.0,0.0,0.0,0.0,0.0,0.0,0.0,0.0,0.0,0.0,0.0,0.0,0.0,0.0,0.0,0.0,0.0,0.0,0.0,0.0,0.0,0.0,0.0,0.0,0.0,0.0,0.0,0.0,0.0,0.0,0.0,0.0,0.0,0.0,0.0,0.0,0.0,0.0,0.0,0.0,0.0,0.0,0.0,0.0,0.0,0.0,0.0,0.0,0.0,0.0,0.0,0.0,0.0,0.0,0.0,0.0,0.0,0.0,0.0,0.0,0.0,0.0,0.0,0.0,0.0,0.0,0.0,0.0,0.0,0.0,0.0,0.0,0.0,0.0,0.0,0.0,0.0,0.0,0.0,0.0,0.0,0.0,0.0,0.0,0.0,0.0,0.0,0.0,0.0,0.0,1.7571,1.814,1.8631,1.8697,1.8266,1.7183,1.6348,0.0,0.0,0.0,0.0,0.0,0.0,0.0,0.0,0.0,0.0,0.0,0.0,0.0,0.0,0.0,0.0,0.0,0.0,0.0,0.0,0.0,0.0,0.0,0.0,0.0,0.0,0.0,0.0,0.0,0.0,0.0,0.0,0.0,0.0,0.0,0.0,0.0,0.0,0.0,0.0,0.0,0.0,0.0,0.0,0.0,0.0,0.0,0.0,1.0859,0.0,0.0,0.0,0.0,0.0,0.0,0.0,0.0,0.0,0.0,0.0,0.0,0.0,0.0,0.0,0.0,0.0,0.0,0.0,0.0,0.0,0.0,0.0,0.0,0.0,0.0,0.0,0.0,0.0,0.0,0.0,0.0,0.0,0.0,0.0,0.0,0.0,0.0,0.0,0.0,0.0,0.0,0.0,0.0,0.0,0.0,0.0,0.0,0.0,0.0,0.0,0.0,0.0,0.0,0.0,0.0,0.0,0.0,0.0,1.8341,1.8885,1.9232,1.916,1.8622,1.7858,1.7123,0.0,0.0,0.0,0.0,0.0,0.0,0.0,0.0,0.0,0.0,0.0,0.0,0.0,0.0,0.0,0.0,0.0,0.0,0.0,0.0,0.0,0.0,0.0,0.0,0.0,0.0,0.0,0.0,0.0,0.0,0.0,0.0,0.0,0.0,0.0,0.0,0.0,0.0,0.0,0.0,0.0,0.0,0.0,0.0,0.0,0.0,0.0,0.0,0.0,0.0,0.0,0.0,0.0,0.0,0.0,0.0,0.0,0.0,0.0,0.0,0.0,0.0,0.0,0.0,0.0,0.0,0.0,0.0,0.0,0.0,0.0,0.0,0.0,0.0,0.0,0.0,0.0,0.0,0.0,0.0,0.0,0.0,0.0,0.0,0.0,0.0,0.0,0.0,0.0,0.0,0.0,0.0,0.0,0.0,0.0,0.0,0.0,0.0,0.0,0.0,0.0,0.0,0.0,0.0,0.0,0.0,0.0,1.8414,1.929,1.9773,1.9891,1.9664,1.9078,1.8609,1.7858,1.6794,0.0,0.0,0.0,0.0,0.0,0.0,0.0,0.0,0.0,0.0,0.0,0.0,0.0,0.0,0.0,0.0,0.0,0.0,0.0,0.0,0.0,0.0,0.0,0.0,0.0,0.0,0.0,0.0,0.0,0.0,0.0,0.0,0.0,0.0,0.0,0.0,0.0,0.0,1.3609,1.4631,0.0,0.0,0.0,0.0,0.0,0.0,0.0,0.0,1.1828,0.0,0.0,0.0,0.0,0.0,0.0,0.0,0.0,0.0,0.0,0.0,0.0,0.0,0.0,0.0,0.0,0.0,0.0,0.0,0.0,0.0,0.0,0.0,0.0,0.0,0.0,0.0,0.0,0.0,0.0,0.0,0.0,0.0,0.0,0.0,0.0,0.0,0.0,0.0,0.0,0.0,0.0,0.0,0.0,0.0,0.0,0.0,0.0,0.0,0.0,0.0,0.0,0.0,0.0,0.0,0.0,1.7199,1.8819,1.9695,1.9812,2.0294,2.002,1.8986,1.8959,1.8218,1.6724,0.0,0.0,0.0,0.0,0.0,0.0,0.0,0.0,0.0,0.0,0.0,0.0,0.0,0.0,0.0,0.0,0.0,0.0,0.0,0.0,0.0,0.0,0.0,0.0,0.0,0.0,0.0,0.0,0.0,0.0,0.0,0.0,0.0,0.0,0.0,0.0,0.0,0.0,0.0,1.5027,1.5511,0.0,0.0,0.0,0.0,0.0,0.0,0.0,0.0,1.1681,0.0,0.0,0.0,0.0,0.0,0.0,0.0,0.0,0.0,0.0,0.0,0.0,0.0,0.0,0.0,0.0,0.0,0.0,0.0,0.0,0.0,0.0,0.0,0.0,0.0,0.0,0.0,0.0,0.0,0.0,0.0,0.0,0.0,0.0,0.0,0.0,0.0,0.0,0.0,0.0,0.0,0.0,0.0,0.0,0.0,0.0,0.0,0.0,0.0,0.0,0.0,0.0,0.0,0.0,0.0,1.7965,1.9048,1.9736,2.0009,2.0381,2.0027,1.8835,1.8672,1.7963,0.0,0.0,0.0,0.0,0.0,0.0,0.0,0.0,0.0,0.0,0.0,0.0,0.0,0.0,0.0,0.0,0.0,0.0,0.0,0.0,0.0,0.0,0.0,0.0,0.0,0.0,0.0,0.0,0.0,0.0,0.0,0.0,0.0,0.0,0.0,0.0,0.0,0.0,0.0,0.0,1.5487,1.5626,1.5298,0.0,0.0,0.0,0.0,0.0,0.0,1.2223,1.2075,0.0,0.0,0.0,0.0,0.0,0.0,0.0,0.0,0.0,0.0,0.0,0.0,0.0,0.0,0.0,0.0,0.0,0.0,0.0,0.0,0.0,0.0,0.0,0.0,0.0,0.0,0.0,0.0,0.0,0.0,0.0,0.0,0.0,0.0,0.0,0.0,0.0,0.0,0.0,0.0,0.0,0.0,0.0,0.0,0.0,0.0,0.0,0.0,0.0,0.0,0.0,0.0,0.0,0.0,0.0,1.8632,1.9269,1.9747,2.0182,2.041,1.9929,1.8755,1.8412,1.7689,0.0,0.0,0.0,0.0,0.0,0.0,0.0,0.0,0.0,0.0,0.0,0.0,0.0,0.0,0.0,0.0,0.0,0.0,0.0,0.0,0.0,0.0,0.0,0.0,0.0,0.0,0.0,0.0,0.0,0.0,0.0,0.0,0.0,0.0,0.0,0.0,0.0,0.0,0.0,0.0,0.0,1.5851,1.5753,1.5236,0.0,0.0,0.0,0.0,1.2832,1.2779,0.0,0.0,0.0,0.0,0.0,0.0,0.0,0.0,0.0,0.0,0.0,0.0,0.0,0.0,0.0,0.0,0.0,0.0,0.0,0.0,0.0,0.0,0.0,0.0,0.0,0.0,0.0,0.0,0.0,0.0,0.0,0.0,0.0,0.0,0.0,0.0,0.0,0.0,0.0,0.0,0.0,0.0,0.0,0.0,0.0,0.0,0.0,0.0,0.0,0.0,0.0,0.0,0.0,0.0,0.0,0.0,1.8603,1.958,2.0143,2.0195,2.0398,1.9942,1.8742,1.879,1.7843,0.0,0.0,0.0,0.0,0.0,0.0,0.0,0.0,0.0,0.0,0.0,0.0,0.0,0.0,0.0,0.0,0.0,0.0,0.0,0.0,0.0,0.0,0.0,0.0,0.0,0.0,0.0,0.0,0.0,0.0,0.0,0.0,0.0,0.0,0.0,0.0,0.0,0.0,0.0,0.0,0.0,1.6371,1.6224,1.6111,1.5976,0.0,0.0,1.4884,1.4557,1.3924,0.0,0.0,0.0,0.0,0.0,0.0,0.0,0.0,0.0,0.0,0.0,0.0,0.0,0.0,0.0,0.0,0.0,0.0,0.0,0.0,0.0,0.0,0.0,0.0,0.0,0.0,0.0,0.0,0.0,0.0,0.0,0.0,0.0,0.0,0.0,0.0,0.0,0.0,0.0,0.0,0.0,0.0,0.0,0.0,0.0,0.0,0.0,0.0,0.0,0.0,0.0,0.0,0.0,0.0,0.0,1.7374,1.8474,1.9471,1.9952,1.9965,2.0144,1.9683,1.8569,1.8406,1.747,0.0,0.0,0.0,0.0,0.0,0.0,0.0,0.0,0.0,0.0,0.0,0.0,0.0,0.0,0.0,0.0,0.0,0.0,0.0,0.0,0.0,0.0,0.0,0.0,0.0,0.0,0.0,0.0,0.0,0.0,0.0,0.0,0.0,0.0,0.0,0.0,0.0,0.0,0.0,0.0,0.0,0.0,1.6711,1.6608,0.0,0.0,0.0,1.5968,1.5532,0.0,0.0,0.0,0.0,0.0,0.0,0.0,0.0,0.0,0.0,0.0,0.0,0.0,0.0,0.0,0.0,0.0,0.0,0.0,0.0,0.0,0.0,0.0,0.0,0.0,0.0,0.0,0.0,0.0,0.0,0.0,0.0,0.0,0.0,0.0,0.0,0.0,0.0,0.0,0.0,0.0,0.0,0.0,0.0,0.0,0.0,0.0,0.0,0.0,0.0,0.0,0.0,0.0,0.0,0.0,0.0,0.0,1.8414,1.9383,1.9862,1.985,1.9965,1.9471,1.8429,1.8212,0.0,0.0,0.0,0.0,0.0,0.0,0.0,0.0,0.0,0.0,0.0,0.0,0.0,0.0,0.0,0.0,0.0,0.0,0.0,0.0,0.0,0.0,0.0,0.0,0.0,0.0,0.0,0.965,0.0,0.0,0.0,0.0,0.0,0.0,0.0,0.0,0.0,0.0,0.0,0.0,0.0,0.0,1.6572,1.7134,1.6964,1.6717,0.0,0.0,1.6638,1.6171,1.5798,1.5346,0.0,0.0,0.0,0.0,0.0,0.0,0.0,0.0,0.0,0.0,0.0,0.0,0.0,0.0,0.0,0.0,0.0,0.0,0.0,0.0,0.0,0.0,0.0,0.0,0.0,0.0,0.0,0.0,0.0,0.0,0.0,0.0,0.0,0.0,0.0,0.0,0.0,0.0,0.0,0.0,0.0,0.0,0.0,0.0,0.0,0.0,0.0,0.0,0.0,0.0,0.0,0.0,0.0,0.0,1.7452,1.8569,1.9508,1.999,1.999,1.999,1.9484,1.8441,1.8549,1.7605,0.0,0.0,0.0,0.0,0.0,0.0,0.0,0.0,0.0,0.0,0.0,0.0,0.0,0.0,0.0,0.0,0.0,0.0,0.0,0.0,0.0,0.0,0.0,0.0,0.0,0.0,0.0,0.0,0.0,0.0,0.0,0.0,0.0,0.0,0.0,0.0,0.0,0.0,0.0,0.0,0.0,1.7025,1.741,1.7096,1.6941,0.0,1.7049,1.6701,1.6493,1.603,1.5457,1.4725,0.0,0.0,0.0,0.0,0.0,0.0,0.0,0.0,0.0,0.0,0.0,0.0,0.0,0.0,0.0,0.0,0.0,0.0,0.0,0.0,0.0,0.0,0.0,0.0,0.0,0.0,0.0,0.0,1.6225,0.0,0.0,0.0,0.0,0.0,0.0,0.0,0.0,0.0,0.0,0.0,0.0,0.0,0.0,0.0,0.0,0.0,0.0,0.0,0.0,0.0,0.0,0.0,0.0,1.7679,1.8732,1.9817,2.0283,2.0131,1.9978,1.9359,1.83,1.8427,1.7425,0.0,0.0,0.0,0.0,0.0,0.0,0.0,0.0,0.0,0.0,0.0,0.0,0.0,0.0,0.0,0.0,0.0,0.0,0.0,0.0,0.0,0.0,0.0,0.0,0.0,0.0,0.0,0.0,1.1209,1.1738,1.2788,0.0,0.0,0.0,0.0,0.0,0.0,0.0,0.0,0.0,0.0,1.7389,1.7975,1.7821,0.0,0.0,1.7555,1.7149,1.7123,1.6282,1.5576,1.5374,1.457,0.0,0.0,0.0,0.0,0.0,0.0,0.0,0.0,0.0,0.0,0.0,0.0,0.0,0.0,0.0,0.0,0.0,0.0,0.0,0.0,0.0,0.0,0.0,0.0,0.0,0.0,0.0,1.6523,0.0,0.0,0.0,0.0,0.0,0.0,0.0,0.0,0.0,0.0,0.0,0.0,0.0,0.0,0.0,0.0,0.0,0.0,0.0,0.0,0.0,0.0,0.0,0.0,1.7932,1.9038,2.0132,2.0623,2.0372,2.0067,1.9497,1.8613,1.8516,1.7613,0.0,0.0,0.0,0.0,0.0,0.0,0.0,0.0,0.0,0.0,0.0,0.0,0.0,0.0,0.0,0.0,0.0,0.0,0.0,0.0,0.0,0.0,0.0,0.0,0.0,0.0,0.0,0.0,1.1781,1.2334,1.3236,0.0,0.0,0.0,0.0,0.0,0.0,0.0,0.0,0.0,0.0,1.7925,1.853,1.8552,1.853,1.8544,1.8033,1.7655,1.7671,1.6507,1.5636,1.5729,0.0,0.0,0.0,0.0,0.0,0.0,0.0,0.0,0.0,0.0,0.0,0.0,0.0,0.0,0.0,0.0,0.0,0.0,0.0,0.0,0.0,0.0,0.0,0.0,0.0,0.0,0.0,1.6803,0.0,0.0,1.6944,0.0,0.0,0.0,0.0,0.0,0.0,0.0,0.0,0.0,0.0,0.0,0.0,0.0,0.0,0.0,0.0,0.0,0.0,0.0,0.0,0.0,0.0,1.8257,1.9583,2.0512,2.0944,2.0771,2.0422,1.9964,1.9398,1.893,1.8193,1.712,0.0,0.0,0.0,0.0,0.0,0.0,0.0,0.0,0.0,0.0,0.0,0.0,0.0,0.0,0.0,0.0,0.0,0.0,0.0,0.0,0.0,0.0,0.0,0.0,0.0,0.0,1.2214,1.2213,1.248,0.0,0.0,0.0,0.0,0.0,0.0,0.0,0.0,0.0,1.7626,1.8196,1.8695,1.9055,1.9193,1.9184,1.893,1.849,1.8144,1.8083,1.6671,1.5599,0.0,0.0,0.0,0.0,0.0,0.0,0.0,0.0,0.0,0.0,0.0,0.0,0.0,0.0,0.0,0.0,0.0,0.0,0.0,0.0,0.0,0.0,0.0,0.0,0.0,0.0,0.0,2.0121,1.9861,0.0,0.0,0.0,0.0,0.0,0.0,0.0,0.0,0.0,0.0,0.0,2.208,2.1438,0.0,0.0,0.0,0.0,0.0,0.0,0.0,0.0,0.0,0.0,0.0,0.0,1.8823,1.9992,2.1172,2.1684,2.1468,2.1164,2.0751,2.0214,1.9613,1.8227,1.5995,0.0,0.0,0.0,0.0,0.0,0.0,0.0,0.0,0.0,0.0,0.0,0.0,0.0,0.0,0.0,0.0,0.0,0.0,0.0,0.0,0.0,0.0,0.0,0.0,0.0,1.3726,0.0,0.0,0.0,0.0,0.0,0.0,0.0,0.0,0.0,0.0,1.7026,1.806,1.8563,1.9475,2.012,2.0111,1.999,1.9804,0.0,0.0,0.0,0.0,0.0,0.0,0.0,0.0,0.0,0.0,0.0,0.0,0.0,0.0,1.5079,1.4701,1.4477,1.4304,1.411,0.0,0.0,0.0,0.0,0.0,0.0,0.0,0.0,0.0,0.0,0.0,0.0,0.0,0.0,2.2511,2.2405,2.1286,0.0,0.0,0.0,0.0,0.0,0.0,0.0,0.0,2.3955,2.4225,2.3815,2.3209,2.2724,2.2324,2.1708,2.0619,0.0,0.0,0.0,0.0,0.0,0.0,0.0,0.0,1.9539,2.0675,2.1733,2.2161,2.1935,2.1684,2.1373,2.1004,2.0197,1.87,1.6453,1.5476,1.4632,0.0,0.0,0.0,0.0,0.0,0.0,0.0,0.0,0.0,0.0,0.0,0.0,0.0,0.0,0.0,0.0,0.0,0.0,0.0,0.0,0.0,0.0,0.0,1.4862,0.0,0.0,0.0,0.0,0.0,0.0,0.0,0.0,0.0,1.7009,1.8129,1.9231,1.9795,2.0548,2.1019,2.1023,0.0,0.0,0.0,0.0,0.0,0.0,0.0,1.6035,1.6237,1.584,1.5721,1.6382,1.6388,1.6408,1.6745,0.0,0.0,1.599,1.577,1.5568,1.5378,1.5095,1.4967,1.5273,1.522,1.5244,0.0,0.0,0.0,0.0,2.2627,0.0,0.0,0.0,2.4462,2.4503,0.0,2.3238,0.0,0.0,0.0,0.0,2.1793,2.2792,0.0,0.0,2.56,2.5807,2.5763,2.5183,2.4892,2.4795,2.4172,2.3548,2.2778,1.9914,1.8424,0.0,0.0,0.0,0.0,0.0,2.0356,2.1561,2.215,2.237,2.2231,2.1959,2.1827,2.1758,2.0712,1.9587,1.8431,1.7121,1.6076,1.5285,1.404,0.0,0.0,0.0,0.0,0.0,0.0,0.0,0.0,0.0,0.0,0.0,0.0,0.0,0.0,0.0,0.0,0.0,0.0,0.0,0.0,1.5832,0.0,0.0,0.0,0.0,0.0,0.0,0.0,0.0,0.0,1.8738,1.8571,1.9627,2.0683,2.124,0.0,0.0,0.0,0.0,2.1326,2.1057,2.0323,1.9601,1.9038,1.7978,1.7042,1.6571,0.0,0.0,1.8052,1.7641,1.7233,1.7363,1.7235,1.7199,1.7139,1.6776,1.6514,1.6494,1.6136,1.6029,1.6395,1.6448,1.6435,2.6321,0.0,0.0,0.0,0.0,2.5855,2.6216,2.6462,2.6462,2.6477,2.6379,2.519,0.0,0.0,0.0,0.0,0.0,0.0,2.4946,2.5512,2.6194,2.653,2.6474,2.5836,2.5517,2.5487,2.4839,2.4462,2.423,2.2478,2.0911,1.9591,0.0,0.0,0.0,0.0,2.1043,2.1867,2.2457,2.2729,2.2692,2.2638,2.2378,2.1957,2.1183,2.0157,1.8941,1.7976,1.7103,1.6281,1.5024,0.0,0.0,0.0,0.0,0.0,0.0,0.0,0.0,0.0,0.0,0.0,0.0,0.0,0.0,0.0,0.0,0.0,0.0,0.0,1.6576,1.6664,1.6579,0.0,0.0,0.0,0.0,0.0,0.0,0.0,0.0,0.0,2.0826,2.1248,2.1614,0.0,0.0,2.2437,2.2379,2.2123,2.1878,2.1616,2.0897,0.0,1.9907,1.8795,1.8013,1.8091,1.8112,1.8058,1.7871,1.769,1.7467,1.719,1.7073,1.7052,1.7039,1.7027,1.7025,1.7086,1.6955,1.6869,1.7067,1.7066,1.6991,2.9726,2.7867,2.7444,2.7412,2.7721,2.8321,2.8741,2.8997,2.9252,2.9209,2.8898,2.7952,2.7046,2.6224,2.4951,0.0,0.0,0.0,2.6414,2.6847,2.7318,2.7534,2.7505,2.7154,2.6965,2.6907,2.6039,2.5618,2.5618,2.4302,2.3099,2.1975,0.0,2.019,2.0857,2.1467,2.196,2.2381,2.2968,2.3171,2.2925,2.2888,2.2751,2.2345,2.1481,2.0625,1.987,1.8623,1.7702,1.7157,1.6109,1.5235,0.0,0.0,0.0,0.0,0.0,0.0,0.0,0.0,0.0,0.0,0.0,1.1381,1.1308,0.0,0.0,0.0,1.6088,1.7057,1.7525,1.8003,0.0,0.0,0.0,0.0,0.0,0.0,0.0,1.9956,2.1075,2.1924,2.2206,2.2315,2.2345,2.2367,2.2678,2.2843,2.2698,0.0,2.2208,2.1983,2.1442,2.0916,2.0499,1.9704,1.9154,1.9178,1.8905,1.867,1.8577,1.8345,1.8083,1.783,1.7717,1.7661,1.7674,1.7536,1.7333,1.7235,1.7128,1.7128,1.7225,1.7183,1.7136,3.3079,3.211,3.0322,2.9708,2.9913,3.0711,3.1223,3.1611,3.2205,3.2147,3.1524,3.093,2.9973,2.8709,2.7517,0.0,2.7768,2.7782,2.8087,2.8694,2.8694,2.8694,2.8694,2.868,2.8694,2.868,2.7517,2.6936,2.6779,2.5564,2.4955,2.4907,2.2512,2.1612,2.2222,2.2765,2.3047,2.3047,2.3615,2.3572,2.2917,2.2888,2.2888,2.2873,2.1707,2.1046,2.093,1.9166,1.8093,1.7894,1.7288,1.6307,1.5077,0.0,0.0,0.0,0.0,0.0,0.0,0.0,0.0,0.0,0.0,0.0,0.0,0.0,0.0,0.0,1.7198,0.0,1.859,1.9677,0.0,0.0,0.0,1.9721,2.0196,2.0328,2.077,2.1859,0.0,0.0,2.2925,2.3018,2.307,2.3012,2.2931,2.288,2.2832,2.2606,2.2394,2.2278,2.2067,2.167,2.1116,2.0712,2.0345,2.003,1.9478,1.9347,1.9675,1.9365,1.9025,1.8855,1.8796,1.8655,1.8668,1.8116,1.7597,1.7068,1.6935,1.6918,1.7002,1.7023,1.7052,3.5188,3.5209,3.4729,3.3302,3.1272,3.1747,3.2089,3.2263,3.2408,3.2394,3.2237,3.1584,3.0597,2.9363,2.8579,2.8331,2.8463,2.8448,2.8536,2.8694,2.8694,2.8694,2.8694,2.8694,2.8694,2.868,2.8404,2.7984,2.7463,2.6707,2.6068,2.5556,2.4433,2.3998,2.4196,2.4302,2.4336,2.4322,2.4051,2.3586,2.2917,2.2888,2.2888,2.2888,2.2142,2.1525,2.1003,2.0097,1.9334,1.8809,1.8198,1.7718,1.7384,1.6418,0.0,0.0,0.0,0.0,0.0,0.0,0.0,0.0,0.0,1.3927,1.3572,0.0,1.6362,0.0,1.7992,1.9336,2.0293,2.0671,0.0,0.0,2.0613,2.0671,2.0796,2.1276,2.1698,2.196,2.2846,2.3499,2.3659,2.4109,2.4239,2.3731,2.3229,2.2902,2.2857,2.2834,2.2775,2.2729,2.2661,2.2535,2.2172,2.1774,2.1322,2.1059,2.0876,2.0725,2.0442,2.0131,1.9714,1.9176,1.8901,1.8729,1.8546,1.8323,1.801,1.7422,1.7088,1.6918,1.6981,1.7002,1.7044,3.647,3.6606,3.662,3.5488,3.3747,3.3724,3.3709,3.3761,3.3485,3.3209,3.2904,3.2251,3.1553,3.0871,3.0539,3.0379,3.0379,3.0089,2.9943,2.9929,2.9653,2.9552,2.9552,2.9552,2.9552,2.9537,2.9232,2.8927,2.8507,2.7623,2.7026,2.6649,2.6025,2.5705,2.572,2.5429,2.51,2.481,2.421,2.3586,2.2917,2.2888,2.2888,2.2859,2.2011,2.138,2.1003,2.0132,1.9493,1.9116,1.8782,1.8491,1.8216,1.7505,1.6401,0.0,0.0,0.0,0.0,0.0,0.0,0.0,0.0,0.0,0.0,0.0,1.8498,1.8776,1.9484,2.0364,2.1351,2.1663,2.1975,2.2251,2.228,2.241,2.2649,2.3012,2.3244,2.3244,2.3876,2.4312,2.4302,2.4646,2.4747,2.4355,2.3737,2.3229,2.2968,2.2888,2.2888,2.2888,2.2888,2.2797,2.2555,2.2194,2.1902,2.1636,2.1589,2.1465,2.1188,2.0982,2.0647,2.0137,1.9848,1.9623,1.9383,1.9032,1.8641,1.8096,1.7568,1.7174,1.6918,1.6867,1.6897,3.7196,3.7086,3.7109,3.6902,3.6504,3.5915,3.5552,3.5363,3.4777,3.4182,3.359,3.2919,3.2629,3.2629,3.2524,3.2481,3.2469,3.1872,3.1567,3.1466,3.0959,3.0685,3.0612,3.0612,3.0612,3.0583,3.0016,2.9711,2.9581,2.8447,2.7837,2.7735,2.7164,2.6858,2.6817,2.6276,2.5629,2.494,2.4341,2.3717,2.3055,2.2946,2.2859,2.2743,2.1692,2.1046,2.0857,1.9812,1.9232,1.9213,1.9145,1.8898,1.8462,1.8285,1.7417,0.0,1.611,0.0,0.0,0.0,0.0,0.0,0.0,0.0,0.0,1.988,2.0509,2.1191,2.1249,2.1554,2.2294,2.2838,2.3389,2.3934,2.4022,2.4239,2.4737,2.4824,2.4824,2.4824,2.4882,2.4926,2.494,2.5052,2.5125,2.4911,2.4389,2.3789,2.3186,2.296,2.2888,2.2888,2.2888,2.2812,2.2555,2.2394,2.2231,2.202,2.1973,2.1949,2.1969,2.1827,2.1612,2.1358,2.1048,2.0843,2.0649,2.0082,1.9466,1.8843,1.8326,1.7751,1.6991,1.6761,1.6795,3.7232,3.7491,3.7681,3.7783,3.7796,3.7201,3.6344,3.5392,3.5276,3.4869,3.4196,3.3558,3.3314,3.3271,3.2745,3.2481,3.2481,3.2365,3.2002,3.1511,3.1364,3.1076,3.0627,3.0612,3.0612,3.0598,3.0585,3.0309,2.9827,2.9165,2.8574,2.8113,2.7453,2.713,2.713,0.0,0.0,0.0,2.5009,2.4384,2.3731,2.3186,2.2678,2.2193,2.1946,0.0,2.032,2.0045,1.9899,1.9899,1.9391,0.0,0.0,0.0,0.0,0.0,0.0,0.0,0.0,0.0,0.0,0.0,2.1322,2.1307,2.0079,2.0465,2.1307,2.2417,2.2548,2.3041,2.4225,2.4404,2.4505,2.4607,2.4675,2.4762,2.4878,2.4839,2.4824,2.4824,2.5284,2.5604,2.5633,2.6094,2.6199,2.5662,2.5027,2.4404,2.3804,2.3258,2.2902,2.2888,2.2888,2.288,2.2834,2.2737,2.2706,2.2706,2.2684,2.2684,2.2623,2.2523,2.2301,2.2044,2.1807,2.1516,2.1275,2.1105,2.0627,1.962,1.9324,1.8768,1.7286,1.6952,1.696,3.7046,3.7303,3.7534,3.7725,0.0,3.7598,3.6958,3.6179,3.5932,3.5488,3.4835,3.4211,3.3968,3.392,3.3601,3.3423,3.3427,3.3122,3.2803,3.2454,3.183,3.1337,3.1032,3.0743,3.0642,3.0702,3.094,3.0954,3.0657,2.9873,2.9325,2.9022,2.8049,2.756,2.7545,2.7545,2.703,2.6009,2.5365,2.4736,2.4092,2.3449,2.2951,2.2651,2.2344,0.0,0.0,0.0,0.0,0.0,0.0,0.0,0.0,0.0,0.0,1.8735,1.9236,1.9323,1.8779,1.9905,2.1082,2.208,2.334,2.3622,2.2497,2.2693,2.3142,2.3757,2.3829,2.4128,2.4752,2.4824,2.494,2.523,2.5328,2.5444,2.5774,2.5807,2.5807,2.5821,2.6083,2.6312,2.6312,2.6547,2.6675,2.6312,2.5444,2.4747,2.4341,2.3496,2.2888,2.2888,2.2888,2.2888,2.2888,2.2888,2.2888,2.2888,2.2888,2.2888,2.2888,2.2752,2.2592,2.2347,2.2254,2.2137,2.1722,2.1612,2.1242,2.0137,1.9795,1.9333,1.7913,1.7406,1.722,3.6707,3.69,3.7095,3.7303,3.7495,3.7534,3.7401,3.7123,3.6541,0.0,0.0,3.4806,3.4516,3.4414,3.438,3.438,3.4337,3.3877,3.3605,3.3445,3.2353,3.1743,3.1496,3.0988,3.0774,3.0836,3.1161,3.1408,3.1492,3.0594,3.0103,2.9874,2.8748,2.8109,2.8018,2.7987,2.7523,2.6609,2.5892,2.5216,2.4616,2.3948,2.3488,2.3266,2.271,2.2384,2.223,2.1665,2.1348,2.141,2.1205,2.119,2.141,2.1219,2.0898,2.0489,2.0956,2.1067,2.0651,2.1357,2.2427,2.3859,2.4957,2.5416,2.4922,2.4883,2.4941,2.5019,2.5058,2.5062,2.5168,2.5183,2.5386,2.5934,2.5966,2.621,2.6718,2.6794,2.6721,2.6794,2.675,2.6779,2.675,2.6765,2.6794,2.6675,2.5792,2.4965,2.4694,2.3685,2.2888,2.2888,2.2888,2.2888,2.2888,2.2888,2.2888,2.2888,2.2888,2.2888,2.2888,2.282,2.2684,2.2546,2.2638,2.25,2.2114,2.203,2.1551,2.0416,2.0179,1.9831,1.8661,1.8036,1.7659,3.6312,3.651,3.6719,3.69,3.7109,3.7264,3.7515,3.7661,3.6715,3.5952,3.5392,3.5305,3.4922,3.438,3.438,3.438,3.438,3.4327,3.3993,3.3503,3.33,3.26,3.1509,3.1393,3.1166,3.0865,3.1278,3.1552,3.162,3.1326,3.0898,3.0325,2.9556,2.891,2.8394,2.8308,2.8253,2.8073,2.7194,2.6431,2.5781,2.5114,2.4206,2.3106,2.297,2.2622,2.2041,2.1902,2.1974,2.2286,2.1762,2.1702,2.2251,2.1776,2.1376,2.1352,2.1939,2.2251,2.2206,2.3455,2.4867,2.6302,2.6659,2.6333,2.5333,2.5226,2.5423,2.5913,2.6026,2.6186,2.6623,2.6656,2.6604,2.6617,2.6646,2.6718,2.6794,2.6794,2.6794,2.6794,2.6794,2.6794,2.6794,2.6794,2.6794,2.6704,2.6068,2.5458,2.4766,2.3699,2.2975,2.2888,2.2888,2.2888,2.2888,2.2888,2.2888,2.2888,2.2888,2.2888,2.2888,2.2865,2.2843,2.282,2.282,2.2797,2.2692,2.2737,2.2175,2.114,2.086,2.0471,1.9281,1.8802,1.838,3.6246,3.6272,3.6575,3.6733,3.685,3.7317,3.7534,3.7734,3.7459,3.678,3.588,3.5552,3.5009,3.4443,3.438,3.438,3.438,3.438,3.4254,3.3964,3.3663,3.2962,3.2046,3.1654,3.1314,3.1014,3.1466,3.1851,3.2059,3.1951,3.1529,3.0801,2.9755,2.9068,2.8818,2.8763,2.8803,2.8748,2.7751,2.7056,2.6773,2.6114,2.5271,2.4275,2.4244,2.3938,2.3274,2.3158,2.3116,2.3203,2.2996,2.2966,2.3173,2.2981,2.2801,2.2768,2.3447,2.3823,2.3743,2.5258,2.6459,2.7178,2.7537,2.7557,2.7013,2.6823,2.6831,2.7091,2.7121,2.7205,2.7423,2.7299,2.7155,2.7026,2.6884,2.682,2.6794,2.6794,2.6794,2.6794,2.6794,2.6794,2.6794,2.6794,2.6794,2.6721,2.6213,2.556,2.494,2.4346,2.3809,2.349,2.3142,2.2902,2.2902,2.2888,2.2888,2.2888,2.2888,2.2888,2.2888,2.2888,2.2888,2.2888,2.2888,2.2888,2.2888,2.2888,2.2475,2.1859,2.154,2.1104,2.0358,1.9674,1.8948,3.6192,3.6032,3.6391,3.6628,3.6811,3.7356,3.761,3.7701,3.8052,3.7578,3.6533,3.5851,3.5227,3.4646,3.452,3.4481,3.4448,3.4515,3.4501,3.4457,3.4053,3.3471,3.2797,3.2157,3.1716,3.1515,3.1799,3.2148,3.2489,3.2505,3.2045,3.1151,2.9975,2.9272,2.9114,2.9114,2.9114,2.9059,2.8241,2.7713,2.7542,2.7031,2.6463,2.5753,2.5706,2.5381,2.4741,2.4538,2.4315,2.4003,2.4204,2.4301,2.4201,2.4432,2.453,2.4474,2.4996,2.5406,2.5529,2.6757,2.762,2.7775,2.8263,2.8565,2.8541,2.8326,2.811,2.8052,2.7987,2.7953,2.7865,2.764,2.7412,2.7258,2.7015,2.6846,2.682,2.6794,2.6794,2.6794,2.6794,2.6794,2.6794,2.6794,2.6794,2.6707,2.6355,2.5821,2.5346,2.5143,2.4781,2.4384,2.3751,2.336,2.32,2.3157,2.3099,2.2946,2.2888,2.2888,2.2888,2.2888,2.2888,2.2888,2.2888,2.2888,2.2888,2.2888,2.2635,2.2091,2.1917,2.1728,2.1046,2.0267,1.9447,3.5992,3.5804,3.6058,3.6496,3.6993,3.7419,3.7701,3.7891,3.8104,3.7839,3.7223,3.6504,3.5886,3.5276,3.4893,3.4698,3.4698,3.4802,3.4868,3.4868,3.481,3.4442,3.3829,3.3164,3.2761,3.251,3.2311,3.2401,3.2827,3.3039,3.2503,3.1286,3.0449,2.9753,2.9193,2.9114,2.9114,2.9114,2.9005,2.8658,2.8097,2.7987,2.7624,2.6971,2.694,2.6593,2.5842,2.5733,2.5254,2.4565,2.5045,2.536,2.5406,2.5985,2.6304,2.622,2.6366,2.6758,2.743,2.7859,2.8288,2.8856,2.8958,2.9021,2.9021,2.8982,2.8795,2.8477,2.8372,2.8308,2.8162,2.794,2.7675,2.7437,2.7144,2.6925,2.6832,2.6794,2.6794,2.6794,2.6794,2.6794,2.6794,2.6794,2.6794,2.6794,2.6678,2.6547,2.6402,2.5995,2.5691,2.5502,2.5081,2.4471,2.3992,2.3804,2.3519,2.307,2.291,2.2888,2.2888,2.2888,2.2888,2.2888,2.2888,2.2888,2.2888,2.2873,2.2693,2.2301,2.2062,2.183,2.1148,2.0585,1.9886,3.6312,3.6152,3.6351,3.6747,3.7226,3.7725,3.8028,3.8104,3.8427,3.8429,3.8077,3.7088,3.6248,3.5521,3.5148,3.5067,3.5136,3.5397,3.5494,3.5479,3.5479,3.5167,3.4553,3.3861,3.3352,3.298,3.2637,3.2605,3.2846,3.2767,3.2171,3.1239,3.0528,2.9817,2.9177,2.9114,2.9114,2.9114,2.9114,2.8956,2.8742,2.8688,2.8395,2.7778,2.7699,2.7367,2.6735,2.6598,2.6329,2.5887,2.6207,2.6369,2.6224,2.6629,2.6823,2.666,2.7072,2.7677,2.8511,2.8626,2.8821,2.9059,2.9114,2.9114,2.9114,2.9114,2.9021,2.8858,2.8826,2.8763,2.859,2.8359,2.8131,2.7865,2.7488,2.717,2.7052,2.6884,2.6794,2.6794,2.6794,2.6794,2.6794,2.6794,2.6794,2.6794,2.6794,2.6794,2.6791,2.6559,2.6416,2.6344,2.6155,2.5575,2.4689,2.4094,2.3818,2.3528,2.3157,2.2902,2.2888,2.2888,2.2888,2.2888,2.2888,2.2888,2.2888,2.2888,2.2772,2.2519,2.249,2.233,2.1714,2.1394,2.0802,3.6707,3.6628,3.6825,3.7162,3.761,3.8165,3.8501,3.856,3.8914,3.9096,3.8962,3.7743,3.6891,3.6259,3.5639,3.5447,3.5625,3.5928,3.607,3.6054,3.6054,3.5842,3.537,3.4668,3.4101,3.3644,3.3209,3.2983,3.3016,3.273,3.2212,3.1492,3.0812,3.0101,2.9446,2.924,2.9114,2.9114,2.9114,2.9114,2.9114,2.9114,2.8861,2.8426,2.8379,2.8063,2.7431,2.7383,2.7208,2.6851,2.717,2.7302,2.7118,2.7438,2.7548,2.7415,2.7854,2.8425,2.9059,2.9114,2.9114,2.9114,2.9114,2.9114,2.9114,2.9114,2.9114,2.9091,2.9114,2.9052,2.8943,2.8716,2.8479,2.8293,2.78,2.7452,2.7273,2.7,2.6846,2.6806,2.6794,2.6794,2.6794,2.6794,2.6794,2.6794,2.6794,2.6794,2.6794,2.6779,2.6765,2.6794,2.6779,2.6315,2.5313,2.482,2.4384,2.3847,2.3447,2.3171,2.2983,2.2888,2.2888,2.2888,2.2888,2.2888,2.2888,2.2888,2.2888,2.2888,2.2844,2.2751,2.233,2.2149,2.1641,3.6978,3.7031,3.738,3.7801,3.8202,3.8797,3.9177,3.9343,3.9692,3.9819,3.9667,3.8425,3.7934,3.7882,3.6423,3.5879,3.6164,3.6414,3.6507,3.6476,3.6476,3.6461,3.6399,3.5753,3.5194,3.468,3.4051,3.358,3.3287,3.3245,3.2914,3.2228,3.1507,3.0812,3.0101,2.9485,2.9114,2.9114,2.9114,2.9114,2.9114,2.9114,2.9082,2.9019,2.9035,2.8688,2.8142,2.8063,2.7778,2.7125,2.7731,2.8047,2.8094,2.8609,2.8925,2.8933,2.898,2.9028,2.9098,2.9114,2.9114,2.9114,2.9114,2.9114,2.9114,2.9114,2.9114,2.9114,2.9114,2.9114,2.9052,2.885,2.8646,2.8503,2.8057,2.7715,2.7437,2.7196,2.6951,2.6832,2.6806,2.6779,2.6794,2.6794,2.6794,2.6794,2.6794,2.6794,2.6794,2.6794,2.6794,2.6794,2.6736,2.6559,2.5934,2.5473,2.4979,2.45,2.4094,2.3702,2.3215,2.2888,2.2902,2.2902,2.2902,2.2902,2.2888,2.2888,2.2888,2.2888,2.2888,2.2757,2.2664,2.2301,2.1902,3.738,3.762,3.7991,3.8389,3.8811,3.9301,3.9631,3.9935,4.0181,4.0301,4.0056,3.8877,3.8444,3.8643,3.7186,3.6616,3.6739,3.7014,3.7151,3.7135,3.7135,3.7135,3.7057,3.6401,3.577,3.5178,3.4514,3.3849,3.333,3.3293,3.2945,3.2386,3.2038,3.1358,3.0362,2.9943,2.9572,2.9161,2.9114,2.9114,2.9114,2.9114,2.9114,2.9114,2.9114,2.9004,2.8735,2.8751,2.8625,2.8388,2.8593,2.8735,2.8751,2.8956,2.9114,2.9114,2.9114,2.9114,2.9114,2.9114,2.9114,2.9114,2.9114,2.9114,2.9114,2.9114,2.9114,2.9114,2.9114,2.9114,2.9091,2.9006,2.8912,2.874,2.8455,2.8146,2.7915,2.7529,2.7196,2.7067,2.6896,2.6779,2.6794,2.6794,2.6794,2.6794,2.6794,2.6794,2.6794,2.6794,2.6794,2.6794,2.6779,2.6733,2.6544,2.6036,2.5585,2.5212,2.4849,2.4505,2.409,2.3337,2.3192,2.336,2.3258,2.2975,2.2989,2.2888,2.2888,2.2888,2.2888,2.2888,2.2888,2.2591,2.2316,3.8089,3.8412,3.8782,3.9162,3.9487,3.9879,4.0196,4.0493,4.0749,4.0867,4.0603,3.9423,3.8947,3.8905,3.7746,3.7166,3.7181,3.7391,3.751,3.751,3.751,3.751,3.7431,3.699,3.6406,3.5663,3.4731,3.3941,3.3356,3.3293,3.3056,3.2671,3.2434,3.1849,3.0963,3.0457,2.9911,2.9493,2.9209,2.9114,2.9114,2.9114,2.9114,2.9114,2.9114,2.9114,2.9114,2.9114,2.9114,2.9114,2.9114,2.9114,2.9114,2.9114,2.9114,2.9114,2.9114,2.9114,2.9114,2.9114,2.9114,2.9114,2.9114,2.9114,2.9114,2.9114,2.9114,2.9114,2.9114,2.9075,2.9029,2.8959,2.8897,2.885,2.8646,2.835,2.8088,2.768,2.7325,2.7067,2.691,2.682,2.6794,2.6794,2.6794,2.6794,2.6794,2.6794,2.6794,2.6794,2.6794,2.6794,2.6794,2.6779,2.6692,2.6413,2.5992,2.5618,2.5473,2.5201,2.4868,2.4085,2.3679,2.378,2.3621,2.3287,2.3033,2.2931,2.2888,2.2902,2.2888,2.2888,2.2888,2.2888,2.2635,3.9162,3.9364,3.9748,3.9975,4.0216,4.0578,4.0901,4.1088,4.139,4.1489,4.1283,4.0055,3.9393,3.9187,3.805,3.748,3.748,3.751,3.751,3.751,3.751,3.751,3.7494,3.7431,3.6943,3.614,3.4936,3.3972,3.3324,3.3293,3.3245,3.3151,3.2655,3.2307,3.2228,3.101,3.0315,3.0085,2.9619,2.9256,2.913,2.9193,2.9193,2.913,2.9114,2.9114,2.9114,2.9114,2.9114,2.9114,2.9114,2.9114,2.9114,2.9114,2.9114,2.9114,2.9114,2.9114,2.9114,2.9114,2.9114,2.9114,2.9114,2.9114,2.9114,2.9114,2.9114,2.9114,2.9114,2.9075,2.892,2.8732,2.8646,2.8803,2.8558,2.8195,2.789,2.7579,2.7248,2.694,2.6837,2.6835,2.6808,2.6982,2.707,2.707,2.7041,2.7055,2.7113,2.7113,2.691,2.6878,2.6939,2.6997,2.6895,2.6736,2.6344,2.6021,2.5948,2.5763,2.556,2.4994,2.4704,2.4689,2.4283,2.3934,2.3316,2.32,2.3018,2.2989,2.2946,2.2888,2.2888,2.2888,2.2888,3.9415,3.9681,4.0126,4.0509,4.0817,4.0969,4.1156,4.1423,4.1555,4.1588,4.1336,4.0119,3.9487,3.9187,3.8127,3.751,3.751,3.751,3.751,3.751,3.751,3.751,3.751,3.751,3.6864,3.5742,3.4762,3.3957,3.3419,3.3309,3.3293,3.323,3.3087,3.275,3.2307,3.1849,3.1437,3.0907,3.0661,3.0354,2.9911,2.9848,2.9627,2.9161,2.9114,2.9114,2.9114,2.9114,2.9114,2.9114,2.9114,2.9114,2.9114,2.9114,2.9114,2.9114,2.9114,2.9114,2.9114,2.9114,2.9114,2.9114,2.9114,2.9114,2.9114,2.9114,2.913,2.913,2.9114,2.9075,2.9006,2.8748,2.8628,2.8549,2.8253,2.8008,2.779,2.7478,2.713,2.6931,2.7171,2.7403,2.7492,2.7708,2.7997,2.8011,2.8026,2.8026,2.8055,2.7968,2.7853,2.7563,2.7476,2.7316,2.72,2.707,2.6779,2.6504,2.6387,2.6283,2.6068,2.5937,2.5716,2.5295,2.4878,2.4413,2.3833,2.3461,2.3316,2.3084,2.2983,2.2917,2.2888,2.2888,2.2888,3.9722,4.0071,4.0646,4.1055,4.1305,4.129,4.139,4.1588,4.1588,4.1588,4.1304,4.0119,3.9487,3.9218,3.8081,3.7541,3.751,3.751,3.751,3.751,3.751,3.751,3.751,3.751,3.6956,3.5853,3.5047,3.4336,3.3672,3.3435,3.3293,3.3293,3.3293,3.3103,3.2671,3.2402,3.2038,3.1634,3.1334,3.1002,3.0654,3.0559,3.0354,2.9904,2.9635,2.9532,2.9493,2.9256,2.9114,2.9114,2.9114,2.9114,2.9114,2.9114,2.9114,2.9114,2.9114,2.9114,2.9114,2.9114,2.9114,2.9114,2.9114,2.9114,2.9114,2.9114,2.9177,2.9469,2.9548,2.9564,2.9714,2.9286,2.8943,2.8716,2.821,2.78,2.759,2.748,2.734,2.7314,2.7694,2.7971,2.8202,2.8361,2.8694,2.8694,2.8694,2.8694,2.8694,2.8651,2.839,2.8202,2.8115,2.7882,2.7592,2.7403,2.72,2.7026,2.6881,2.6707,2.6533,2.6489,2.6315,2.5647,2.5154,2.4791,2.423,2.3905,2.3673,2.3383,2.3142,2.2931,2.2902,2.2888,2.2888,4.013,4.0593,4.129,4.1555,4.1555,4.1555,4.1555,4.1588,4.1588,4.1588,4.1288,4.023,3.9629,3.9297,3.827,3.7668,3.7573,3.751,3.751,3.751,3.751,3.751,3.751,3.751,3.7054,3.6314,3.5647,3.4952,3.4178,3.3593,3.3293,3.3293,3.3293,3.3293,3.3119,3.2655,3.2418,3.2291,3.1744,3.1444,3.1286,3.127,3.1167,3.1081,3.0543,3.0267,3.0148,2.9643,2.9193,2.913,2.9114,2.9114,2.9114,2.9114,2.9114,2.9114,2.9114,2.9114,2.9114,2.9114,2.9114,2.9114,2.9114,2.9114,2.9114,2.924,2.9493,2.999,3.0204,3.0425,3.064,3.0198,2.9599,2.9164,2.8394,2.7744,2.7351,2.7564,2.775,2.7882,2.8303,2.8752,2.8753,2.8869,2.8956,2.897,2.8999,2.9058,2.9043,2.913,2.8883,2.8781,2.8739,2.8463,2.8173,2.7969,2.7795,2.7723,2.7505,2.7229,2.691,2.6808,2.675,2.6083,2.5589,2.5158,2.481,2.4559,2.4239,2.4007,2.3635,2.3149,2.3105,2.3308,2.3221,4.013,4.0543,4.129,4.1588,4.1588,4.1588,4.1588,4.1588,4.1588,4.1588,4.1383,4.0704,4.0277,4.0151,3.8855,3.8239,3.8096,3.7686,3.751,3.751,3.751,3.751,3.751,3.7494,3.7133,3.6424,3.5789,3.4999,3.4315,3.3672,3.334,3.3293,3.3293,3.3293,3.3245,3.3087,3.304,3.3024,3.2866,3.244,3.207,3.2023,3.1713,3.1198,3.1024,3.0939,3.0875,3.0275,2.9627,2.9146,2.9114,2.9114,2.9114,2.9114,2.9114,2.9114,2.9114,2.9114,2.9114,2.9114,2.9114,2.9114,2.9114,2.9114,2.913,2.9611,2.9943,3.0299,3.0591,3.0993,3.1061,3.0751,3.0222,2.9497,2.8685,2.8012,2.7766,2.8083,2.8419,2.8492,2.9,2.9305,2.945,2.9697,2.9973,3.0002,2.9987,2.9973,2.9842,2.9857,2.9755,2.9464,2.9305,2.9044,2.8782,2.8565,2.8462,2.8447,2.8215,2.7837,2.7372,2.6907,2.6794,2.6504,2.6286,2.5937,2.5676,2.5415,2.5067,2.4617,2.4346,2.4003,2.4201,2.4375,2.4041,4.013,4.0558,4.129,4.1588,4.1588,4.1588,4.1588,4.1588,4.1588,4.1588,4.143,4.0893,4.0609,4.0451,3.9139,3.8523,3.8428,3.7796,3.7526,3.751,3.751,3.751,3.751,3.751,3.7259,3.6848,3.6153,3.5473,3.4762,3.4051,3.3609,3.334,3.3293,3.3293,3.3293,3.3293,3.3309,3.3293,3.3293,3.3072,3.2766,3.2734,3.2534,3.2076,3.1855,3.1555,3.1198,3.0812,3.0291,2.969,2.9304,2.9114,2.9114,2.9114,2.9114,2.9114,2.9114,2.9114,2.9114,2.9114,2.9114,2.9114,2.9114,2.9272,2.9548,2.9975,3.0299,3.1105,3.1469,3.176,3.1931,3.1569,3.0778,2.9894,2.9334,2.8845,2.8242,2.8695,2.9029,2.9218,2.9595,3.0016,3.0016,3.0364,3.0539,3.0569,3.0481,3.0496,3.051,3.0583,3.0525,3.0118,2.9958,2.9755,2.9508,2.929,2.9102,2.9073,2.8854,2.8476,2.807,2.7445,2.7157,2.7099,2.6924,2.6721,2.6402,2.6039,2.5575,2.5226,2.5042,2.4911,2.494,2.51,2.4781,4.0165,4.0643,4.1339,4.1588,4.1588,4.1588,4.1588,4.1588,4.1588,4.1588,4.1478,4.0972,4.0814,4.0625,3.9392,3.8649,3.8618,3.7844,3.7573,3.751,3.751,3.751,3.751,3.751,3.7462,3.7259,3.6738,3.6105,3.5426,3.4762,3.4146,3.3846,3.3672,3.3498,3.3561,3.3467,3.3388,3.3309,3.3293,3.3277,3.3182,3.3182,3.3103,3.3008,3.2655,3.2155,3.1713,3.1381,3.1049,3.0473,2.9738,2.9509,2.943,2.9382,2.9414,2.9477,2.9556,2.9509,2.9398,2.9525,2.943,2.9509,2.9477,2.9556,3.018,3.052,3.1058,3.1943,3.2349,3.2639,3.2888,3.2426,3.1548,3.0632,3.0491,3.0045,2.933,2.9377,2.9726,2.974,3.0278,3.0539,3.0612,3.0612,3.0612,3.0612,3.0612,3.0612,3.0612,3.0598,3.0598,3.051,3.0467,3.0525,3.0292,3.0031,2.9842,2.9697,2.945,2.9159,2.8985,2.8434,2.794,2.7623,2.7534,2.7287,2.6968,2.6562,2.6155,2.5879,2.5749,2.5444,2.5226,2.5517,2.5419,4.0443,4.0987,4.1423,4.1588,4.1588,4.1588,4.1588,4.1588,4.1588,4.1588,4.1557,4.1415,4.1351,4.1272,3.9914,3.9281,3.906,3.8081,3.751,3.751,3.751,3.751,3.751,3.751,3.751,3.7352,3.6753,3.6329,3.5998,3.5489,3.5078,3.4905,3.4699,3.4636,3.4146,3.4004,3.3799,3.3419,3.3309,3.3293,3.3293,3.3293,3.3293,3.3293,3.3119,3.3024,3.2787,3.2355,3.2007,3.1706,3.1191,3.074,3.0614,3.0614,3.0598,3.0582,3.063,3.0677,3.0709,3.0614,3.0709,3.0598,3.0567,3.0803,3.097,3.146,3.188,3.2402,3.274,3.3087,3.3203,3.3024,3.2369,3.1738,3.1442,3.1123,3.0514,3.0337,3.0336,3.0409,3.0481,3.0612,3.0612,3.0612,3.0612,3.0612,3.0612,3.0612,3.0612,3.0612,3.0612,3.0612,3.0612,3.0612,3.0539,3.0351,3.0234,3.0132,2.9944,2.9639,2.9479,2.9334,2.8739,2.839,2.8158,2.7882,2.7563,2.736,2.6985,2.6736,2.6431,2.6184,2.6025,2.6155,2.6054,4.0715,4.1138,4.1456,4.1588,4.1588,4.1588,4.1588,4.1588,4.1588,4.1588,4.1588,4.1588,4.1588,4.1462,4.0182,3.9487,3.9171,3.8142,3.751,3.751,3.751,3.751,3.751,3.751,3.751,3.7417,3.7133,3.6785,3.6361,3.6045,3.5679,3.541,3.541,3.5157,3.4762,3.451,3.413,3.3799,3.3435,3.3293,3.3293,3.3293,3.3293,3.3293,3.3293,3.3293,3.3214,3.2961,3.2771,3.2661,3.2376,3.1839,3.1318,3.1198,3.1198,3.1182,3.1182,3.1182,3.1182,3.1182,3.1151,3.1214,3.1198,3.1428,3.1634,3.2117,3.2434,3.275,3.3056,3.3293,3.3309,3.3176,3.2839,3.2496,3.2135,3.1682,3.1146,3.0791,3.0612,3.0612,3.0583,3.0612,3.0612,3.0612,3.0612,3.0612,3.0612,3.0612,3.0612,3.0612,3.0612,3.0612,3.0612,3.0612,3.0612,3.0554,3.0539,3.0467,3.038,3.0001,2.9697,2.9595,2.945,2.9102,2.8739,2.8491,2.82,2.8013,2.7681,2.7289,2.6997,2.6895,2.6721,2.6518,2.6431,4.0969,4.1205,4.1489,4.1588,4.1588,4.1588,4.1588,4.1588,4.1588,4.1588,4.1588,4.1588,4.1588,4.1304,4.0309,3.9661,3.9044,3.8365,3.7733,3.7526,3.751,3.751,3.751,3.751,3.751,3.751,3.7431,3.7101,3.6769,3.6519,3.6374,3.5853,3.5758,3.5758,3.5473,3.4999,3.4541,3.4209,3.3783,3.3435,3.3324,3.3293,3.3293,3.3293,3.3293,3.3293,3.3293,3.323,3.3245,3.3293,3.3293,3.2661,3.1918,3.1523,3.1498,3.1561,3.1688,3.176,3.1782,3.1697,3.1665,3.1514,3.1546,3.1839,3.2323,3.2513,3.2766,3.3024,3.3293,3.3293,3.3282,3.3203,3.3,3.2672,3.2413,3.2025,3.1586,3.1087,3.0967,3.0612,3.0612,3.0612,3.0612,3.0612,3.0612,3.0612,3.0612,3.0612,3.0612,3.0612,3.0612,3.0612,3.0612,3.0612,3.0612,3.0612,3.0612,3.0612,3.0612,3.0365,3.0016,3.0001,2.99,2.961,2.9276,2.9044,2.8709,2.8303,2.7985,2.7695,2.7275,2.6895,2.6794,2.6794,2.6736,4.1223,4.1522,4.1588,4.1588,4.1588,4.1588,4.1588,4.1588,4.1588,4.1588,4.1588,4.1588,4.1588,4.1351,4.0814,3.9819,3.8871,3.8318,3.797,3.7605,3.751,3.751,3.751,3.751,3.751,3.751,3.751,3.7399,3.732,3.7304,3.7099,3.7099,3.7035,3.6785,3.6342,3.6014,3.5347,3.4636,3.4194,3.383,3.3514,3.3324,3.3293,3.3293,3.3293,3.3293,3.3293,3.3293,3.3293,3.3293,3.3293,3.3151,3.2882,3.2803,3.2803,3.2771,3.2714,3.2677,3.2724,3.2835,3.2914,3.2961,3.2819,3.285,3.304,3.3087,3.3119,3.3198,3.3293,3.3293,3.3293,3.3256,3.315,3.2893,3.2753,3.256,3.2415,3.2154,3.1632,3.1142,3.0891,3.0757,3.0917,3.0932,3.083,3.0786,3.067,3.0641,3.0612,3.0612,3.0612,3.0612,3.0612,3.0612,3.0612,3.0612,3.0612,3.0612,3.0612,3.0612,3.0409,3.0481,3.0321,2.9972,2.9842,2.9755,2.9319,2.8739,2.8158,2.7752,2.7287,2.6808,2.6794,2.6794,2.6794,4.1456,4.1588,4.1588,4.1588,4.1588,4.1588,4.1588,4.1588,4.1588,4.1588,4.1588,4.1588,4.1588,4.1415,4.0893,3.9819,3.8823,3.8507,3.8112,3.7636,3.751,3.751,3.751,3.751,3.751,3.751,3.751,3.751,3.751,3.7494,3.751,3.7494,3.751,3.732,3.6927,3.6548,3.6061,3.5331,3.4715,3.4178,3.3783,3.353,3.3309,3.3293,3.3293,3.3293,3.3293,3.3293,3.3293,3.3293,3.3293,3.3293,3.3293,3.3293,3.3293,3.3293,3.3293,3.3293,3.3293,3.3293,3.3261,3.3277,3.3293,3.3293,3.3293,3.3277,3.3293,3.3293,3.3293,3.3293,3.3293,3.3309,3.3229,3.3201,3.3228,3.3327,3.3255,3.3212,3.2721,3.2045,3.1931,3.1837,3.1613,3.1511,3.1177,3.0959,3.0801,3.0699,3.0641,3.0612,3.0612,3.0728,3.0743,3.0743,3.0714,3.0641,3.0612,3.0612,3.0612,3.0612,3.0612,3.0598,3.0525,3.0292,3.0263,3.022,2.9871,2.9305,2.8564,2.7837,2.7401,2.7053,2.6866,2.6794,2.691,4.1588,4.1588,4.1588,4.1588,4.1588,4.1588,4.1588,4.1588,4.1588,4.1588,4.1588,4.1588,4.1588,4.1415,4.083,3.9914,3.8728,3.8634,3.8112,3.7621,3.751,3.751,3.751,3.751,3.751,3.751,3.751,3.751,3.751,3.751,3.751,3.751,3.751,3.751,3.7352,3.6959,3.6658,3.6061,3.5426,3.4699,3.4209,3.3672,3.3293,3.3293,3.3293,3.3293,3.3293,3.3293,3.3293,3.3293,3.3293,3.3293,3.3293,3.3293,3.3293,3.3293,3.3293,3.3293,3.3293,3.3293,3.3293,3.3293,3.3293,3.3293,3.3293,3.3293,3.3293,3.3293,3.3293,3.3293,3.3324,3.3451,3.3514,3.3661,3.4022,3.4344,3.4317,3.4264,3.4137,3.3631,3.3248,3.2757,3.237,3.2048,3.1714,3.1293,3.1105,3.0801,3.0728,3.0627,3.0656,3.0845,3.0917,3.0917,3.0845,3.0699,3.0656,3.0612,3.0612,3.0612,3.0612,3.0612,3.0525,3.0467,3.0496,3.0409,3.0118,2.9755,2.8985,2.8289,2.7677,2.7445,2.7576,2.749,2.749,4.1588,4.1588,4.1588,4.1588,4.1588,4.1588,4.1588,4.1588,4.1588,4.1588,4.1588,4.1588,4.1573,4.1367,4.0877,4.0135,3.936,3.8728,3.8144,3.7589,3.751,3.751,3.751,3.751,3.751,3.751,3.751,3.751,3.751,3.751,3.751,3.751,3.751,3.751,3.7478,3.7304,3.7038,3.6487,3.6187,3.5508,3.4478,3.3751,3.3498,3.3372,3.3372,3.334,3.3324,3.3293,3.3293,3.3293,3.3293,3.3293,3.3293,3.3293,3.3293,3.3293,3.3293,3.3293,3.3293,3.3293,3.3293,3.3293,3.3293,3.3293,3.3293,3.3293,3.3293,3.3293,3.334,3.3388,3.353,3.3893,3.4067,3.4399,3.4782,3.526,3.5424,3.5298,3.5171,3.4857,3.4332,3.3487,3.2882,3.2527,3.2191,3.1801,3.1409,3.1119,3.099,3.1019,3.0874,3.1061,3.109,3.1076,3.0859,3.0728,3.067,3.0612,3.0612,3.0612,3.0612,3.0612,3.0612,3.0583,3.0612,3.0496,3.0118,2.9726,2.929,2.8826,2.8302,2.8302,2.8505,2.836,2.807,4.1588,4.1588,4.1588,4.1588,4.1588,4.1588,4.1588,4.1588,4.1588,4.1588,4.1588,4.1588,4.1399,4.1051,4.0672,3.9977,3.9076,3.8618,3.8128,3.7621,3.751,3.751,3.751,3.751,3.751,3.751,3.751,3.751,3.751,3.751,3.751,3.751,3.751,3.751,3.751,3.751,3.7306,3.699,3.6579,3.5916,3.511,3.462,3.4273,3.3893,3.3862,3.3656,3.3403,3.3293,3.3293,3.3293,3.3293,3.3293,3.3293,3.3293,3.3293,3.3293,3.3293,3.3293,3.3293,3.3309,3.3293,3.3309,3.3309,3.3293,3.3293,3.3356,3.3356,3.3293,3.3672,3.383,3.3988,3.451,3.4778,3.511,3.5552,3.5859,3.6191,3.6331,3.6184,3.5806,3.5337,3.441,3.3561,3.3213,3.2933,3.2629,3.2251,3.1946,3.1859,3.1917,3.1685,3.1409,3.1366,3.1293,3.0961,3.0685,3.0656,3.0612,3.0612,3.0612,3.0612,3.0612,3.0612,3.0612,3.0612,3.0423,3.0118,2.9856,2.9537,2.9232,2.8913,2.897,2.8985,2.8709,2.8347,4.1588,4.1588,4.1588,4.1588,4.1588,4.1588,4.1588,4.1588,4.1588,4.1588,4.1588,4.1557,4.1225,4.064,4.0324,3.9629,3.8555,3.8349,3.797,3.7652,3.751,3.751,3.751,3.751,3.751,3.751,3.751,3.751,3.751,3.751,3.751,3.751,3.751,3.751,3.751,3.751,3.7447,3.737,3.6753,3.614,3.5679,3.5426,3.5031,3.4668,3.4352,3.4067,3.3625,3.334,3.3293,3.3293,3.3293,3.3293,3.3293,3.3293,3.3293,3.3293,3.3293,3.3451,3.3467,3.3467,3.334,3.3356,3.3561,3.3735,3.3941,3.3814,3.383,3.4004,3.4288,3.4525,3.4715,3.5221,3.5537,3.5868,3.6248,3.6485,3.6663,3.6743,3.6569,3.6072,3.5591,3.5118,3.4435,3.3947,3.3678,3.346,3.3108,3.2759,3.2672,3.2658,3.2542,3.2193,3.1917,3.1816,3.1482,3.1135,3.0932,3.0714,3.0714,3.067,3.0714,3.0656,3.0612,3.0612,3.0641,3.0539,3.0365,3.0089,2.9856,2.9769,2.9682,2.945,2.9305,2.9058,2.8797,4.1588,4.1588,4.1588,4.1588,4.1588,4.1588,4.1588,4.1588,4.1588,4.1588,4.1588,4.1557,4.1209,4.0561,3.9882,3.925,3.8444,3.7828,3.7636,3.7557,3.751,3.751,3.751,3.751,3.751,3.751,3.751,3.751,3.751,3.751,3.751,3.751,3.751,3.751,3.751,3.751,3.751,3.7399,3.6864,3.6535,3.6216,3.5916,3.5489,3.5236,3.4715,3.4257,3.4194,3.3799,3.3577,3.3577,3.3609,3.3467,3.3514,3.3482,3.3482,3.3482,3.3467,3.3719,3.4004,3.3751,3.3403,3.3498,3.3878,3.4446,3.4794,3.5094,3.5189,3.5047,3.5142,3.5284,3.5505,3.5884,3.6295,3.6516,3.6785,3.699,3.7103,3.7048,3.6814,3.6321,3.5831,3.5412,3.4953,3.4453,3.4074,3.3808,3.3721,3.3354,3.318,3.3151,3.3267,3.3064,3.2687,3.2454,3.222,3.1888,3.1366,3.1163,3.1148,3.1019,3.0888,3.0801,3.0917,3.0728,3.0772,3.0685,3.0598,3.038,3.0263,3.0467,3.0394,3.0045,2.9886,2.9726,2.9479,4.1588,4.1588,4.1588,4.1588,4.1588,4.1588,4.1588,4.1588,4.1588,4.1588,4.1588,4.1541,4.0972,4.0103,3.9661,3.8886,3.797,3.7684,3.7541,3.751,3.751,3.751,3.751,3.751,3.751,3.751,3.751,3.751,3.751,3.751,3.751,3.751,3.751,3.751,3.751,3.751,3.751,3.7462,3.7257,3.7069,3.7006,3.6848,3.6469,3.5979,3.5868,3.5347,3.5031,3.4762,3.4636,3.4557,3.451,3.4273,3.3941,3.3909,3.3878,3.3878,3.3878,3.4241,3.4683,3.4399,3.4115,3.4573,3.4841,3.511,3.5521,3.5426,3.5394,3.5473,3.5821,3.6011,3.6093,3.6627,3.7085,3.7148,3.7288,3.7447,3.7435,3.7329,3.7074,3.6569,3.6148,3.5752,3.5314,3.4839,3.4489,3.4191,3.4084,3.3964,3.3761,3.3616,3.3703,3.3634,3.3195,3.2832,3.2629,3.2193,3.1729,3.1656,3.1613,3.1526,3.144,3.1484,3.1498,3.1192,3.0872,3.0816,3.0743,3.0641,3.0612,3.0598,3.0598,3.0525,3.0423,3.0306,3.0031,4.1588,4.1588,4.1588,4.1588,4.1588,4.1588,4.1588,4.1588,4.1588,4.1588,4.1588,4.1541,4.0956,4.0072,3.9803,3.9108,3.8223,3.7828,3.7654,3.7589,3.751,3.751,3.751,3.751,3.751,3.751,3.751,3.751,3.751,3.751,3.751,3.751,3.751,3.751,3.751,3.751,3.751,3.751,3.751,3.751,3.7478,3.7431,3.7304,3.6706,3.6469,3.6108,3.5695,3.541,3.5236,3.5236,3.5221,3.5063,3.4731,3.4462,3.4431,3.4478,3.4525,3.4747,3.5236,3.5142,3.4984,3.5489,3.5631,3.5805,3.5947,3.6023,3.6245,3.6184,3.6532,3.6738,3.6738,3.7148,3.7383,3.7368,3.7383,3.751,3.748,3.7375,3.7135,3.68,3.643,3.6101,3.5527,3.5085,3.4725,3.4403,3.4254,3.4211,3.4182,3.408,3.408,3.3891,3.3572,3.3224,3.289,3.2513,3.2193,3.2135,3.2121,3.2237,3.2193,3.2222,3.2106,3.1859,3.1511,3.1076,3.0888,3.083,3.0714,3.0612,3.0612,3.0612,3.0583,3.0467,3.0335,4.1588,4.1588,4.1588,4.1588,4.1588,4.1588,4.1588,4.1588,4.1588,4.1588,4.1588,4.1573,4.1193,4.0577,4.0403,3.9582,3.8586,3.8349,3.8081,3.7621,3.751,3.751,3.751,3.751,3.751,3.751,3.751,3.751,3.751,3.751,3.751,3.751,3.751,3.751,3.751,3.751,3.751,3.751,3.751,3.751,3.751,3.751,3.7415,3.7212,3.6864,3.6532,3.6374,3.6026,3.5868,3.5849,3.5774,3.5631,3.5379,3.4841,3.4857,3.5284,3.4762,3.5142,3.6169,3.5695,3.5868,3.6295,3.6406,3.6595,3.7178,3.7336,3.7178,3.6956,3.7257,3.7368,3.7447,3.7462,3.7494,3.751,3.751,3.751,3.748,3.7464,3.7225,3.7075,3.6816,3.6461,3.5831,3.5314,3.492,3.462,3.4467,3.4414,3.4414,3.4385,3.4312,3.4196,3.3891,3.3746,3.3398,3.2948,3.2672,3.26,3.2684,3.2916,3.3021,3.3021,3.2846,3.251,3.2179,3.1772,3.1366,3.1003,3.0816,3.0612,3.0612,3.0612,3.0612,3.0583,3.0481,4.1588,4.1588,4.1588,4.1588,4.1588,4.1588,4.1588,4.1588,4.1588,4.1588,4.1588,4.1588,4.1225,4.0767,4.0514,3.9914,3.8792,3.8491,3.8128,3.7621,3.7621,3.751,3.7526,3.7589,3.7541,3.751,3.751,3.751,3.751,3.751,3.751,3.751,3.751,3.751,3.751,3.751,3.751,3.751,3.751,3.751,3.751,3.751,3.751,3.7494,3.718,3.7054,3.7038,3.6674,3.664,3.6624,3.6608,3.6453,3.6153,3.5631,3.5774,3.6042,3.5726,3.6137,3.6864,3.688,3.688,3.7038,3.7085,3.718,3.7494,3.751,3.751,3.751,3.751,3.751,3.7494,3.7494,3.751,3.751,3.751,3.751,3.751,3.751,3.7421,3.7315,3.7119,3.6785,3.6274,3.5831,3.5397,3.5052,3.4854,3.4568,3.4481,3.4414,3.437,3.437,3.424,3.4167,3.3949,3.3558,3.3456,3.3467,3.3641,3.3873,3.392,3.3732,3.3529,3.3224,3.2846,3.2469,3.1729,3.1076,3.0786,3.0612,3.0612,3.0612,3.0612,3.0612,3.0583,4.1588,4.1588,4.1588,4.1588,4.1588,4.1588,4.1588,4.1588,4.1588,4.1588,4.1588,4.1573,4.1383,4.1035,4.0846,4.0435,3.9297,3.9234,3.8855,3.8254,3.8237,3.8158,3.797,3.781,3.7747,3.7621,3.751,3.751,3.751,3.751,3.751,3.751,3.751,3.751,3.751,3.751,3.751,3.751,3.751,3.751,3.751,3.751,3.751,3.751,3.7462,3.7478,3.7494,3.751,3.751,3.751,3.7431,3.7288,3.6864,3.6579,3.6611,3.669,3.6832,3.7038,3.7336,3.7431,3.7352,3.7431,3.751,3.751,3.751,3.751,3.751,3.751,3.751,3.751,3.751,3.751,3.751,3.751,3.751,3.751,3.751,3.751,3.751,3.7435,3.7375,3.7029,3.6754,3.6367,3.5943,3.5623,3.5299,3.4953,3.4601,3.4481,3.4414,3.4399,3.4399,3.4312,3.4298,3.4225,3.4163,3.4351,3.438,3.438,3.4337,3.4109,3.3993,3.3848,3.3369,3.2745,3.1772,3.1134,3.0816,3.0641,3.0612,3.0612,3.0612,3.0612,3.0612,4.1588,4.1588,4.1588,4.1588,4.1588,4.1588,4.1588,4.1588,4.1588,4.1588,4.1588,4.1588,4.1509,4.1557,4.1557,4.1099,4.0482,4.0403,3.9898,3.9471,3.9123,3.8871,3.8555,3.8365,3.797,3.7668,3.751,3.751,3.751,3.751,3.751,3.751,3.751,3.751,3.751,3.751,3.751,3.751,3.751,3.751,3.751,3.751,3.751,3.751,3.751,3.751,3.751,3.751,3.751,3.751,3.7494,3.7494,3.7273,3.6817,3.7038,3.7257,3.7415,3.7462,3.7478,3.751,3.751,3.751,3.751,3.751,3.751,3.751,3.751,3.751,3.751,3.751,3.751,3.751,3.751,3.751,3.751,3.751,3.751,3.751,3.751,3.748,3.748,3.7285,3.7044,3.6723,3.6461,3.6148,3.5767,3.5299,3.4905,3.4467,3.4448,3.438,3.4414,3.438,3.438,3.438,3.438,3.438,3.438,3.438,3.438,3.438,3.4269,3.4051,3.3765,3.3097,3.2121,3.1351,3.0801,3.0685,3.0627,3.0612,3.0612,3.0612,3.0612,4.1588,4.1588,4.1588,4.1588,4.1588,4.1588,4.1588,4.1588,4.1588,4.1588,4.1588,4.1588,4.1588,4.1588,4.1588,4.1178,4.0846,4.0498,4.0072,3.9803,3.9708,3.9123,3.8744,3.8523,3.8081,3.7731,3.751,3.751,3.751,3.751,3.751,3.751,3.751,3.751,3.751,3.751,3.751,3.751,3.751,3.751,3.751,3.751,3.751,3.751,3.751,3.751,3.751,3.751,3.751,3.751,3.751,3.751,3.7462,3.732,3.7415,3.7447,3.7494,3.751,3.751,3.751,3.751,3.751,3.751,3.751,3.751,3.751,3.751,3.751,3.751,3.751,3.751,3.751,3.751,3.751,3.751,3.751,3.751,3.751,3.751,3.751,3.751,3.748,3.7271,3.7225,3.6938,3.6631,3.6226,3.5705,3.5187,3.4721,3.4433,3.4414,3.438,3.438,3.438,3.438,3.438,3.438,3.438,3.438,3.438,3.438,3.438,3.4196,3.3819,3.3224,3.2437,3.1801,3.1221,3.0757,3.0641,3.0627,3.0612,3.0612,3.0612,4.1588,4.1588,4.1588,4.1588,4.1588,4.1588,4.1588,4.1588,4.1588,4.1588,4.1588,4.1588,4.1588,4.1588,4.1573,4.1383,4.1083,4.1051,4.0798,4.0609,4.0182,3.9724,3.9266,3.876,3.8318,3.7828,3.751,3.751,3.751,3.751,3.751,3.751,3.751,3.751,3.751,3.751,3.751,3.751,3.751,3.751,3.751,3.751,3.751,3.751,3.751,3.751,3.751,3.751,3.751,3.751,3.751,3.751,3.751,3.7494,3.7494,3.751,3.751,3.751,3.751,3.751,3.751,3.751,3.751,3.751,3.751,3.751,3.751,3.751,3.751,3.751,3.751,3.751,3.751,3.751,3.751,3.751,3.751,3.751,3.751,3.751,3.751,3.751,3.748,3.751,3.7375,3.6952,3.6461,3.5943,3.535,3.482,3.4534,3.4414,3.438,3.438,3.438,3.438,3.438,3.438,3.438,3.438,3.438,3.438,3.438,3.4182,3.3862,3.3325,3.2832,3.2324,3.1787,3.1293,3.0872,3.0859,3.0786,3.0612,3.0612,4.1588,4.1588,4.1588,4.1588,4.1588,4.1588,4.1588,4.1588,4.1588,4.1588,4.1588,4.1588,4.1588,4.1588,4.1588,4.1478,4.1241,4.1178,4.0988,4.1367,4.083,4.0166,3.9439,3.9297,3.8428,3.7826,3.751,3.751,3.751,3.751,3.751,3.751,3.751,3.751,3.751,3.751,3.751,3.751,3.751,3.751,3.751,3.751,3.751,3.751,3.751,3.751,3.751,3.751,3.751,3.751,3.751,3.751,3.751,3.751,3.751,3.751,3.751,3.751,3.751,3.751,3.751,3.751,3.751,3.751,3.751,3.751,3.751,3.751,3.751,3.751,3.751,3.751,3.751,3.751,3.751,3.751,3.751,3.751,3.751,3.751,3.751,3.751,3.751,3.751,3.7435,3.7104,3.6723,3.6196,3.5655,3.5052,3.4668,3.4481,3.438,3.438,3.438,3.438,3.438,3.438,3.438,3.438,3.438,3.438,3.438,3.4225,3.4037,3.3717,3.3282,3.2817,3.2353,3.1816,3.1438,3.1192,3.0988,3.0845,3.0656,4.1588,4.1588,4.1588,4.1588,4.1588,4.1588,4.1573,4.1588,4.1588,4.1588,4.1588,4.1588,4.1588,4.1588,4.1588,4.1415,4.102,4.1083,4.053,4.034,4.0245,3.9929,3.895,3.8839,3.8286,3.7794,3.751,3.7589,3.7605,3.7573,3.751,3.751,3.751,3.751,3.751,3.751,3.751,3.751,3.751,3.751,3.751,3.751,3.751,3.751,3.751,3.751,3.751,3.751,3.751,3.751,3.751,3.751,3.751,3.751,3.751,3.751,3.751,3.751,3.751,3.751,3.751,3.751,3.751,3.751,3.751,3.751,3.751,3.751,3.751,3.751,3.751,3.751,3.751,3.751,3.751,3.751,3.751,3.751,3.751,3.751,3.751,3.751,3.751,3.7464,3.7405,3.718,3.6861,3.6414,3.6006,3.5462,3.4887,3.4635,3.4448,3.438,3.438,3.438,3.438,3.438,3.438,3.438,3.438,3.438,3.438,3.4366,3.424,3.3964,3.3703,3.346,3.2933,3.2411,3.2004,3.1758,3.1482,3.1279,3.0959,4.0672,4.0656,4.0656,4.0672,4.0719,4.1004,4.1146,4.1209,4.1462,4.1588,4.1588,4.1588,4.1588,4.1588,4.1588,4.143,4.1004,4.1067,4.0767,4.0245,3.9692,3.9392,3.8934,3.846,3.8381,3.7986,3.7954,3.7954,3.7859,3.7589,3.751,3.751,3.751,3.751,3.751,3.751,3.751,3.751,3.751,3.751,3.751,3.751,3.751,3.751,3.751,3.751,3.751,3.751,3.751,3.751,3.751,3.751,3.751,3.751,3.751,3.751,3.751,3.751,3.751,3.751,3.751,3.751,3.751,3.751,3.751,3.751,3.751,3.751,3.751,3.751,3.751,3.751,3.751,3.751,3.751,3.751,3.751,3.751,3.751,3.751,3.751,3.751,3.751,3.751,3.7435,3.7375,3.7029,3.6785,3.6367,3.5943,3.5379,3.4902,3.4668,3.4481,3.438,3.438,3.438,3.438,3.438,3.438,3.438,3.438,3.438,3.4366,3.4337,3.4269,3.4022,3.3819,3.3576,3.3064,3.2658,3.2309,3.2048,3.1801,3.1598,3.955,3.9503,3.9645,3.9677,3.9756,4.0435,4.0783,4.0877,4.1336,4.1588,4.1588,4.1588,4.1588,4.1588,4.1588,4.1525,4.1383,4.113,4.0862,4.0261,4.0087,3.9171,3.857,3.8302,3.827,3.8365,3.8397,3.8397,3.8365,3.7875,3.751,3.751,3.751,3.751,3.751,3.751,3.751,3.751,3.751,3.751,3.751,3.751,3.751,3.751,3.751,3.751,3.751,3.751,3.751,3.751,3.751,3.751,3.751,3.751,3.751,3.751,3.751,3.751,3.751,3.751,3.751,3.751,3.751,3.751,3.751,3.751,3.751,3.751,3.751,3.751,3.751,3.751,3.751,3.751,3.751,3.751,3.751,3.751,3.751,3.751,3.751,3.751,3.751,3.751,3.7512,3.7436,3.7317,3.7044,3.6723,3.6336,3.5879,3.5365,3.5019,3.4787,3.4481,3.438,3.438,3.438,3.438,3.438,3.438,3.438,3.438,3.438,3.437,3.4327,3.4341,3.4225,3.392,3.3649,3.3242,3.285,3.2614,3.2396,3.2309,3.9487,3.9534,4.0135,4.0356,4.0451,4.1083,4.1399,4.1415,4.1494,4.1588,4.1588,4.1588,4.1588,4.1588,4.1588,4.1446,4.1114,4.1004,3.9993,3.9044,3.9487,3.8665,3.8112,3.8254,3.816,3.8444,3.8744,3.8586,3.8792,3.8096,3.7557,3.7652,3.7621,3.7605,3.7573,3.7589,3.7621,3.7621,3.7541,3.751,3.751,3.751,3.751,3.751,3.751,3.751,3.751,3.751,3.751,3.751,3.751,3.751,3.751,3.751,3.751,3.751,3.751,3.751,3.751,3.751,3.751,3.751,3.751,3.751,3.751,3.751,3.751,3.751,3.751,3.751,3.751,3.751,3.751,3.751,3.751,3.751,3.751,3.751,3.751,3.751,3.751,3.751,3.751,3.7557,3.7668,3.7624,3.7735,3.7508,3.7465,3.6925,3.6428,3.5955,3.5502,3.4887,3.4515,3.4414,3.438,3.438,3.438,3.438,3.438,3.438,3.438,3.438,3.438,3.4351,3.438,3.438,3.4327,3.4022,3.3678,3.3344,3.314,3.31,3.3074]}]]